<?xml version="1.0" encoding="UTF-8" standalone="no" ?>
<gpx xmlns="http://www.topografix.com/GPX/1/1" xmlns:xsi="http://www.w3.org/2001/XMLSchema-instance" xsi:schemaLocation="http://www.topografix.com/GPX/1/1 http://www.topografix.com/GPX/1/1/gpx.xsd" version="1.1" creator="VisuGPX - https://www.visugpx.com">
  <metadata>
    <name>Lac des millefonds</name>
    <desc><![CDATA[Lac des millefonds]]></desc>
  </metadata>
  <trk>
    <name><![CDATA[2015-06-13T08:06:28Z]]></name>
    <trkseg>
      <trkpt lat="44.09835" lon="7.18638">
        <ele>2042.172</ele>
        <time>2015-06-13T08:06:29Z</time>
      </trkpt>
      <trkpt lat="44.09836" lon="7.1864">
        <ele>2042.736</ele>
        <time>2015-06-13T08:06:32Z</time>
      </trkpt>
      <trkpt lat="44.0984" lon="7.18642">
        <ele>2043.491</ele>
        <time>2015-06-13T08:06:37Z</time>
      </trkpt>
      <trkpt lat="44.09848" lon="7.1865">
        <ele>2042.151</ele>
        <time>2015-06-13T08:06:45Z</time>
      </trkpt>
      <trkpt lat="44.09849" lon="7.18653">
        <ele>2042.021</ele>
        <time>2015-06-13T08:06:47Z</time>
      </trkpt>
      <trkpt lat="44.09851" lon="7.18656">
        <ele>2040.95</ele>
        <time>2015-06-13T08:06:49Z</time>
      </trkpt>
      <trkpt lat="44.09854" lon="7.18665">
        <ele>2044.873</ele>
        <time>2015-06-13T08:06:56Z</time>
      </trkpt>
      <trkpt lat="44.09857" lon="7.18672">
        <ele>2047.243</ele>
        <time>2015-06-13T08:07:02Z</time>
      </trkpt>
      <trkpt lat="44.09859" lon="7.18674">
        <ele>2047.443</ele>
        <time>2015-06-13T08:07:07Z</time>
      </trkpt>
      <trkpt lat="44.09859" lon="7.18675">
        <ele>2047.422</ele>
        <time>2015-06-13T08:07:08Z</time>
      </trkpt>
      <trkpt lat="44.09863" lon="7.18679">
        <ele>2047.082</ele>
        <time>2015-06-13T08:07:12Z</time>
      </trkpt>
      <trkpt lat="44.09866" lon="7.18687">
        <ele>2049.913</ele>
        <time>2015-06-13T08:07:19Z</time>
      </trkpt>
      <trkpt lat="44.09871" lon="7.18694">
        <ele>2048.171</ele>
        <time>2015-06-13T08:07:26Z</time>
      </trkpt>
      <trkpt lat="44.09871" lon="7.18695">
        <ele>2047.952</ele>
        <time>2015-06-13T08:07:27Z</time>
      </trkpt>
      <trkpt lat="44.09874" lon="7.18708">
        <ele>2048.842</ele>
        <time>2015-06-13T08:07:35Z</time>
      </trkpt>
      <trkpt lat="44.09876" lon="7.18718">
        <ele>2049.242</ele>
        <time>2015-06-13T08:07:41Z</time>
      </trkpt>
      <trkpt lat="44.09878" lon="7.18723">
        <ele>2050.212</ele>
        <time>2015-06-13T08:07:44Z</time>
      </trkpt>
      <trkpt lat="44.09881" lon="7.18724">
        <ele>2050.352</ele>
        <time>2015-06-13T08:07:46Z</time>
      </trkpt>
      <trkpt lat="44.09885" lon="7.1873">
        <ele>2050.372</ele>
        <time>2015-06-13T08:07:51Z</time>
      </trkpt>
      <trkpt lat="44.09891" lon="7.18737">
        <ele>2049.652</ele>
        <time>2015-06-13T08:07:59Z</time>
      </trkpt>
      <trkpt lat="44.09895" lon="7.18741">
        <ele>2049.373</ele>
        <time>2015-06-13T08:08:04Z</time>
      </trkpt>
      <trkpt lat="44.09899" lon="7.18743">
        <ele>2050.183</ele>
        <time>2015-06-13T08:08:07Z</time>
      </trkpt>
      <trkpt lat="44.09907" lon="7.18751">
        <ele>2050.082</ele>
        <time>2015-06-13T08:08:15Z</time>
      </trkpt>
      <trkpt lat="44.09911" lon="7.18756">
        <ele>2050.372</ele>
        <time>2015-06-13T08:08:20Z</time>
      </trkpt>
      <trkpt lat="44.09916" lon="7.18756">
        <ele>2050.172</ele>
        <time>2015-06-13T08:08:24Z</time>
      </trkpt>
      <trkpt lat="44.09918" lon="7.18757">
        <ele>2051.083</ele>
        <time>2015-06-13T08:08:26Z</time>
      </trkpt>
      <trkpt lat="44.09919" lon="7.18757">
        <ele>2049.942</ele>
        <time>2015-06-13T08:08:33Z</time>
      </trkpt>
      <trkpt lat="44.09919" lon="7.18756">
        <ele>2049.992</ele>
        <time>2015-06-13T08:08:35Z</time>
      </trkpt>
      <trkpt lat="44.09926" lon="7.18751">
        <ele>2050.403</ele>
        <time>2015-06-13T08:08:45Z</time>
      </trkpt>
      <trkpt lat="44.0993" lon="7.18749">
        <ele>2050.122</ele>
        <time>2015-06-13T08:08:50Z</time>
      </trkpt>
      <trkpt lat="44.09934" lon="7.18745">
        <ele>2049.913</ele>
        <time>2015-06-13T08:08:58Z</time>
      </trkpt>
      <trkpt lat="44.09938" lon="7.18746">
        <ele>2053.555</ele>
        <time>2015-06-13T08:09:04Z</time>
      </trkpt>
      <trkpt lat="44.09942" lon="7.18745">
        <ele>2055.745</ele>
        <time>2015-06-13T08:09:09Z</time>
      </trkpt>
      <trkpt lat="44.09945" lon="7.18744">
        <ele>2056.303</ele>
        <time>2015-06-13T08:09:14Z</time>
      </trkpt>
      <trkpt lat="44.09949" lon="7.18743">
        <ele>2061.665</ele>
        <time>2015-06-13T08:09:23Z</time>
      </trkpt>
      <trkpt lat="44.09953" lon="7.18743">
        <ele>2059.062</ele>
        <time>2015-06-13T08:09:29Z</time>
      </trkpt>
      <trkpt lat="44.09954" lon="7.18744">
        <ele>2058.732</ele>
        <time>2015-06-13T08:09:30Z</time>
      </trkpt>
      <trkpt lat="44.09957" lon="7.18743">
        <ele>2056.21</ele>
        <time>2015-06-13T08:09:34Z</time>
      </trkpt>
      <trkpt lat="44.09967" lon="7.18744">
        <ele>2059.353</ele>
        <time>2015-06-13T08:09:44Z</time>
      </trkpt>
      <trkpt lat="44.09972" lon="7.18745">
        <ele>2062.134</ele>
        <time>2015-06-13T08:09:50Z</time>
      </trkpt>
      <trkpt lat="44.09972" lon="7.18744">
        <ele>2062.784</ele>
        <time>2015-06-13T08:09:51Z</time>
      </trkpt>
      <trkpt lat="44.09979" lon="7.18745">
        <ele>2064.723</ele>
        <time>2015-06-13T08:09:59Z</time>
      </trkpt>
      <trkpt lat="44.09985" lon="7.18746">
        <ele>2066.544</ele>
        <time>2015-06-13T08:10:07Z</time>
      </trkpt>
      <trkpt lat="44.09988" lon="7.18747">
        <ele>2066.563</ele>
        <time>2015-06-13T08:10:11Z</time>
      </trkpt>
      <trkpt lat="44.09997" lon="7.18746">
        <ele>2066.753</ele>
        <time>2015-06-13T08:10:20Z</time>
      </trkpt>
      <trkpt lat="44.10001" lon="7.18742">
        <ele>2066.642</ele>
        <time>2015-06-13T08:10:26Z</time>
      </trkpt>
      <trkpt lat="44.10008" lon="7.1874">
        <ele>2063.45</ele>
        <time>2015-06-13T08:10:33Z</time>
      </trkpt>
      <trkpt lat="44.10014" lon="7.18741">
        <ele>2064.723</ele>
        <time>2015-06-13T08:10:41Z</time>
      </trkpt>
      <trkpt lat="44.10014" lon="7.18741">
        <ele>2066.154</ele>
        <time>2015-06-13T08:10:42Z</time>
      </trkpt>
      <trkpt lat="44.10017" lon="7.18745">
        <ele>2068.384</ele>
        <time>2015-06-13T08:10:48Z</time>
      </trkpt>
      <trkpt lat="44.1002" lon="7.18747">
        <ele>2068.483</ele>
        <time>2015-06-13T08:10:52Z</time>
      </trkpt>
      <trkpt lat="44.10026" lon="7.18752">
        <ele>2069.973</ele>
        <time>2015-06-13T08:11:01Z</time>
      </trkpt>
      <trkpt lat="44.1003" lon="7.18753">
        <ele>2072.235</ele>
        <time>2015-06-13T08:11:07Z</time>
      </trkpt>
      <trkpt lat="44.10031" lon="7.18757">
        <ele>2075.506</ele>
        <time>2015-06-13T08:11:12Z</time>
      </trkpt>
      <trkpt lat="44.10036" lon="7.18761">
        <ele>2072.842</ele>
        <time>2015-06-13T08:11:20Z</time>
      </trkpt>
      <trkpt lat="44.10039" lon="7.18765">
        <ele>2075.644</ele>
        <time>2015-06-13T08:11:27Z</time>
      </trkpt>
      <trkpt lat="44.10042" lon="7.18768">
        <ele>2077.594</ele>
        <time>2015-06-13T08:11:35Z</time>
      </trkpt>
      <trkpt lat="44.10044" lon="7.18771">
        <ele>2081.214</ele>
        <time>2015-06-13T08:11:42Z</time>
      </trkpt>
      <trkpt lat="44.10049" lon="7.18773">
        <ele>2078.982</ele>
        <time>2015-06-13T08:11:50Z</time>
      </trkpt>
      <trkpt lat="44.10051" lon="7.18776">
        <ele>2083.044</ele>
        <time>2015-06-13T08:11:57Z</time>
      </trkpt>
      <trkpt lat="44.10055" lon="7.18779">
        <ele>2085.794</ele>
        <time>2015-06-13T08:12:05Z</time>
      </trkpt>
      <trkpt lat="44.10058" lon="7.18782">
        <ele>2088.486</ele>
        <time>2015-06-13T08:12:12Z</time>
      </trkpt>
      <trkpt lat="44.10061" lon="7.18785">
        <ele>2087.913</ele>
        <time>2015-06-13T08:12:18Z</time>
      </trkpt>
      <trkpt lat="44.10063" lon="7.18788">
        <ele>2089.883</ele>
        <time>2015-06-13T08:12:24Z</time>
      </trkpt>
      <trkpt lat="44.10064" lon="7.18792">
        <ele>2091.162</ele>
        <time>2015-06-13T08:12:45Z</time>
      </trkpt>
      <trkpt lat="44.1007" lon="7.18793">
        <ele>2087.89</ele>
        <time>2015-06-13T08:12:53Z</time>
      </trkpt>
      <trkpt lat="44.10075" lon="7.18794">
        <ele>2089.182</ele>
        <time>2015-06-13T08:13:01Z</time>
      </trkpt>
      <trkpt lat="44.10078" lon="7.18794">
        <ele>2089.913</ele>
        <time>2015-06-13T08:13:06Z</time>
      </trkpt>
      <trkpt lat="44.10084" lon="7.18793">
        <ele>2090.824</ele>
        <time>2015-06-13T08:13:14Z</time>
      </trkpt>
      <trkpt lat="44.1009" lon="7.18795">
        <ele>2090.383</ele>
        <time>2015-06-13T08:13:20Z</time>
      </trkpt>
      <trkpt lat="44.10095" lon="7.188">
        <ele>2091.604</ele>
        <time>2015-06-13T08:13:27Z</time>
      </trkpt>
      <trkpt lat="44.101" lon="7.18805">
        <ele>2095.645</ele>
        <time>2015-06-13T08:13:33Z</time>
      </trkpt>
      <trkpt lat="44.10102" lon="7.18809">
        <ele>2098.005</ele>
        <time>2015-06-13T08:13:40Z</time>
      </trkpt>
      <trkpt lat="44.10105" lon="7.18814">
        <ele>2098.683</ele>
        <time>2015-06-13T08:13:47Z</time>
      </trkpt>
      <trkpt lat="44.10108" lon="7.18819">
        <ele>2098.622</ele>
        <time>2015-06-13T08:13:54Z</time>
      </trkpt>
      <trkpt lat="44.10111" lon="7.18822">
        <ele>2099.774</ele>
        <time>2015-06-13T08:14:00Z</time>
      </trkpt>
      <trkpt lat="44.10114" lon="7.18825">
        <ele>2097.331</ele>
        <time>2015-06-13T08:14:07Z</time>
      </trkpt>
      <trkpt lat="44.10117" lon="7.1883">
        <ele>2096.141</ele>
        <time>2015-06-13T08:14:13Z</time>
      </trkpt>
      <trkpt lat="44.10119" lon="7.18835">
        <ele>2096.702</ele>
        <time>2015-06-13T08:14:18Z</time>
      </trkpt>
      <trkpt lat="44.10123" lon="7.18839">
        <ele>2093.251</ele>
        <time>2015-06-13T08:14:25Z</time>
      </trkpt>
      <trkpt lat="44.10124" lon="7.18843">
        <ele>2093.241</ele>
        <time>2015-06-13T08:14:30Z</time>
      </trkpt>
      <trkpt lat="44.10125" lon="7.18848">
        <ele>2096.133</ele>
        <time>2015-06-13T08:14:36Z</time>
      </trkpt>
      <trkpt lat="44.10127" lon="7.18852">
        <ele>2096.203</ele>
        <time>2015-06-13T08:14:41Z</time>
      </trkpt>
      <trkpt lat="44.10129" lon="7.18861">
        <ele>2101.584</ele>
        <time>2015-06-13T08:14:47Z</time>
      </trkpt>
      <trkpt lat="44.10129" lon="7.18863">
        <ele>2101.804</ele>
        <time>2015-06-13T08:14:49Z</time>
      </trkpt>
      <trkpt lat="44.10133" lon="7.1887">
        <ele>2103.775</ele>
        <time>2015-06-13T08:14:58Z</time>
      </trkpt>
      <trkpt lat="44.10136" lon="7.18874">
        <ele>2103.302</ele>
        <time>2015-06-13T08:15:08Z</time>
      </trkpt>
      <trkpt lat="44.10137" lon="7.18879">
        <ele>2107.724</ele>
        <time>2015-06-13T08:15:18Z</time>
      </trkpt>
      <trkpt lat="44.10142" lon="7.18879">
        <ele>2104.932</ele>
        <time>2015-06-13T08:15:26Z</time>
      </trkpt>
      <trkpt lat="44.10143" lon="7.18881">
        <ele>2105.072</ele>
        <time>2015-06-13T08:15:32Z</time>
      </trkpt>
      <trkpt lat="44.10144" lon="7.18885">
        <ele>2106.584</ele>
        <time>2015-06-13T08:15:38Z</time>
      </trkpt>
      <trkpt lat="44.10148" lon="7.18886">
        <ele>2104.561</ele>
        <time>2015-06-13T08:15:43Z</time>
      </trkpt>
      <trkpt lat="44.1015" lon="7.18887">
        <ele>2104.983</ele>
        <time>2015-06-13T08:15:48Z</time>
      </trkpt>
      <trkpt lat="44.10152" lon="7.18889">
        <ele>2106.104</ele>
        <time>2015-06-13T08:15:53Z</time>
      </trkpt>
      <trkpt lat="44.10154" lon="7.18894">
        <ele>2110.316</ele>
        <time>2015-06-13T08:16:00Z</time>
      </trkpt>
      <trkpt lat="44.10156" lon="7.18897">
        <ele>2112.345</ele>
        <time>2015-06-13T08:16:05Z</time>
      </trkpt>
      <trkpt lat="44.10162" lon="7.189">
        <ele>2107.701</ele>
        <time>2015-06-13T08:16:11Z</time>
      </trkpt>
      <trkpt lat="44.10168" lon="7.18903">
        <ele>2103.41</ele>
        <time>2015-06-13T08:16:16Z</time>
      </trkpt>
      <trkpt lat="44.10169" lon="7.18907">
        <ele>2106.673</ele>
        <time>2015-06-13T08:16:21Z</time>
      </trkpt>
      <trkpt lat="44.1017" lon="7.18915">
        <ele>2113.215</ele>
        <time>2015-06-13T08:16:29Z</time>
      </trkpt>
      <trkpt lat="44.10171" lon="7.18917">
        <ele>2112.527</ele>
        <time>2015-06-13T08:16:31Z</time>
      </trkpt>
      <trkpt lat="44.10173" lon="7.18924">
        <ele>2117.675</ele>
        <time>2015-06-13T08:16:39Z</time>
      </trkpt>
      <trkpt lat="44.10178" lon="7.18936">
        <ele>2116.383</ele>
        <time>2015-06-13T08:16:47Z</time>
      </trkpt>
      <trkpt lat="44.10177" lon="7.18937">
        <ele>2118.954</ele>
        <time>2015-06-13T08:16:52Z</time>
      </trkpt>
      <trkpt lat="44.10182" lon="7.18936">
        <ele>2121.344</ele>
        <time>2015-06-13T08:17:12Z</time>
      </trkpt>
      <trkpt lat="44.10185" lon="7.18937">
        <ele>2120.433</ele>
        <time>2015-06-13T08:17:21Z</time>
      </trkpt>
      <trkpt lat="44.10183" lon="7.18938">
        <ele>2122.944</ele>
        <time>2015-06-13T08:17:30Z</time>
      </trkpt>
      <trkpt lat="44.10189" lon="7.18937">
        <ele>2115.13</ele>
        <time>2015-06-13T08:17:48Z</time>
      </trkpt>
      <trkpt lat="44.10193" lon="7.18933">
        <ele>2114.152</ele>
        <time>2015-06-13T08:17:56Z</time>
      </trkpt>
      <trkpt lat="44.10192" lon="7.18932">
        <ele>2118.795</ele>
        <time>2015-06-13T08:18:01Z</time>
      </trkpt>
      <trkpt lat="44.10194" lon="7.18932">
        <ele>2116.932</ele>
        <time>2015-06-13T08:18:09Z</time>
      </trkpt>
      <trkpt lat="44.102" lon="7.18934">
        <ele>2128.115</ele>
        <time>2015-06-13T08:18:43Z</time>
      </trkpt>
      <trkpt lat="44.10207" lon="7.18932">
        <ele>2124.413</ele>
        <time>2015-06-13T08:18:51Z</time>
      </trkpt>
      <trkpt lat="44.10213" lon="7.18931">
        <ele>2124.534</ele>
        <time>2015-06-13T08:19:00Z</time>
      </trkpt>
      <trkpt lat="44.10217" lon="7.18931">
        <ele>2126.444</ele>
        <time>2015-06-13T08:19:10Z</time>
      </trkpt>
      <trkpt lat="44.10219" lon="7.18931">
        <ele>2129.334</ele>
        <time>2015-06-13T08:19:15Z</time>
      </trkpt>
      <trkpt lat="44.1022" lon="7.18929">
        <ele>2130.584</ele>
        <time>2015-06-13T08:19:20Z</time>
      </trkpt>
      <trkpt lat="44.10219" lon="7.18927">
        <ele>2132.885</ele>
        <time>2015-06-13T08:19:25Z</time>
      </trkpt>
      <trkpt lat="44.10219" lon="7.18923">
        <ele>2135.135</ele>
        <time>2015-06-13T08:19:32Z</time>
      </trkpt>
      <trkpt lat="44.10224" lon="7.18922">
        <ele>2132.173</ele>
        <time>2015-06-13T08:19:40Z</time>
      </trkpt>
      <trkpt lat="44.1023" lon="7.18924">
        <ele>2132.173</ele>
        <time>2015-06-13T08:19:49Z</time>
      </trkpt>
      <trkpt lat="44.10232" lon="7.18926">
        <ele>2133.405</ele>
        <time>2015-06-13T08:19:55Z</time>
      </trkpt>
      <trkpt lat="44.10235" lon="7.18926">
        <ele>2133.654</ele>
        <time>2015-06-13T08:20:00Z</time>
      </trkpt>
      <trkpt lat="44.10243" lon="7.18927">
        <ele>2128.87</ele>
        <time>2015-06-13T08:20:06Z</time>
      </trkpt>
      <trkpt lat="44.10245" lon="7.18928">
        <ele>2128.03</ele>
        <time>2015-06-13T08:20:08Z</time>
      </trkpt>
      <trkpt lat="44.1025" lon="7.18928">
        <ele>2125.751</ele>
        <time>2015-06-13T08:20:13Z</time>
      </trkpt>
      <trkpt lat="44.10252" lon="7.18929">
        <ele>2131.795</ele>
        <time>2015-06-13T08:20:20Z</time>
      </trkpt>
      <trkpt lat="44.10252" lon="7.18932">
        <ele>2136.476</ele>
        <time>2015-06-13T08:20:25Z</time>
      </trkpt>
      <trkpt lat="44.10257" lon="7.18933">
        <ele>2133.502</ele>
        <time>2015-06-13T08:20:34Z</time>
      </trkpt>
      <trkpt lat="44.10257" lon="7.18935">
        <ele>2140.515</ele>
        <time>2015-06-13T08:20:42Z</time>
      </trkpt>
      <trkpt lat="44.10256" lon="7.18933">
        <ele>2145.226</ele>
        <time>2015-06-13T08:20:49Z</time>
      </trkpt>
      <trkpt lat="44.10255" lon="7.1893">
        <ele>2144.935</ele>
        <time>2015-06-13T08:20:54Z</time>
      </trkpt>
      <trkpt lat="44.10256" lon="7.18925">
        <ele>2148.645</ele>
        <time>2015-06-13T08:21:01Z</time>
      </trkpt>
      <trkpt lat="44.10259" lon="7.18923">
        <ele>2148.113</ele>
        <time>2015-06-13T08:21:06Z</time>
      </trkpt>
      <trkpt lat="44.10262" lon="7.18926">
        <ele>2150.793</ele>
        <time>2015-06-13T08:21:16Z</time>
      </trkpt>
      <trkpt lat="44.10262" lon="7.18927">
        <ele>2150.413</ele>
        <time>2015-06-13T08:21:17Z</time>
      </trkpt>
      <trkpt lat="44.10267" lon="7.18928">
        <ele>2148.613</ele>
        <time>2015-06-13T08:21:23Z</time>
      </trkpt>
      <trkpt lat="44.10266" lon="7.18928">
        <ele>2152.154</ele>
        <time>2015-06-13T08:21:28Z</time>
      </trkpt>
      <trkpt lat="44.10266" lon="7.18924">
        <ele>2154.363</ele>
        <time>2015-06-13T08:21:34Z</time>
      </trkpt>
      <trkpt lat="44.10264" lon="7.1892">
        <ele>2152.132</ele>
        <time>2015-06-13T08:21:41Z</time>
      </trkpt>
      <trkpt lat="44.10263" lon="7.18915">
        <ele>2152.902</ele>
        <time>2015-06-13T08:21:49Z</time>
      </trkpt>
      <trkpt lat="44.10262" lon="7.18908">
        <ele>2154.963</ele>
        <time>2015-06-13T08:21:56Z</time>
      </trkpt>
      <trkpt lat="44.10261" lon="7.18902">
        <ele>2155.212</ele>
        <time>2015-06-13T08:22:02Z</time>
      </trkpt>
      <trkpt lat="44.10259" lon="7.18901">
        <ele>2156.703</ele>
        <time>2015-06-13T08:22:06Z</time>
      </trkpt>
      <trkpt lat="44.1026" lon="7.18894">
        <ele>2158.543</ele>
        <time>2015-06-13T08:22:13Z</time>
      </trkpt>
      <trkpt lat="44.10265" lon="7.18894">
        <ele>2159.413</ele>
        <time>2015-06-13T08:22:20Z</time>
      </trkpt>
      <trkpt lat="44.10266" lon="7.18894">
        <ele>2158.402</ele>
        <time>2015-06-13T08:22:22Z</time>
      </trkpt>
      <trkpt lat="44.10269" lon="7.18895">
        <ele>2158.603</ele>
        <time>2015-06-13T08:22:25Z</time>
      </trkpt>
      <trkpt lat="44.10272" lon="7.189">
        <ele>2156.763</ele>
        <time>2015-06-13T08:22:31Z</time>
      </trkpt>
      <trkpt lat="44.10274" lon="7.18901">
        <ele>2158.414</ele>
        <time>2015-06-13T08:22:40Z</time>
      </trkpt>
      <trkpt lat="44.10274" lon="7.18903">
        <ele>2158.914</ele>
        <time>2015-06-13T08:22:45Z</time>
      </trkpt>
      <trkpt lat="44.10276" lon="7.18904">
        <ele>2156.623</ele>
        <time>2015-06-13T08:22:50Z</time>
      </trkpt>
      <trkpt lat="44.10281" lon="7.18906">
        <ele>2152.303</ele>
        <time>2015-06-13T08:22:57Z</time>
      </trkpt>
      <trkpt lat="44.10286" lon="7.18912">
        <ele>2149.602</ele>
        <time>2015-06-13T08:23:06Z</time>
      </trkpt>
      <trkpt lat="44.1029" lon="7.1891">
        <ele>2150.304</ele>
        <time>2015-06-13T08:23:11Z</time>
      </trkpt>
      <trkpt lat="44.10296" lon="7.18909">
        <ele>2152.033</ele>
        <time>2015-06-13T08:23:17Z</time>
      </trkpt>
      <trkpt lat="44.10297" lon="7.18908">
        <ele>2155.035</ele>
        <time>2015-06-13T08:23:22Z</time>
      </trkpt>
      <trkpt lat="44.10299" lon="7.18908">
        <ele>2159.106</ele>
        <time>2015-06-13T08:23:27Z</time>
      </trkpt>
      <trkpt lat="44.103" lon="7.18906">
        <ele>2158.746</ele>
        <time>2015-06-13T08:23:28Z</time>
      </trkpt>
      <trkpt lat="44.10306" lon="7.18903">
        <ele>2156.143</ele>
        <time>2015-06-13T08:23:31Z</time>
      </trkpt>
      <trkpt lat="44.10314" lon="7.18901">
        <ele>2153.241</ele>
        <time>2015-06-13T08:23:38Z</time>
      </trkpt>
      <trkpt lat="44.10318" lon="7.18901">
        <ele>2158.795</ele>
        <time>2015-06-13T08:23:44Z</time>
      </trkpt>
      <trkpt lat="44.10322" lon="7.18897">
        <ele>2159.595</ele>
        <time>2015-06-13T08:23:49Z</time>
      </trkpt>
      <trkpt lat="44.10331" lon="7.18894">
        <ele>2156.743</ele>
        <time>2015-06-13T08:23:57Z</time>
      </trkpt>
      <trkpt lat="44.10333" lon="7.18893">
        <ele>2156.504</ele>
        <time>2015-06-13T08:24:01Z</time>
      </trkpt>
      <trkpt lat="44.10335" lon="7.18892">
        <ele>2156.703</ele>
        <time>2015-06-13T08:24:04Z</time>
      </trkpt>
      <trkpt lat="44.10341" lon="7.18891">
        <ele>2156.364</ele>
        <time>2015-06-13T08:24:11Z</time>
      </trkpt>
      <trkpt lat="44.10343" lon="7.18892">
        <ele>2160.525</ele>
        <time>2015-06-13T08:24:17Z</time>
      </trkpt>
      <trkpt lat="44.10345" lon="7.18894">
        <ele>2164.606</ele>
        <time>2015-06-13T08:24:23Z</time>
      </trkpt>
      <trkpt lat="44.10346" lon="7.18894">
        <ele>2164.676</ele>
        <time>2015-06-13T08:24:28Z</time>
      </trkpt>
      <trkpt lat="44.1035" lon="7.18892">
        <ele>2163.614</ele>
        <time>2015-06-13T08:24:34Z</time>
      </trkpt>
      <trkpt lat="44.10356" lon="7.18892">
        <ele>2160.662</ele>
        <time>2015-06-13T08:24:42Z</time>
      </trkpt>
      <trkpt lat="44.10359" lon="7.18893">
        <ele>2162.695</ele>
        <time>2015-06-13T08:24:49Z</time>
      </trkpt>
      <trkpt lat="44.10361" lon="7.18894">
        <ele>2166.935</ele>
        <time>2015-06-13T08:24:54Z</time>
      </trkpt>
      <trkpt lat="44.10364" lon="7.18894">
        <ele>2170.246</ele>
        <time>2015-06-13T08:25:01Z</time>
      </trkpt>
      <trkpt lat="44.10368" lon="7.18897">
        <ele>2176.046</ele>
        <time>2015-06-13T08:25:10Z</time>
      </trkpt>
      <trkpt lat="44.10373" lon="7.189">
        <ele>2171.462</ele>
        <time>2015-06-13T08:25:16Z</time>
      </trkpt>
      <trkpt lat="44.10376" lon="7.18901">
        <ele>2172.644</ele>
        <time>2015-06-13T08:25:22Z</time>
      </trkpt>
      <trkpt lat="44.10373" lon="7.18901">
        <ele>2177.515</ele>
        <time>2015-06-13T08:25:30Z</time>
      </trkpt>
      <trkpt lat="44.10373" lon="7.18899">
        <ele>2179.892</ele>
        <time>2015-06-13T08:25:34Z</time>
      </trkpt>
      <trkpt lat="44.10372" lon="7.18894">
        <ele>2181.013</ele>
        <time>2015-06-13T08:25:42Z</time>
      </trkpt>
      <trkpt lat="44.10369" lon="7.18888">
        <ele>2180.122</ele>
        <time>2015-06-13T08:25:50Z</time>
      </trkpt>
      <trkpt lat="44.10369" lon="7.18884">
        <ele>2179.672</ele>
        <time>2015-06-13T08:25:55Z</time>
      </trkpt>
      <trkpt lat="44.10368" lon="7.18881">
        <ele>2179.673</ele>
        <time>2015-06-13T08:26:00Z</time>
      </trkpt>
      <trkpt lat="44.10366" lon="7.18877">
        <ele>2180.373</ele>
        <time>2015-06-13T08:26:08Z</time>
      </trkpt>
      <trkpt lat="44.10364" lon="7.18872">
        <ele>2180.633</ele>
        <time>2015-06-13T08:26:15Z</time>
      </trkpt>
      <trkpt lat="44.10359" lon="7.18866">
        <ele>2184.635</ele>
        <time>2015-06-13T08:26:22Z</time>
      </trkpt>
      <trkpt lat="44.10356" lon="7.18863">
        <ele>2188.146</ele>
        <time>2015-06-13T08:26:27Z</time>
      </trkpt>
      <trkpt lat="44.10349" lon="7.18855">
        <ele>2191.814</ele>
        <time>2015-06-13T08:26:36Z</time>
      </trkpt>
      <trkpt lat="44.10346" lon="7.18852">
        <ele>2193.514</ele>
        <time>2015-06-13T08:26:43Z</time>
      </trkpt>
      <trkpt lat="44.10344" lon="7.18848">
        <ele>2192.483</ele>
        <time>2015-06-13T08:26:49Z</time>
      </trkpt>
      <trkpt lat="44.10342" lon="7.18843">
        <ele>2195.714</ele>
        <time>2015-06-13T08:26:59Z</time>
      </trkpt>
      <trkpt lat="44.1035" lon="7.18839">
        <ele>2192.291</ele>
        <time>2015-06-13T08:27:06Z</time>
      </trkpt>
      <trkpt lat="44.1035" lon="7.18839">
        <ele>2194.413</ele>
        <time>2015-06-13T08:27:11Z</time>
      </trkpt>
      <trkpt lat="44.10355" lon="7.18835">
        <ele>2196.344</ele>
        <time>2015-06-13T08:27:17Z</time>
      </trkpt>
      <trkpt lat="44.1036" lon="7.18832">
        <ele>2187.37</ele>
        <time>2015-06-13T08:27:23Z</time>
      </trkpt>
      <trkpt lat="44.10363" lon="7.18833">
        <ele>2190.174</ele>
        <time>2015-06-13T08:27:29Z</time>
      </trkpt>
      <trkpt lat="44.10371" lon="7.18832">
        <ele>2192.083</ele>
        <time>2015-06-13T08:27:45Z</time>
      </trkpt>
      <trkpt lat="44.10369" lon="7.18833">
        <ele>2197.065</ele>
        <time>2015-06-13T08:27:50Z</time>
      </trkpt>
      <trkpt lat="44.10374" lon="7.18833">
        <ele>2194.412</ele>
        <time>2015-06-13T08:27:57Z</time>
      </trkpt>
      <trkpt lat="44.10376" lon="7.18832">
        <ele>2197.306</ele>
        <time>2015-06-13T08:28:02Z</time>
      </trkpt>
      <trkpt lat="44.1038" lon="7.18836">
        <ele>2200.413</ele>
        <time>2015-06-13T08:28:12Z</time>
      </trkpt>
      <trkpt lat="44.1038" lon="7.18837">
        <ele>2200.734</ele>
        <time>2015-06-13T08:28:13Z</time>
      </trkpt>
      <trkpt lat="44.10386" lon="7.1884">
        <ele>2203.754</ele>
        <time>2015-06-13T08:28:22Z</time>
      </trkpt>
      <trkpt lat="44.10385" lon="7.18836">
        <ele>2205.474</ele>
        <time>2015-06-13T08:28:28Z</time>
      </trkpt>
      <trkpt lat="44.10386" lon="7.18833">
        <ele>2204.612</ele>
        <time>2015-06-13T08:28:32Z</time>
      </trkpt>
      <trkpt lat="44.10386" lon="7.18832">
        <ele>2204.042</ele>
        <time>2015-06-13T08:28:33Z</time>
      </trkpt>
      <trkpt lat="44.10387" lon="7.1883">
        <ele>2204.562</ele>
        <time>2015-06-13T08:28:35Z</time>
      </trkpt>
      <trkpt lat="44.10391" lon="7.18825">
        <ele>2206.964</ele>
        <time>2015-06-13T08:28:42Z</time>
      </trkpt>
      <trkpt lat="44.10393" lon="7.1882">
        <ele>2208.024</ele>
        <time>2015-06-13T08:28:49Z</time>
      </trkpt>
      <trkpt lat="44.10391" lon="7.18821">
        <ele>2208.583</ele>
        <time>2015-06-13T08:28:53Z</time>
      </trkpt>
      <trkpt lat="44.10392" lon="7.18821">
        <ele>2205.3</ele>
        <time>2015-06-13T08:29:02Z</time>
      </trkpt>
      <trkpt lat="44.10393" lon="7.18822">
        <ele>2202.101</ele>
        <time>2015-06-13T08:29:11Z</time>
      </trkpt>
      <trkpt lat="44.10395" lon="7.18823">
        <ele>2202.913</ele>
        <time>2015-06-13T08:29:18Z</time>
      </trkpt>
      <trkpt lat="44.10395" lon="7.18822">
        <ele>2202.171</ele>
        <time>2015-06-13T08:29:26Z</time>
      </trkpt>
      <trkpt lat="44.10392" lon="7.18822">
        <ele>2212.096</ele>
        <time>2015-06-13T08:29:54Z</time>
      </trkpt>
      <trkpt lat="44.10396" lon="7.18823">
        <ele>2213.817</ele>
        <time>2015-06-13T08:29:59Z</time>
      </trkpt>
      <trkpt lat="44.10401" lon="7.18823">
        <ele>2210.922</ele>
        <time>2015-06-13T08:30:04Z</time>
      </trkpt>
      <trkpt lat="44.10404" lon="7.18822">
        <ele>2209.041</ele>
        <time>2015-06-13T08:30:07Z</time>
      </trkpt>
      <trkpt lat="44.10409" lon="7.18821">
        <ele>2208.172</ele>
        <time>2015-06-13T08:30:10Z</time>
      </trkpt>
      <trkpt lat="44.10415" lon="7.18824">
        <ele>2206.271</ele>
        <time>2015-06-13T08:30:19Z</time>
      </trkpt>
      <trkpt lat="44.10424" lon="7.18823">
        <ele>2204.021</ele>
        <time>2015-06-13T08:30:27Z</time>
      </trkpt>
      <trkpt lat="44.10427" lon="7.18824">
        <ele>2206.794</ele>
        <time>2015-06-13T08:30:34Z</time>
      </trkpt>
      <trkpt lat="44.10433" lon="7.1883">
        <ele>2202.411</ele>
        <time>2015-06-13T08:30:43Z</time>
      </trkpt>
      <trkpt lat="44.10441" lon="7.18832">
        <ele>2199.769</ele>
        <time>2015-06-13T08:30:49Z</time>
      </trkpt>
      <trkpt lat="44.10449" lon="7.18836">
        <ele>2198.569</ele>
        <time>2015-06-13T08:30:56Z</time>
      </trkpt>
      <trkpt lat="44.10455" lon="7.18839">
        <ele>2198.33</ele>
        <time>2015-06-13T08:31:02Z</time>
      </trkpt>
      <trkpt lat="44.10458" lon="7.18839">
        <ele>2197.269</ele>
        <time>2015-06-13T08:31:04Z</time>
      </trkpt>
      <trkpt lat="44.10462" lon="7.18841">
        <ele>2199.763</ele>
        <time>2015-06-13T08:31:10Z</time>
      </trkpt>
      <trkpt lat="44.10472" lon="7.18844">
        <ele>2198.341</ele>
        <time>2015-06-13T08:31:17Z</time>
      </trkpt>
      <trkpt lat="44.10478" lon="7.18849">
        <ele>2196.571</ele>
        <time>2015-06-13T08:31:23Z</time>
      </trkpt>
      <trkpt lat="44.1048" lon="7.1885">
        <ele>2195.33</ele>
        <time>2015-06-13T08:31:25Z</time>
      </trkpt>
      <trkpt lat="44.10486" lon="7.18854">
        <ele>2195.762</ele>
        <time>2015-06-13T08:31:33Z</time>
      </trkpt>
      <trkpt lat="44.10495" lon="7.18857">
        <ele>2196.923</ele>
        <time>2015-06-13T08:31:40Z</time>
      </trkpt>
      <trkpt lat="44.10505" lon="7.18864">
        <ele>2193.451</ele>
        <time>2015-06-13T08:31:47Z</time>
      </trkpt>
      <trkpt lat="44.10511" lon="7.18874">
        <ele>2189.371</ele>
        <time>2015-06-13T08:31:55Z</time>
      </trkpt>
      <trkpt lat="44.10516" lon="7.18877">
        <ele>2191.262</ele>
        <time>2015-06-13T08:31:59Z</time>
      </trkpt>
      <trkpt lat="44.1052" lon="7.18879">
        <ele>2190.672</ele>
        <time>2015-06-13T08:32:02Z</time>
      </trkpt>
      <trkpt lat="44.10525" lon="7.18885">
        <ele>2191.311</ele>
        <time>2015-06-13T08:32:08Z</time>
      </trkpt>
      <trkpt lat="44.10527" lon="7.18886">
        <ele>2192.592</ele>
        <time>2015-06-13T08:32:10Z</time>
      </trkpt>
      <trkpt lat="44.10532" lon="7.18887">
        <ele>2191.191</ele>
        <time>2015-06-13T08:32:13Z</time>
      </trkpt>
      <trkpt lat="44.10535" lon="7.18901">
        <ele>2194.634</ele>
        <time>2015-06-13T08:32:20Z</time>
      </trkpt>
      <trkpt lat="44.1054" lon="7.18907">
        <ele>2197.794</ele>
        <time>2015-06-13T08:32:28Z</time>
      </trkpt>
      <trkpt lat="44.10546" lon="7.18909">
        <ele>2198.273</ele>
        <time>2015-06-13T08:32:34Z</time>
      </trkpt>
      <trkpt lat="44.10548" lon="7.18913">
        <ele>2195.531</ele>
        <time>2015-06-13T08:32:38Z</time>
      </trkpt>
      <trkpt lat="44.10554" lon="7.18918">
        <ele>2196.583</ele>
        <time>2015-06-13T08:32:46Z</time>
      </trkpt>
      <trkpt lat="44.10561" lon="7.18918">
        <ele>2197.143</ele>
        <time>2015-06-13T08:32:53Z</time>
      </trkpt>
      <trkpt lat="44.10566" lon="7.18917">
        <ele>2197.713</ele>
        <time>2015-06-13T08:32:58Z</time>
      </trkpt>
      <trkpt lat="44.10572" lon="7.18916">
        <ele>2197.402</ele>
        <time>2015-06-13T08:33:05Z</time>
      </trkpt>
      <trkpt lat="44.10578" lon="7.18915">
        <ele>2198.495</ele>
        <time>2015-06-13T08:33:12Z</time>
      </trkpt>
      <trkpt lat="44.10579" lon="7.18915">
        <ele>2198.775</ele>
        <time>2015-06-13T08:33:13Z</time>
      </trkpt>
      <trkpt lat="44.10586" lon="7.18914">
        <ele>2199.816</ele>
        <time>2015-06-13T08:33:20Z</time>
      </trkpt>
      <trkpt lat="44.10586" lon="7.18917">
        <ele>2201.776</ele>
        <time>2015-06-13T08:33:25Z</time>
      </trkpt>
      <trkpt lat="44.10594" lon="7.18913">
        <ele>2199.884</ele>
        <time>2015-06-13T08:33:31Z</time>
      </trkpt>
      <trkpt lat="44.10597" lon="7.18913">
        <ele>2200.233</ele>
        <time>2015-06-13T08:33:33Z</time>
      </trkpt>
      <trkpt lat="44.10609" lon="7.18909">
        <ele>2198.282</ele>
        <time>2015-06-13T08:33:42Z</time>
      </trkpt>
      <trkpt lat="44.10617" lon="7.18909">
        <ele>2197.162</ele>
        <time>2015-06-13T08:33:50Z</time>
      </trkpt>
      <trkpt lat="44.10623" lon="7.18909">
        <ele>2195.062</ele>
        <time>2015-06-13T08:33:57Z</time>
      </trkpt>
      <trkpt lat="44.1063" lon="7.18907">
        <ele>2191.721</ele>
        <time>2015-06-13T08:34:04Z</time>
      </trkpt>
      <trkpt lat="44.10637" lon="7.18908">
        <ele>2190.342</ele>
        <time>2015-06-13T08:34:10Z</time>
      </trkpt>
      <trkpt lat="44.10644" lon="7.1891">
        <ele>2188.552</ele>
        <time>2015-06-13T08:34:17Z</time>
      </trkpt>
      <trkpt lat="44.1065" lon="7.1891">
        <ele>2188.353</ele>
        <time>2015-06-13T08:34:24Z</time>
      </trkpt>
      <trkpt lat="44.10656" lon="7.18912">
        <ele>2189.245</ele>
        <time>2015-06-13T08:34:31Z</time>
      </trkpt>
      <trkpt lat="44.10661" lon="7.18913">
        <ele>2189.163</ele>
        <time>2015-06-13T08:34:35Z</time>
      </trkpt>
      <trkpt lat="44.10666" lon="7.18914">
        <ele>2189.924</ele>
        <time>2015-06-13T08:34:39Z</time>
      </trkpt>
      <trkpt lat="44.10673" lon="7.18913">
        <ele>2192.515</ele>
        <time>2015-06-13T08:34:46Z</time>
      </trkpt>
      <trkpt lat="44.10684" lon="7.18908">
        <ele>2190.903</ele>
        <time>2015-06-13T08:34:54Z</time>
      </trkpt>
      <trkpt lat="44.10691" lon="7.18907">
        <ele>2190.804</ele>
        <time>2015-06-13T08:35:01Z</time>
      </trkpt>
      <trkpt lat="44.10694" lon="7.18905">
        <ele>2189.963</ele>
        <time>2015-06-13T08:35:04Z</time>
      </trkpt>
      <trkpt lat="44.10697" lon="7.18905">
        <ele>2192.085</ele>
        <time>2015-06-13T08:35:07Z</time>
      </trkpt>
      <trkpt lat="44.10704" lon="7.18903">
        <ele>2193.745</ele>
        <time>2015-06-13T08:35:15Z</time>
      </trkpt>
      <trkpt lat="44.10712" lon="7.18895">
        <ele>2193.704</ele>
        <time>2015-06-13T08:35:23Z</time>
      </trkpt>
      <trkpt lat="44.10718" lon="7.1889">
        <ele>2194.834</ele>
        <time>2015-06-13T08:35:29Z</time>
      </trkpt>
      <trkpt lat="44.10724" lon="7.18891">
        <ele>2193.043</ele>
        <time>2015-06-13T08:35:35Z</time>
      </trkpt>
      <trkpt lat="44.10727" lon="7.18892">
        <ele>2191.733</ele>
        <time>2015-06-13T08:35:39Z</time>
      </trkpt>
      <trkpt lat="44.10737" lon="7.18887">
        <ele>2193.935</ele>
        <time>2015-06-13T08:35:49Z</time>
      </trkpt>
      <trkpt lat="44.10741" lon="7.18886">
        <ele>2196.846</ele>
        <time>2015-06-13T08:35:54Z</time>
      </trkpt>
      <trkpt lat="44.1075" lon="7.18882">
        <ele>2193.853</ele>
        <time>2015-06-13T08:36:02Z</time>
      </trkpt>
      <trkpt lat="44.10757" lon="7.18881">
        <ele>2192.164</ele>
        <time>2015-06-13T08:36:09Z</time>
      </trkpt>
      <trkpt lat="44.10761" lon="7.18881">
        <ele>2193.694</ele>
        <time>2015-06-13T08:36:17Z</time>
      </trkpt>
      <trkpt lat="44.10766" lon="7.18882">
        <ele>2196.994</ele>
        <time>2015-06-13T08:36:32Z</time>
      </trkpt>
      <trkpt lat="44.10776" lon="7.18883">
        <ele>2197.955</ele>
        <time>2015-06-13T08:36:41Z</time>
      </trkpt>
      <trkpt lat="44.10782" lon="7.18882">
        <ele>2197.254</ele>
        <time>2015-06-13T08:36:48Z</time>
      </trkpt>
      <trkpt lat="44.10791" lon="7.18885">
        <ele>2197.484</ele>
        <time>2015-06-13T08:36:57Z</time>
      </trkpt>
      <trkpt lat="44.10797" lon="7.18886">
        <ele>2197.604</ele>
        <time>2015-06-13T08:37:04Z</time>
      </trkpt>
      <trkpt lat="44.10806" lon="7.18886">
        <ele>2192.502</ele>
        <time>2015-06-13T08:37:11Z</time>
      </trkpt>
      <trkpt lat="44.10815" lon="7.18888">
        <ele>2192.603</ele>
        <time>2015-06-13T08:37:20Z</time>
      </trkpt>
      <trkpt lat="44.10825" lon="7.1889">
        <ele>2189.522</ele>
        <time>2015-06-13T08:37:29Z</time>
      </trkpt>
      <trkpt lat="44.10835" lon="7.18891">
        <ele>2186.972</ele>
        <time>2015-06-13T08:37:37Z</time>
      </trkpt>
      <trkpt lat="44.10844" lon="7.18896">
        <ele>2185.774</ele>
        <time>2015-06-13T08:37:46Z</time>
      </trkpt>
      <trkpt lat="44.1085" lon="7.18899">
        <ele>2186.244</ele>
        <time>2015-06-13T08:37:53Z</time>
      </trkpt>
      <trkpt lat="44.10859" lon="7.18903">
        <ele>2183.883</ele>
        <time>2015-06-13T08:38:01Z</time>
      </trkpt>
      <trkpt lat="44.1086" lon="7.18904">
        <ele>2184.253</ele>
        <time>2015-06-13T08:38:02Z</time>
      </trkpt>
      <trkpt lat="44.10872" lon="7.18906">
        <ele>2189.795</ele>
        <time>2015-06-13T08:38:11Z</time>
      </trkpt>
      <trkpt lat="44.10883" lon="7.18906">
        <ele>2191.474</ele>
        <time>2015-06-13T08:38:20Z</time>
      </trkpt>
      <trkpt lat="44.10887" lon="7.18905">
        <ele>2191.523</ele>
        <time>2015-06-13T08:38:23Z</time>
      </trkpt>
      <trkpt lat="44.10897" lon="7.18905">
        <ele>2191.234</ele>
        <time>2015-06-13T08:38:31Z</time>
      </trkpt>
      <trkpt lat="44.10906" lon="7.18906">
        <ele>2188.493</ele>
        <time>2015-06-13T08:38:39Z</time>
      </trkpt>
      <trkpt lat="44.10913" lon="7.18907">
        <ele>2188.883</ele>
        <time>2015-06-13T08:38:47Z</time>
      </trkpt>
      <trkpt lat="44.10916" lon="7.18907">
        <ele>2187.842</ele>
        <time>2015-06-13T08:38:50Z</time>
      </trkpt>
      <trkpt lat="44.10919" lon="7.1891">
        <ele>2188.072</ele>
        <time>2015-06-13T08:38:54Z</time>
      </trkpt>
      <trkpt lat="44.10926" lon="7.18914">
        <ele>2182.33</ele>
        <time>2015-06-13T08:39:00Z</time>
      </trkpt>
      <trkpt lat="44.10931" lon="7.18919">
        <ele>2185.044</ele>
        <time>2015-06-13T08:39:05Z</time>
      </trkpt>
      <trkpt lat="44.10939" lon="7.18924">
        <ele>2188.935</ele>
        <time>2015-06-13T08:39:13Z</time>
      </trkpt>
      <trkpt lat="44.10949" lon="7.18924">
        <ele>2192.285</ele>
        <time>2015-06-13T08:39:22Z</time>
      </trkpt>
      <trkpt lat="44.10957" lon="7.18925">
        <ele>2189.814</ele>
        <time>2015-06-13T08:39:30Z</time>
      </trkpt>
      <trkpt lat="44.10965" lon="7.18929">
        <ele>2187.153</ele>
        <time>2015-06-13T08:39:37Z</time>
      </trkpt>
      <trkpt lat="44.10971" lon="7.18931">
        <ele>2186.593</ele>
        <time>2015-06-13T08:39:45Z</time>
      </trkpt>
      <trkpt lat="44.10978" lon="7.18932">
        <ele>2187.985</ele>
        <time>2015-06-13T08:39:53Z</time>
      </trkpt>
      <trkpt lat="44.10984" lon="7.18934">
        <ele>2191.396</ele>
        <time>2015-06-13T08:40:00Z</time>
      </trkpt>
      <trkpt lat="44.1099" lon="7.18935">
        <ele>2192.003</ele>
        <time>2015-06-13T08:40:08Z</time>
      </trkpt>
      <trkpt lat="44.10994" lon="7.18935">
        <ele>2193.094</ele>
        <time>2015-06-13T08:40:13Z</time>
      </trkpt>
      <trkpt lat="44.10996" lon="7.18937">
        <ele>2194.215</ele>
        <time>2015-06-13T08:40:16Z</time>
      </trkpt>
      <trkpt lat="44.11003" lon="7.18938">
        <ele>2195.715</ele>
        <time>2015-06-13T08:40:25Z</time>
      </trkpt>
      <trkpt lat="44.1101" lon="7.18939">
        <ele>2197.666</ele>
        <time>2015-06-13T08:40:34Z</time>
      </trkpt>
      <trkpt lat="44.11015" lon="7.1894">
        <ele>2198.855</ele>
        <time>2015-06-13T08:40:41Z</time>
      </trkpt>
      <trkpt lat="44.1102" lon="7.18942">
        <ele>2199.015</ele>
        <time>2015-06-13T08:40:46Z</time>
      </trkpt>
      <trkpt lat="44.11025" lon="7.18942">
        <ele>2202.616</ele>
        <time>2015-06-13T08:40:54Z</time>
      </trkpt>
      <trkpt lat="44.1103" lon="7.18945">
        <ele>2208.055</ele>
        <time>2015-06-13T08:41:17Z</time>
      </trkpt>
      <trkpt lat="44.11037" lon="7.18942">
        <ele>2207.504</ele>
        <time>2015-06-13T08:41:25Z</time>
      </trkpt>
      <trkpt lat="44.11041" lon="7.18941">
        <ele>2211.116</ele>
        <time>2015-06-13T08:41:33Z</time>
      </trkpt>
      <trkpt lat="44.11048" lon="7.18937">
        <ele>2210.334</ele>
        <time>2015-06-13T08:41:41Z</time>
      </trkpt>
      <trkpt lat="44.11054" lon="7.18933">
        <ele>2210.615</ele>
        <time>2015-06-13T08:41:49Z</time>
      </trkpt>
      <trkpt lat="44.11056" lon="7.18933">
        <ele>2209.794</ele>
        <time>2015-06-13T08:41:51Z</time>
      </trkpt>
      <trkpt lat="44.11061" lon="7.18931">
        <ele>2212.236</ele>
        <time>2015-06-13T08:41:58Z</time>
      </trkpt>
      <trkpt lat="44.11062" lon="7.18931">
        <ele>2213.016</ele>
        <time>2015-06-13T08:41:59Z</time>
      </trkpt>
      <trkpt lat="44.11068" lon="7.18926">
        <ele>2214.875</ele>
        <time>2015-06-13T08:42:08Z</time>
      </trkpt>
      <trkpt lat="44.11074" lon="7.18921">
        <ele>2216.525</ele>
        <time>2015-06-13T08:42:17Z</time>
      </trkpt>
      <trkpt lat="44.11078" lon="7.18915">
        <ele>2217.375</ele>
        <time>2015-06-13T08:42:24Z</time>
      </trkpt>
      <trkpt lat="44.11082" lon="7.18911">
        <ele>2217.444</ele>
        <time>2015-06-13T08:42:30Z</time>
      </trkpt>
      <trkpt lat="44.11085" lon="7.18913">
        <ele>2216.244</ele>
        <time>2015-06-13T08:42:53Z</time>
      </trkpt>
      <trkpt lat="44.11088" lon="7.18909">
        <ele>2218.696</ele>
        <time>2015-06-13T08:43:01Z</time>
      </trkpt>
      <trkpt lat="44.11093" lon="7.18904">
        <ele>2218.024</ele>
        <time>2015-06-13T08:43:09Z</time>
      </trkpt>
      <trkpt lat="44.11096" lon="7.18898">
        <ele>2217.644</ele>
        <time>2015-06-13T08:43:16Z</time>
      </trkpt>
      <trkpt lat="44.11103" lon="7.18892">
        <ele>2218.004</ele>
        <time>2015-06-13T08:43:25Z</time>
      </trkpt>
      <trkpt lat="44.11107" lon="7.1889">
        <ele>2219.304</ele>
        <time>2015-06-13T08:43:33Z</time>
      </trkpt>
      <trkpt lat="44.11112" lon="7.18887">
        <ele>2220.945</ele>
        <time>2015-06-13T08:43:41Z</time>
      </trkpt>
      <trkpt lat="44.11116" lon="7.18885">
        <ele>2223.616</ele>
        <time>2015-06-13T08:43:47Z</time>
      </trkpt>
      <trkpt lat="44.11123" lon="7.18883">
        <ele>2223.435</ele>
        <time>2015-06-13T08:43:56Z</time>
      </trkpt>
      <trkpt lat="44.11127" lon="7.18883">
        <ele>2223.664</ele>
        <time>2015-06-13T08:44:03Z</time>
      </trkpt>
      <trkpt lat="44.11131" lon="7.18883">
        <ele>2225.285</ele>
        <time>2015-06-13T08:44:10Z</time>
      </trkpt>
      <trkpt lat="44.11136" lon="7.18878">
        <ele>2224.034</ele>
        <time>2015-06-13T08:44:18Z</time>
      </trkpt>
      <trkpt lat="44.1114" lon="7.18876">
        <ele>2229.017</ele>
        <time>2015-06-13T08:44:26Z</time>
      </trkpt>
      <trkpt lat="44.11145" lon="7.18871">
        <ele>2230.886</ele>
        <time>2015-06-13T08:44:33Z</time>
      </trkpt>
      <trkpt lat="44.11149" lon="7.18871">
        <ele>2231.025</ele>
        <time>2015-06-13T08:44:39Z</time>
      </trkpt>
      <trkpt lat="44.11152" lon="7.18866">
        <ele>2232.394</ele>
        <time>2015-06-13T08:44:46Z</time>
      </trkpt>
      <trkpt lat="44.11156" lon="7.18865">
        <ele>2234.305</ele>
        <time>2015-06-13T08:44:52Z</time>
      </trkpt>
      <trkpt lat="44.11158" lon="7.18864">
        <ele>2238.276</ele>
        <time>2015-06-13T08:44:59Z</time>
      </trkpt>
      <trkpt lat="44.11162" lon="7.18866">
        <ele>2238.014</ele>
        <time>2015-06-13T08:45:05Z</time>
      </trkpt>
      <trkpt lat="44.11168" lon="7.18864">
        <ele>2240.475</ele>
        <time>2015-06-13T08:45:14Z</time>
      </trkpt>
      <trkpt lat="44.11169" lon="7.18865">
        <ele>2239.333</ele>
        <time>2015-06-13T08:45:16Z</time>
      </trkpt>
      <trkpt lat="44.11178" lon="7.18867">
        <ele>2235.973</ele>
        <time>2015-06-13T08:45:25Z</time>
      </trkpt>
      <trkpt lat="44.11186" lon="7.18866">
        <ele>2235.133</ele>
        <time>2015-06-13T08:45:32Z</time>
      </trkpt>
      <trkpt lat="44.11191" lon="7.18868">
        <ele>2234.115</ele>
        <time>2015-06-13T08:45:37Z</time>
      </trkpt>
      <trkpt lat="44.11198" lon="7.18868">
        <ele>2231.723</ele>
        <time>2015-06-13T08:45:45Z</time>
      </trkpt>
      <trkpt lat="44.11207" lon="7.18867">
        <ele>2230.724</ele>
        <time>2015-06-13T08:45:53Z</time>
      </trkpt>
      <trkpt lat="44.11213" lon="7.18871">
        <ele>2227.812</ele>
        <time>2015-06-13T08:46:00Z</time>
      </trkpt>
      <trkpt lat="44.11218" lon="7.18877">
        <ele>2225.092</ele>
        <time>2015-06-13T08:46:08Z</time>
      </trkpt>
      <trkpt lat="44.11222" lon="7.1888">
        <ele>2226.693</ele>
        <time>2015-06-13T08:46:13Z</time>
      </trkpt>
      <trkpt lat="44.11225" lon="7.18878">
        <ele>2229.624</ele>
        <time>2015-06-13T08:46:20Z</time>
      </trkpt>
      <trkpt lat="44.11226" lon="7.18879">
        <ele>2225.633</ele>
        <time>2015-06-13T08:46:30Z</time>
      </trkpt>
      <trkpt lat="44.11229" lon="7.18875">
        <ele>2228.034</ele>
        <time>2015-06-13T08:46:37Z</time>
      </trkpt>
      <trkpt lat="44.1123" lon="7.18877">
        <ele>2231.805</ele>
        <time>2015-06-13T08:46:44Z</time>
      </trkpt>
      <trkpt lat="44.11231" lon="7.18882">
        <ele>2229.031</ele>
        <time>2015-06-13T08:48:09Z</time>
      </trkpt>
      <trkpt lat="44.11232" lon="7.18872">
        <ele>2231.314</ele>
        <time>2015-06-13T08:48:23Z</time>
      </trkpt>
      <trkpt lat="44.11236" lon="7.1886">
        <ele>2230.803</ele>
        <time>2015-06-13T08:48:30Z</time>
      </trkpt>
      <trkpt lat="44.1124" lon="7.18856">
        <ele>2229.223</ele>
        <time>2015-06-13T08:48:37Z</time>
      </trkpt>
      <trkpt lat="44.11245" lon="7.18854">
        <ele>2229.764</ele>
        <time>2015-06-13T08:48:43Z</time>
      </trkpt>
      <trkpt lat="44.11252" lon="7.18853">
        <ele>2239.235</ele>
        <time>2015-06-13T08:49:01Z</time>
      </trkpt>
      <trkpt lat="44.11261" lon="7.18849">
        <ele>2240.335</ele>
        <time>2015-06-13T08:49:09Z</time>
      </trkpt>
      <trkpt lat="44.11268" lon="7.1884">
        <ele>2238.244</ele>
        <time>2015-06-13T08:49:18Z</time>
      </trkpt>
      <trkpt lat="44.11274" lon="7.18832">
        <ele>2236.423</ele>
        <time>2015-06-13T08:49:26Z</time>
      </trkpt>
      <trkpt lat="44.11278" lon="7.1882">
        <ele>2234.953</ele>
        <time>2015-06-13T08:49:35Z</time>
      </trkpt>
      <trkpt lat="44.11284" lon="7.1881">
        <ele>2235.004</ele>
        <time>2015-06-13T08:49:42Z</time>
      </trkpt>
      <trkpt lat="44.11293" lon="7.18805">
        <ele>2236.355</ele>
        <time>2015-06-13T08:49:51Z</time>
      </trkpt>
      <trkpt lat="44.11303" lon="7.18799">
        <ele>2241.877</ele>
        <time>2015-06-13T08:50:00Z</time>
      </trkpt>
      <trkpt lat="44.11307" lon="7.18796">
        <ele>2245.168</ele>
        <time>2015-06-13T08:50:05Z</time>
      </trkpt>
      <trkpt lat="44.11313" lon="7.18793">
        <ele>2248.487</ele>
        <time>2015-06-13T08:50:11Z</time>
      </trkpt>
      <trkpt lat="44.11321" lon="7.18791">
        <ele>2250.896</ele>
        <time>2015-06-13T08:50:19Z</time>
      </trkpt>
      <trkpt lat="44.11324" lon="7.18791">
        <ele>2248.334</ele>
        <time>2015-06-13T08:50:22Z</time>
      </trkpt>
      <trkpt lat="44.11327" lon="7.18791">
        <ele>2246.333</ele>
        <time>2015-06-13T08:50:25Z</time>
      </trkpt>
      <trkpt lat="44.11332" lon="7.18791">
        <ele>2250.376</ele>
        <time>2015-06-13T08:50:33Z</time>
      </trkpt>
      <trkpt lat="44.11337" lon="7.18788">
        <ele>2247.003</ele>
        <time>2015-06-13T08:50:39Z</time>
      </trkpt>
      <trkpt lat="44.11345" lon="7.18785">
        <ele>2249.044</ele>
        <time>2015-06-13T08:50:46Z</time>
      </trkpt>
      <trkpt lat="44.1135" lon="7.18785">
        <ele>2248.994</ele>
        <time>2015-06-13T08:50:54Z</time>
      </trkpt>
      <trkpt lat="44.11356" lon="7.18785">
        <ele>2247.464</ele>
        <time>2015-06-13T08:51:03Z</time>
      </trkpt>
      <trkpt lat="44.11358" lon="7.18786">
        <ele>2245.914</ele>
        <time>2015-06-13T08:51:09Z</time>
      </trkpt>
      <trkpt lat="44.11362" lon="7.18786">
        <ele>2244.974</ele>
        <time>2015-06-13T08:51:17Z</time>
      </trkpt>
      <trkpt lat="44.11367" lon="7.18787">
        <ele>2245.734</ele>
        <time>2015-06-13T08:51:24Z</time>
      </trkpt>
      <trkpt lat="44.11373" lon="7.1879">
        <ele>2244.984</ele>
        <time>2015-06-13T08:51:32Z</time>
      </trkpt>
      <trkpt lat="44.11377" lon="7.18793">
        <ele>2244.044</ele>
        <time>2015-06-13T08:51:41Z</time>
      </trkpt>
      <trkpt lat="44.11381" lon="7.18794">
        <ele>2240.703</ele>
        <time>2015-06-13T08:51:48Z</time>
      </trkpt>
      <trkpt lat="44.11385" lon="7.18795">
        <ele>2239.622</ele>
        <time>2015-06-13T08:51:54Z</time>
      </trkpt>
      <trkpt lat="44.11387" lon="7.18797">
        <ele>2242.215</ele>
        <time>2015-06-13T08:52:00Z</time>
      </trkpt>
      <trkpt lat="44.11388" lon="7.18798">
        <ele>2244.345</ele>
        <time>2015-06-13T08:52:02Z</time>
      </trkpt>
      <trkpt lat="44.1139" lon="7.188">
        <ele>2249.995</ele>
        <time>2015-06-13T08:52:09Z</time>
      </trkpt>
      <trkpt lat="44.11392" lon="7.18803">
        <ele>2251.044</ele>
        <time>2015-06-13T08:52:14Z</time>
      </trkpt>
      <trkpt lat="44.11394" lon="7.18806">
        <ele>2252.847</ele>
        <time>2015-06-13T08:52:20Z</time>
      </trkpt>
      <trkpt lat="44.11397" lon="7.18809">
        <ele>2253.125</ele>
        <time>2015-06-13T08:52:32Z</time>
      </trkpt>
      <trkpt lat="44.11403" lon="7.1881">
        <ele>2253.806</ele>
        <time>2015-06-13T08:52:39Z</time>
      </trkpt>
      <trkpt lat="44.11406" lon="7.18816">
        <ele>2256.695</ele>
        <time>2015-06-13T08:52:48Z</time>
      </trkpt>
      <trkpt lat="44.11414" lon="7.18822">
        <ele>2262.126</ele>
        <time>2015-06-13T08:52:55Z</time>
      </trkpt>
      <trkpt lat="44.11416" lon="7.18828">
        <ele>2264.475</ele>
        <time>2015-06-13T08:53:05Z</time>
      </trkpt>
      <trkpt lat="44.11415" lon="7.1883">
        <ele>2265.568</ele>
        <time>2015-06-13T08:53:10Z</time>
      </trkpt>
      <trkpt lat="44.11411" lon="7.18832">
        <ele>2263.694</ele>
        <time>2015-06-13T08:53:15Z</time>
      </trkpt>
      <trkpt lat="44.11411" lon="7.18831">
        <ele>2262.494</ele>
        <time>2015-06-13T08:53:30Z</time>
      </trkpt>
      <trkpt lat="44.11411" lon="7.18833">
        <ele>2263.775</ele>
        <time>2015-06-13T08:53:35Z</time>
      </trkpt>
      <trkpt lat="44.11411" lon="7.18834">
        <ele>2265.604</ele>
        <time>2015-06-13T08:53:41Z</time>
      </trkpt>
      <trkpt lat="44.11407" lon="7.18832">
        <ele>2265.204</ele>
        <time>2015-06-13T08:53:46Z</time>
      </trkpt>
      <trkpt lat="44.11402" lon="7.18824">
        <ele>2263.473</ele>
        <time>2015-06-13T08:53:51Z</time>
      </trkpt>
      <trkpt lat="44.11401" lon="7.18819">
        <ele>2263.013</ele>
        <time>2015-06-13T08:53:55Z</time>
      </trkpt>
      <trkpt lat="44.114" lon="7.18817">
        <ele>2263.124</ele>
        <time>2015-06-13T08:53:57Z</time>
      </trkpt>
      <trkpt lat="44.11398" lon="7.18814">
        <ele>2262.634</ele>
        <time>2015-06-13T08:54:01Z</time>
      </trkpt>
      <trkpt lat="44.114" lon="7.18807">
        <ele>2262.564</ele>
        <time>2015-06-13T08:54:07Z</time>
      </trkpt>
      <trkpt lat="44.11402" lon="7.18802">
        <ele>2260.794</ele>
        <time>2015-06-13T08:54:15Z</time>
      </trkpt>
      <trkpt lat="44.11403" lon="7.18797">
        <ele>2258.572</ele>
        <time>2015-06-13T08:54:21Z</time>
      </trkpt>
      <trkpt lat="44.11403" lon="7.1879">
        <ele>2259.633</ele>
        <time>2015-06-13T08:54:28Z</time>
      </trkpt>
      <trkpt lat="44.11403" lon="7.1878">
        <ele>2260.353</ele>
        <time>2015-06-13T08:54:35Z</time>
      </trkpt>
      <trkpt lat="44.11403" lon="7.18772">
        <ele>2263.505</ele>
        <time>2015-06-13T08:54:39Z</time>
      </trkpt>
      <trkpt lat="44.11402" lon="7.18764">
        <ele>2265.406</ele>
        <time>2015-06-13T08:54:45Z</time>
      </trkpt>
      <trkpt lat="44.11401" lon="7.18759">
        <ele>2264.505</ele>
        <time>2015-06-13T08:54:51Z</time>
      </trkpt>
      <trkpt lat="44.114" lon="7.18753">
        <ele>2263.624</ele>
        <time>2015-06-13T08:54:57Z</time>
      </trkpt>
      <trkpt lat="44.11398" lon="7.18745">
        <ele>2262.464</ele>
        <time>2015-06-13T08:55:06Z</time>
      </trkpt>
      <trkpt lat="44.11398" lon="7.18735">
        <ele>2264.534</ele>
        <time>2015-06-13T08:55:16Z</time>
      </trkpt>
      <trkpt lat="44.114" lon="7.18724">
        <ele>2267.294</ele>
        <time>2015-06-13T08:55:24Z</time>
      </trkpt>
      <trkpt lat="44.11399" lon="7.18715">
        <ele>2269.805</ele>
        <time>2015-06-13T08:55:29Z</time>
      </trkpt>
      <trkpt lat="44.11401" lon="7.18708">
        <ele>2271.626</ele>
        <time>2015-06-13T08:55:36Z</time>
      </trkpt>
      <trkpt lat="44.11401" lon="7.18706">
        <ele>2271.915</ele>
        <time>2015-06-13T08:55:38Z</time>
      </trkpt>
      <trkpt lat="44.11398" lon="7.187">
        <ele>2271.644</ele>
        <time>2015-06-13T08:55:45Z</time>
      </trkpt>
      <trkpt lat="44.11399" lon="7.18693">
        <ele>2272.974</ele>
        <time>2015-06-13T08:55:52Z</time>
      </trkpt>
      <trkpt lat="44.11404" lon="7.18687">
        <ele>2274.854</ele>
        <time>2015-06-13T08:56:08Z</time>
      </trkpt>
      <trkpt lat="44.11405" lon="7.18686">
        <ele>2274.344</ele>
        <time>2015-06-13T08:56:09Z</time>
      </trkpt>
      <trkpt lat="44.11408" lon="7.18684">
        <ele>2275.125</ele>
        <time>2015-06-13T08:56:15Z</time>
      </trkpt>
      <trkpt lat="44.11411" lon="7.18681">
        <ele>2276.114</ele>
        <time>2015-06-13T08:56:21Z</time>
      </trkpt>
      <trkpt lat="44.11416" lon="7.18679">
        <ele>2276.795</ele>
        <time>2015-06-13T08:56:29Z</time>
      </trkpt>
      <trkpt lat="44.11418" lon="7.18676">
        <ele>2278.616</ele>
        <time>2015-06-13T08:56:37Z</time>
      </trkpt>
      <trkpt lat="44.1142" lon="7.18675">
        <ele>2280.135</ele>
        <time>2015-06-13T08:56:42Z</time>
      </trkpt>
      <trkpt lat="44.11422" lon="7.18675">
        <ele>2282.405</ele>
        <time>2015-06-13T08:56:48Z</time>
      </trkpt>
      <trkpt lat="44.11426" lon="7.18674">
        <ele>2282.835</ele>
        <time>2015-06-13T08:56:54Z</time>
      </trkpt>
      <trkpt lat="44.11427" lon="7.18671">
        <ele>2284.325</ele>
        <time>2015-06-13T08:56:59Z</time>
      </trkpt>
      <trkpt lat="44.1143" lon="7.18669">
        <ele>2287.256</ele>
        <time>2015-06-13T08:57:06Z</time>
      </trkpt>
      <trkpt lat="44.11433" lon="7.18667">
        <ele>2289.345</ele>
        <time>2015-06-13T08:57:13Z</time>
      </trkpt>
      <trkpt lat="44.11432" lon="7.18665">
        <ele>2288.814</ele>
        <time>2015-06-13T08:57:18Z</time>
      </trkpt>
      <trkpt lat="44.11433" lon="7.18662">
        <ele>2289.314</ele>
        <time>2015-06-13T08:57:24Z</time>
      </trkpt>
      <trkpt lat="44.11435" lon="7.18662">
        <ele>2290.674</ele>
        <time>2015-06-13T08:57:30Z</time>
      </trkpt>
      <trkpt lat="44.11442" lon="7.18656">
        <ele>2295.283</ele>
        <time>2015-06-13T08:57:59Z</time>
      </trkpt>
      <trkpt lat="44.11444" lon="7.18656">
        <ele>2291.982</ele>
        <time>2015-06-13T08:58:05Z</time>
      </trkpt>
      <trkpt lat="44.11444" lon="7.18653">
        <ele>2290.303</ele>
        <time>2015-06-13T08:58:25Z</time>
      </trkpt>
      <trkpt lat="44.11444" lon="7.18652">
        <ele>2288.602</ele>
        <time>2015-06-13T08:58:27Z</time>
      </trkpt>
      <trkpt lat="44.11446" lon="7.18649">
        <ele>2288.963</ele>
        <time>2015-06-13T08:58:30Z</time>
      </trkpt>
      <trkpt lat="44.11454" lon="7.18639">
        <ele>2285.712</ele>
        <time>2015-06-13T08:58:40Z</time>
      </trkpt>
      <trkpt lat="44.11458" lon="7.18633">
        <ele>2284.544</ele>
        <time>2015-06-13T08:58:47Z</time>
      </trkpt>
      <trkpt lat="44.11464" lon="7.18625">
        <ele>2284.754</ele>
        <time>2015-06-13T08:58:54Z</time>
      </trkpt>
      <trkpt lat="44.11465" lon="7.18624">
        <ele>2284.854</ele>
        <time>2015-06-13T08:58:55Z</time>
      </trkpt>
      <trkpt lat="44.11474" lon="7.18616">
        <ele>2291.526</ele>
        <time>2015-06-13T08:59:06Z</time>
      </trkpt>
      <trkpt lat="44.11481" lon="7.18611">
        <ele>2293.286</ele>
        <time>2015-06-13T08:59:13Z</time>
      </trkpt>
      <trkpt lat="44.11487" lon="7.18606">
        <ele>2293.895</ele>
        <time>2015-06-13T08:59:20Z</time>
      </trkpt>
      <trkpt lat="44.11488" lon="7.18606">
        <ele>2294.415</ele>
        <time>2015-06-13T08:59:21Z</time>
      </trkpt>
      <trkpt lat="44.11495" lon="7.18599">
        <ele>2298.187</ele>
        <time>2015-06-13T08:59:31Z</time>
      </trkpt>
      <trkpt lat="44.11502" lon="7.18595">
        <ele>2296.495</ele>
        <time>2015-06-13T08:59:40Z</time>
      </trkpt>
      <trkpt lat="44.11503" lon="7.18594">
        <ele>2297.235</ele>
        <time>2015-06-13T08:59:47Z</time>
      </trkpt>
      <trkpt lat="44.11507" lon="7.18591">
        <ele>2299.406</ele>
        <time>2015-06-13T08:59:54Z</time>
      </trkpt>
      <trkpt lat="44.11515" lon="7.18587">
        <ele>2297.445</ele>
        <time>2015-06-13T09:00:03Z</time>
      </trkpt>
      <trkpt lat="44.11521" lon="7.18588">
        <ele>2297.745</ele>
        <time>2015-06-13T09:00:11Z</time>
      </trkpt>
      <trkpt lat="44.11523" lon="7.18588">
        <ele>2298.735</ele>
        <time>2015-06-13T09:00:13Z</time>
      </trkpt>
      <trkpt lat="44.11533" lon="7.18584">
        <ele>2303.816</ele>
        <time>2015-06-13T09:00:23Z</time>
      </trkpt>
      <trkpt lat="44.1154" lon="7.18578">
        <ele>2303.994</ele>
        <time>2015-06-13T09:00:30Z</time>
      </trkpt>
      <trkpt lat="44.11544" lon="7.18571">
        <ele>2304.483</ele>
        <time>2015-06-13T09:00:36Z</time>
      </trkpt>
      <trkpt lat="44.11551" lon="7.18562">
        <ele>2303.834</ele>
        <time>2015-06-13T09:00:43Z</time>
      </trkpt>
      <trkpt lat="44.11554" lon="7.18556">
        <ele>2302.753</ele>
        <time>2015-06-13T09:00:50Z</time>
      </trkpt>
      <trkpt lat="44.11559" lon="7.18547">
        <ele>2298.832</ele>
        <time>2015-06-13T09:00:59Z</time>
      </trkpt>
      <trkpt lat="44.11562" lon="7.18542">
        <ele>2299.193</ele>
        <time>2015-06-13T09:01:04Z</time>
      </trkpt>
      <trkpt lat="44.11569" lon="7.18533">
        <ele>2300.935</ele>
        <time>2015-06-13T09:01:12Z</time>
      </trkpt>
      <trkpt lat="44.11575" lon="7.18529">
        <ele>2303.084</ele>
        <time>2015-06-13T09:01:20Z</time>
      </trkpt>
      <trkpt lat="44.11582" lon="7.18526">
        <ele>2299.991</ele>
        <time>2015-06-13T09:01:27Z</time>
      </trkpt>
      <trkpt lat="44.11584" lon="7.18524">
        <ele>2302.034</ele>
        <time>2015-06-13T09:01:34Z</time>
      </trkpt>
      <trkpt lat="44.11585" lon="7.18525">
        <ele>2302.704</ele>
        <time>2015-06-13T09:01:39Z</time>
      </trkpt>
      <trkpt lat="44.11584" lon="7.18523">
        <ele>2301.265</ele>
        <time>2015-06-13T09:01:54Z</time>
      </trkpt>
      <trkpt lat="44.11584" lon="7.18522">
        <ele>2300.824</ele>
        <time>2015-06-13T09:01:55Z</time>
      </trkpt>
      <trkpt lat="44.11583" lon="7.18521">
        <ele>2301.134</ele>
        <time>2015-06-13T09:01:57Z</time>
      </trkpt>
      <trkpt lat="44.11583" lon="7.1852">
        <ele>2302.264</ele>
        <time>2015-06-13T09:01:59Z</time>
      </trkpt>
      <trkpt lat="44.11583" lon="7.18516">
        <ele>2303.745</ele>
        <time>2015-06-13T09:02:04Z</time>
      </trkpt>
      <trkpt lat="44.11585" lon="7.1851">
        <ele>2304.755</ele>
        <time>2015-06-13T09:02:09Z</time>
      </trkpt>
      <trkpt lat="44.11588" lon="7.18506">
        <ele>2306.185</ele>
        <time>2015-06-13T09:02:16Z</time>
      </trkpt>
      <trkpt lat="44.1159" lon="7.18504">
        <ele>2310.236</ele>
        <time>2015-06-13T09:02:26Z</time>
      </trkpt>
      <trkpt lat="44.11594" lon="7.185">
        <ele>2311.495</ele>
        <time>2015-06-13T09:02:33Z</time>
      </trkpt>
      <trkpt lat="44.11593" lon="7.18499">
        <ele>2311.604</ele>
        <time>2015-06-13T09:02:35Z</time>
      </trkpt>
      <trkpt lat="44.11588" lon="7.18495">
        <ele>2311.544</ele>
        <time>2015-06-13T09:02:44Z</time>
      </trkpt>
      <trkpt lat="44.11587" lon="7.18491">
        <ele>2313.104</ele>
        <time>2015-06-13T09:02:52Z</time>
      </trkpt>
      <trkpt lat="44.11583" lon="7.18488">
        <ele>2313.504</ele>
        <time>2015-06-13T09:02:58Z</time>
      </trkpt>
      <trkpt lat="44.11577" lon="7.18485">
        <ele>2314.064</ele>
        <time>2015-06-13T09:03:06Z</time>
      </trkpt>
      <trkpt lat="44.11572" lon="7.18482">
        <ele>2313.233</ele>
        <time>2015-06-13T09:03:14Z</time>
      </trkpt>
      <trkpt lat="44.11568" lon="7.18478">
        <ele>2315.454</ele>
        <time>2015-06-13T09:03:21Z</time>
      </trkpt>
      <trkpt lat="44.11568" lon="7.18474">
        <ele>2315.595</ele>
        <time>2015-06-13T09:03:27Z</time>
      </trkpt>
      <trkpt lat="44.11567" lon="7.18472">
        <ele>2315.604</ele>
        <time>2015-06-13T09:03:29Z</time>
      </trkpt>
      <trkpt lat="44.11567" lon="7.18464">
        <ele>2315.402</ele>
        <time>2015-06-13T09:03:35Z</time>
      </trkpt>
      <trkpt lat="44.11567" lon="7.18463">
        <ele>2315.543</ele>
        <time>2015-06-13T09:03:36Z</time>
      </trkpt>
      <trkpt lat="44.1157" lon="7.18457">
        <ele>2317.664</ele>
        <time>2015-06-13T09:03:43Z</time>
      </trkpt>
      <trkpt lat="44.11567" lon="7.18451">
        <ele>2317.203</ele>
        <time>2015-06-13T09:03:50Z</time>
      </trkpt>
      <trkpt lat="44.11564" lon="7.18447">
        <ele>2315.903</ele>
        <time>2015-06-13T09:03:56Z</time>
      </trkpt>
      <trkpt lat="44.11563" lon="7.18444">
        <ele>2313.852</ele>
        <time>2015-06-13T09:03:59Z</time>
      </trkpt>
      <trkpt lat="44.11563" lon="7.18437">
        <ele>2313.465</ele>
        <time>2015-06-13T09:04:07Z</time>
      </trkpt>
      <trkpt lat="44.11562" lon="7.1843">
        <ele>2318.485</ele>
        <time>2015-06-13T09:04:17Z</time>
      </trkpt>
      <trkpt lat="44.11568" lon="7.1843">
        <ele>2317.324</ele>
        <time>2015-06-13T09:04:36Z</time>
      </trkpt>
      <trkpt lat="44.11568" lon="7.18431">
        <ele>2317.305</ele>
        <time>2015-06-13T09:04:43Z</time>
      </trkpt>
      <trkpt lat="44.11568" lon="7.18427">
        <ele>2317.574</ele>
        <time>2015-06-13T09:04:50Z</time>
      </trkpt>
      <trkpt lat="44.11566" lon="7.18422">
        <ele>2316.733</ele>
        <time>2015-06-13T09:04:58Z</time>
      </trkpt>
      <trkpt lat="44.11566" lon="7.18418">
        <ele>2320.076</ele>
        <time>2015-06-13T09:05:02Z</time>
      </trkpt>
      <trkpt lat="44.11566" lon="7.18408">
        <ele>2322.935</ele>
        <time>2015-06-13T09:05:11Z</time>
      </trkpt>
      <trkpt lat="44.11565" lon="7.184">
        <ele>2321.663</ele>
        <time>2015-06-13T09:05:19Z</time>
      </trkpt>
      <trkpt lat="44.11566" lon="7.18396">
        <ele>2320.423</ele>
        <time>2015-06-13T09:05:25Z</time>
      </trkpt>
      <trkpt lat="44.1157" lon="7.18387">
        <ele>2330.745</ele>
        <time>2015-06-13T09:05:43Z</time>
      </trkpt>
      <trkpt lat="44.11571" lon="7.18383">
        <ele>2328.473</ele>
        <time>2015-06-13T09:05:50Z</time>
      </trkpt>
      <trkpt lat="44.11573" lon="7.1838">
        <ele>2325.983</ele>
        <time>2015-06-13T09:05:57Z</time>
      </trkpt>
      <trkpt lat="44.11575" lon="7.18378">
        <ele>2325.804</ele>
        <time>2015-06-13T09:06:02Z</time>
      </trkpt>
      <trkpt lat="44.11575" lon="7.18371">
        <ele>2323.263</ele>
        <time>2015-06-13T09:06:10Z</time>
      </trkpt>
      <trkpt lat="44.11577" lon="7.18367">
        <ele>2327.976</ele>
        <time>2015-06-13T09:06:19Z</time>
      </trkpt>
      <trkpt lat="44.11578" lon="7.18365">
        <ele>2330.006</ele>
        <time>2015-06-13T09:06:22Z</time>
      </trkpt>
      <trkpt lat="44.11585" lon="7.18358">
        <ele>2337.388</ele>
        <time>2015-06-13T09:06:31Z</time>
      </trkpt>
      <trkpt lat="44.11586" lon="7.18353">
        <ele>2338.406</ele>
        <time>2015-06-13T09:06:38Z</time>
      </trkpt>
      <trkpt lat="44.11591" lon="7.1835">
        <ele>2339.786</ele>
        <time>2015-06-13T09:06:46Z</time>
      </trkpt>
      <trkpt lat="44.11594" lon="7.18347">
        <ele>2338.604</ele>
        <time>2015-06-13T09:06:52Z</time>
      </trkpt>
      <trkpt lat="44.11599" lon="7.18345">
        <ele>2338.715</ele>
        <time>2015-06-13T09:07:00Z</time>
      </trkpt>
      <trkpt lat="44.11603" lon="7.18343">
        <ele>2339.744</ele>
        <time>2015-06-13T09:07:05Z</time>
      </trkpt>
      <trkpt lat="44.11607" lon="7.18341">
        <ele>2345.406</ele>
        <time>2015-06-13T09:07:13Z</time>
      </trkpt>
      <trkpt lat="44.1161" lon="7.18339">
        <ele>2346.245</ele>
        <time>2015-06-13T09:07:20Z</time>
      </trkpt>
      <trkpt lat="44.11613" lon="7.18338">
        <ele>2343.243</ele>
        <time>2015-06-13T09:07:29Z</time>
      </trkpt>
      <trkpt lat="44.11613" lon="7.18337">
        <ele>2341.372</ele>
        <time>2015-06-13T09:07:33Z</time>
      </trkpt>
      <trkpt lat="44.11615" lon="7.18332">
        <ele>2339.162</ele>
        <time>2015-06-13T09:07:40Z</time>
      </trkpt>
      <trkpt lat="44.11615" lon="7.18324">
        <ele>2335.802</ele>
        <time>2015-06-13T09:07:48Z</time>
      </trkpt>
      <trkpt lat="44.11619" lon="7.1832">
        <ele>2340.235</ele>
        <time>2015-06-13T09:07:56Z</time>
      </trkpt>
      <trkpt lat="44.1162" lon="7.18317">
        <ele>2340.504</ele>
        <time>2015-06-13T09:08:01Z</time>
      </trkpt>
      <trkpt lat="44.11622" lon="7.18315">
        <ele>2343.235</ele>
        <time>2015-06-13T09:08:10Z</time>
      </trkpt>
      <trkpt lat="44.11636" lon="7.18312">
        <ele>2353.987</ele>
        <time>2015-06-13T09:08:20Z</time>
      </trkpt>
      <trkpt lat="44.11641" lon="7.18311">
        <ele>2354.105</ele>
        <time>2015-06-13T09:08:27Z</time>
      </trkpt>
      <trkpt lat="44.11646" lon="7.18309">
        <ele>2355.445</ele>
        <time>2015-06-13T09:08:35Z</time>
      </trkpt>
      <trkpt lat="44.1165" lon="7.18309">
        <ele>2354.503</ele>
        <time>2015-06-13T09:08:42Z</time>
      </trkpt>
      <trkpt lat="44.11653" lon="7.18307">
        <ele>2354.313</ele>
        <time>2015-06-13T09:08:49Z</time>
      </trkpt>
      <trkpt lat="44.11655" lon="7.18304">
        <ele>2351.402</ele>
        <time>2015-06-13T09:08:55Z</time>
      </trkpt>
      <trkpt lat="44.11654" lon="7.18301">
        <ele>2346.47</ele>
        <time>2015-06-13T09:09:01Z</time>
      </trkpt>
      <trkpt lat="44.11658" lon="7.18299">
        <ele>2346.011</ele>
        <time>2015-06-13T09:09:07Z</time>
      </trkpt>
      <trkpt lat="44.11663" lon="7.18298">
        <ele>2346.262</ele>
        <time>2015-06-13T09:09:14Z</time>
      </trkpt>
      <trkpt lat="44.11665" lon="7.18296">
        <ele>2350.755</ele>
        <time>2015-06-13T09:09:19Z</time>
      </trkpt>
      <trkpt lat="44.11665" lon="7.18294">
        <ele>2352.175</ele>
        <time>2015-06-13T09:09:24Z</time>
      </trkpt>
      <trkpt lat="44.11664" lon="7.18291">
        <ele>2350.943</ele>
        <time>2015-06-13T09:09:31Z</time>
      </trkpt>
      <trkpt lat="44.11661" lon="7.18285">
        <ele>2350.113</ele>
        <time>2015-06-13T09:09:38Z</time>
      </trkpt>
      <trkpt lat="44.1166" lon="7.18282">
        <ele>2350.273</ele>
        <time>2015-06-13T09:09:43Z</time>
      </trkpt>
      <trkpt lat="44.11657" lon="7.1828">
        <ele>2351.484</ele>
        <time>2015-06-13T09:09:48Z</time>
      </trkpt>
      <trkpt lat="44.11655" lon="7.18276">
        <ele>2351.983</ele>
        <time>2015-06-13T09:09:54Z</time>
      </trkpt>
      <trkpt lat="44.11654" lon="7.18272">
        <ele>2350.743</ele>
        <time>2015-06-13T09:10:00Z</time>
      </trkpt>
      <trkpt lat="44.11653" lon="7.18269">
        <ele>2351.903</ele>
        <time>2015-06-13T09:10:05Z</time>
      </trkpt>
      <trkpt lat="44.11652" lon="7.18264">
        <ele>2355.455</ele>
        <time>2015-06-13T09:10:11Z</time>
      </trkpt>
      <trkpt lat="44.11651" lon="7.18259">
        <ele>2358.715</ele>
        <time>2015-06-13T09:10:18Z</time>
      </trkpt>
      <trkpt lat="44.11654" lon="7.18254">
        <ele>2365.038</ele>
        <time>2015-06-13T09:10:23Z</time>
      </trkpt>
      <trkpt lat="44.11651" lon="7.18251">
        <ele>2356.722</ele>
        <time>2015-06-13T09:10:29Z</time>
      </trkpt>
      <trkpt lat="44.11649" lon="7.18246">
        <ele>2356.333</ele>
        <time>2015-06-13T09:10:35Z</time>
      </trkpt>
      <trkpt lat="44.11646" lon="7.18242">
        <ele>2353.511</ele>
        <time>2015-06-13T09:10:41Z</time>
      </trkpt>
      <trkpt lat="44.11644" lon="7.18236">
        <ele>2350.081</ele>
        <time>2015-06-13T09:10:48Z</time>
      </trkpt>
      <trkpt lat="44.11646" lon="7.18229">
        <ele>2367.88</ele>
        <time>2015-06-13T09:10:58Z</time>
      </trkpt>
      <trkpt lat="44.11651" lon="7.18224">
        <ele>2377.949</ele>
        <time>2015-06-13T09:11:09Z</time>
      </trkpt>
      <trkpt lat="44.11653" lon="7.18226">
        <ele>2381.187</ele>
        <time>2015-06-13T09:11:19Z</time>
      </trkpt>
      <trkpt lat="44.11653" lon="7.18225">
        <ele>2380.865</ele>
        <time>2015-06-13T09:11:23Z</time>
      </trkpt>
      <trkpt lat="44.11655" lon="7.18219">
        <ele>2381.066</ele>
        <time>2015-06-13T09:11:31Z</time>
      </trkpt>
      <trkpt lat="44.11658" lon="7.18218">
        <ele>2376.542</ele>
        <time>2015-06-13T09:11:38Z</time>
      </trkpt>
      <trkpt lat="44.11661" lon="7.18219">
        <ele>2377.514</ele>
        <time>2015-06-13T09:11:44Z</time>
      </trkpt>
      <trkpt lat="44.11665" lon="7.18218">
        <ele>2378.334</ele>
        <time>2015-06-13T09:11:51Z</time>
      </trkpt>
      <trkpt lat="44.11665" lon="7.18217">
        <ele>2378.404</ele>
        <time>2015-06-13T09:11:54Z</time>
      </trkpt>
      <trkpt lat="44.11667" lon="7.18212">
        <ele>2372.65</ele>
        <time>2015-06-13T09:12:00Z</time>
      </trkpt>
      <trkpt lat="44.11668" lon="7.18211">
        <ele>2370.032</ele>
        <time>2015-06-13T09:12:07Z</time>
      </trkpt>
      <trkpt lat="44.11669" lon="7.18208">
        <ele>2371.254</ele>
        <time>2015-06-13T09:12:14Z</time>
      </trkpt>
      <trkpt lat="44.11674" lon="7.18203">
        <ele>2374.296</ele>
        <time>2015-06-13T09:12:20Z</time>
      </trkpt>
      <trkpt lat="44.11675" lon="7.18199">
        <ele>2375.665</ele>
        <time>2015-06-13T09:12:27Z</time>
      </trkpt>
      <trkpt lat="44.11679" lon="7.18195">
        <ele>2382.508</ele>
        <time>2015-06-13T09:12:34Z</time>
      </trkpt>
      <trkpt lat="44.11686" lon="7.18189">
        <ele>2383.636</ele>
        <time>2015-06-13T09:12:41Z</time>
      </trkpt>
      <trkpt lat="44.11691" lon="7.18185">
        <ele>2386.486</ele>
        <time>2015-06-13T09:12:47Z</time>
      </trkpt>
      <trkpt lat="44.11694" lon="7.18179">
        <ele>2386.725</ele>
        <time>2015-06-13T09:12:52Z</time>
      </trkpt>
      <trkpt lat="44.11694" lon="7.18175">
        <ele>2386.534</ele>
        <time>2015-06-13T09:12:58Z</time>
      </trkpt>
      <trkpt lat="44.11695" lon="7.18172">
        <ele>2386.445</ele>
        <time>2015-06-13T09:13:03Z</time>
      </trkpt>
      <trkpt lat="44.11697" lon="7.1817">
        <ele>2384.814</ele>
        <time>2015-06-13T09:13:09Z</time>
      </trkpt>
      <trkpt lat="44.117" lon="7.18166">
        <ele>2384.414</ele>
        <time>2015-06-13T09:13:20Z</time>
      </trkpt>
      <trkpt lat="44.11701" lon="7.18164">
        <ele>2383.864</ele>
        <time>2015-06-13T09:13:25Z</time>
      </trkpt>
      <trkpt lat="44.11705" lon="7.18158">
        <ele>2382.853</ele>
        <time>2015-06-13T09:13:31Z</time>
      </trkpt>
      <trkpt lat="44.11707" lon="7.18153">
        <ele>2381.254</ele>
        <time>2015-06-13T09:13:37Z</time>
      </trkpt>
      <trkpt lat="44.11711" lon="7.18151">
        <ele>2385.186</ele>
        <time>2015-06-13T09:13:44Z</time>
      </trkpt>
      <trkpt lat="44.11716" lon="7.18147">
        <ele>2389.035</ele>
        <time>2015-06-13T09:13:54Z</time>
      </trkpt>
      <trkpt lat="44.11717" lon="7.18142">
        <ele>2392.115</ele>
        <time>2015-06-13T09:14:03Z</time>
      </trkpt>
      <trkpt lat="44.11715" lon="7.1814">
        <ele>2387.793</ele>
        <time>2015-06-13T09:14:05Z</time>
      </trkpt>
      <trkpt lat="44.11713" lon="7.18136">
        <ele>2383.201</ele>
        <time>2015-06-13T09:14:11Z</time>
      </trkpt>
      <trkpt lat="44.11715" lon="7.18136">
        <ele>2383.773</ele>
        <time>2015-06-13T09:14:16Z</time>
      </trkpt>
      <trkpt lat="44.11718" lon="7.18133">
        <ele>2388.376</ele>
        <time>2015-06-13T09:14:20Z</time>
      </trkpt>
      <trkpt lat="44.11723" lon="7.18128">
        <ele>2394.147</ele>
        <time>2015-06-13T09:14:27Z</time>
      </trkpt>
      <trkpt lat="44.11729" lon="7.18121">
        <ele>2393.445</ele>
        <time>2015-06-13T09:14:34Z</time>
      </trkpt>
      <trkpt lat="44.11734" lon="7.18119">
        <ele>2398.667</ele>
        <time>2015-06-13T09:14:40Z</time>
      </trkpt>
      <trkpt lat="44.11738" lon="7.18118">
        <ele>2395.913</ele>
        <time>2015-06-13T09:14:55Z</time>
      </trkpt>
      <trkpt lat="44.11742" lon="7.18117">
        <ele>2399.886</ele>
        <time>2015-06-13T09:15:01Z</time>
      </trkpt>
      <trkpt lat="44.11747" lon="7.18114">
        <ele>2404.527</ele>
        <time>2015-06-13T09:15:11Z</time>
      </trkpt>
      <trkpt lat="44.11749" lon="7.18111">
        <ele>2395.361</ele>
        <time>2015-06-13T09:15:20Z</time>
      </trkpt>
      <trkpt lat="44.11753" lon="7.18109">
        <ele>2398.555</ele>
        <time>2015-06-13T09:15:26Z</time>
      </trkpt>
      <trkpt lat="44.11757" lon="7.18108">
        <ele>2400.496</ele>
        <time>2015-06-13T09:15:31Z</time>
      </trkpt>
      <trkpt lat="44.11758" lon="7.18105">
        <ele>2399.244</ele>
        <time>2015-06-13T09:15:36Z</time>
      </trkpt>
      <trkpt lat="44.11761" lon="7.18102">
        <ele>2395.703</ele>
        <time>2015-06-13T09:15:42Z</time>
      </trkpt>
      <trkpt lat="44.11764" lon="7.18098">
        <ele>2395.013</ele>
        <time>2015-06-13T09:15:47Z</time>
      </trkpt>
      <trkpt lat="44.11769" lon="7.18095">
        <ele>2398.666</ele>
        <time>2015-06-13T09:15:56Z</time>
      </trkpt>
      <trkpt lat="44.11772" lon="7.18092">
        <ele>2403.657</ele>
        <time>2015-06-13T09:16:01Z</time>
      </trkpt>
      <trkpt lat="44.11775" lon="7.18091">
        <ele>2407.695</ele>
        <time>2015-06-13T09:16:10Z</time>
      </trkpt>
      <trkpt lat="44.11779" lon="7.18088">
        <ele>2411.035</ele>
        <time>2015-06-13T09:16:21Z</time>
      </trkpt>
      <trkpt lat="44.11781" lon="7.18087">
        <ele>2409.124</ele>
        <time>2015-06-13T09:16:27Z</time>
      </trkpt>
      <trkpt lat="44.11784" lon="7.18084">
        <ele>2406.893</ele>
        <time>2015-06-13T09:16:32Z</time>
      </trkpt>
      <trkpt lat="44.11786" lon="7.1808">
        <ele>2406.974</ele>
        <time>2015-06-13T09:16:38Z</time>
      </trkpt>
      <trkpt lat="44.11789" lon="7.18077">
        <ele>2406.154</ele>
        <time>2015-06-13T09:16:45Z</time>
      </trkpt>
      <trkpt lat="44.11794" lon="7.18073">
        <ele>2405.144</ele>
        <time>2015-06-13T09:16:51Z</time>
      </trkpt>
      <trkpt lat="44.11797" lon="7.18074">
        <ele>2409.495</ele>
        <time>2015-06-13T09:16:58Z</time>
      </trkpt>
      <trkpt lat="44.11798" lon="7.18071">
        <ele>2413.806</ele>
        <time>2015-06-13T09:17:04Z</time>
      </trkpt>
      <trkpt lat="44.118" lon="7.1807">
        <ele>2416.206</ele>
        <time>2015-06-13T09:17:10Z</time>
      </trkpt>
      <trkpt lat="44.118" lon="7.1807">
        <ele>2416.736</ele>
        <time>2015-06-13T09:17:11Z</time>
      </trkpt>
      <trkpt lat="44.11806" lon="7.18063">
        <ele>2417.516</ele>
        <time>2015-06-13T09:17:19Z</time>
      </trkpt>
      <trkpt lat="44.11809" lon="7.18062">
        <ele>2416.645</ele>
        <time>2015-06-13T09:17:24Z</time>
      </trkpt>
      <trkpt lat="44.1181" lon="7.18061">
        <ele>2416.545</ele>
        <time>2015-06-13T09:17:26Z</time>
      </trkpt>
      <trkpt lat="44.11814" lon="7.18057">
        <ele>2418.297</ele>
        <time>2015-06-13T09:17:33Z</time>
      </trkpt>
      <trkpt lat="44.11819" lon="7.18053">
        <ele>2415.034</ele>
        <time>2015-06-13T09:17:39Z</time>
      </trkpt>
      <trkpt lat="44.11822" lon="7.18049">
        <ele>2413.974</ele>
        <time>2015-06-13T09:17:45Z</time>
      </trkpt>
      <trkpt lat="44.11826" lon="7.18046">
        <ele>2414.434</ele>
        <time>2015-06-13T09:17:51Z</time>
      </trkpt>
      <trkpt lat="44.11831" lon="7.18042">
        <ele>2411.053</ele>
        <time>2015-06-13T09:17:58Z</time>
      </trkpt>
      <trkpt lat="44.11837" lon="7.18039">
        <ele>2412.965</ele>
        <time>2015-06-13T09:18:03Z</time>
      </trkpt>
      <trkpt lat="44.11842" lon="7.18036">
        <ele>2416.447</ele>
        <time>2015-06-13T09:18:08Z</time>
      </trkpt>
      <trkpt lat="44.11846" lon="7.18036">
        <ele>2419.977</ele>
        <time>2015-06-13T09:18:16Z</time>
      </trkpt>
      <trkpt lat="44.11849" lon="7.18035">
        <ele>2422.416</ele>
        <time>2015-06-13T09:18:22Z</time>
      </trkpt>
      <trkpt lat="44.11855" lon="7.18032">
        <ele>2417.873</ele>
        <time>2015-06-13T09:18:30Z</time>
      </trkpt>
      <trkpt lat="44.11862" lon="7.18029">
        <ele>2415.994</ele>
        <time>2015-06-13T09:18:37Z</time>
      </trkpt>
      <trkpt lat="44.11867" lon="7.1803">
        <ele>2418.645</ele>
        <time>2015-06-13T09:18:44Z</time>
      </trkpt>
      <trkpt lat="44.11872" lon="7.18029">
        <ele>2421.667</ele>
        <time>2015-06-13T09:18:51Z</time>
      </trkpt>
      <trkpt lat="44.11877" lon="7.18029">
        <ele>2404.749</ele>
        <time>2015-06-13T09:19:06Z</time>
      </trkpt>
      <trkpt lat="44.1188" lon="7.18031">
        <ele>2413.43</ele>
        <time>2015-06-13T09:20:08Z</time>
      </trkpt>
      <trkpt lat="44.1188" lon="7.18033">
        <ele>2409.35</ele>
        <time>2015-06-13T09:20:16Z</time>
      </trkpt>
      <trkpt lat="44.1188" lon="7.1804">
        <ele>2413.644</ele>
        <time>2015-06-13T09:20:23Z</time>
      </trkpt>
      <trkpt lat="44.11881" lon="7.18044">
        <ele>2419.007</ele>
        <time>2015-06-13T09:20:28Z</time>
      </trkpt>
      <trkpt lat="44.11886" lon="7.18048">
        <ele>2422.054</ele>
        <time>2015-06-13T09:20:39Z</time>
      </trkpt>
      <trkpt lat="44.11886" lon="7.18056">
        <ele>2424.881</ele>
        <time>2015-06-13T09:21:39Z</time>
      </trkpt>
      <trkpt lat="44.11888" lon="7.18053">
        <ele>2429.167</ele>
        <time>2015-06-13T09:21:56Z</time>
      </trkpt>
      <trkpt lat="44.11892" lon="7.18051">
        <ele>2429.126</ele>
        <time>2015-06-13T09:22:01Z</time>
      </trkpt>
      <trkpt lat="44.11895" lon="7.18053">
        <ele>2431.296</ele>
        <time>2015-06-13T09:22:06Z</time>
      </trkpt>
      <trkpt lat="44.11898" lon="7.18052">
        <ele>2430.795</ele>
        <time>2015-06-13T09:22:11Z</time>
      </trkpt>
      <trkpt lat="44.11904" lon="7.18049">
        <ele>2425.732</ele>
        <time>2015-06-13T09:22:18Z</time>
      </trkpt>
      <trkpt lat="44.11917" lon="7.18047">
        <ele>2421.394</ele>
        <time>2015-06-13T09:22:36Z</time>
      </trkpt>
      <trkpt lat="44.1192" lon="7.18046">
        <ele>2425.346</ele>
        <time>2015-06-13T09:22:40Z</time>
      </trkpt>
      <trkpt lat="44.11924" lon="7.18046">
        <ele>2435.11</ele>
        <time>2015-06-13T09:22:47Z</time>
      </trkpt>
      <trkpt lat="44.11931" lon="7.18039">
        <ele>2439.188</ele>
        <time>2015-06-13T09:23:00Z</time>
      </trkpt>
      <trkpt lat="44.11937" lon="7.18033">
        <ele>2434.143</ele>
        <time>2015-06-13T09:23:14Z</time>
      </trkpt>
      <trkpt lat="44.11937" lon="7.18033">
        <ele>2433.223</ele>
        <time>2015-06-13T09:23:15Z</time>
      </trkpt>
      <trkpt lat="44.11937" lon="7.18027">
        <ele>2429.412</ele>
        <time>2015-06-13T09:23:22Z</time>
      </trkpt>
      <trkpt lat="44.11941" lon="7.18022">
        <ele>2434.626</ele>
        <time>2015-06-13T09:23:31Z</time>
      </trkpt>
      <trkpt lat="44.11945" lon="7.18018">
        <ele>2430.575</ele>
        <time>2015-06-13T09:23:50Z</time>
      </trkpt>
      <trkpt lat="44.11958" lon="7.18007">
        <ele>2447.206</ele>
        <time>2015-06-13T09:24:13Z</time>
      </trkpt>
      <trkpt lat="44.11974" lon="7.17988">
        <ele>2468.035</ele>
        <time>2015-06-13T09:24:50Z</time>
      </trkpt>
      <trkpt lat="44.11982" lon="7.17982">
        <ele>2457.65</ele>
        <time>2015-06-13T09:25:03Z</time>
      </trkpt>
      <trkpt lat="44.11982" lon="7.17981">
        <ele>2454.938</ele>
        <time>2015-06-13T09:25:04Z</time>
      </trkpt>
      <trkpt lat="44.11985" lon="7.17976">
        <ele>2448.027</ele>
        <time>2015-06-13T09:25:11Z</time>
      </trkpt>
      <trkpt lat="44.11996" lon="7.17965">
        <ele>2466.457</ele>
        <time>2015-06-13T09:25:35Z</time>
      </trkpt>
      <trkpt lat="44.12005" lon="7.17958">
        <ele>2466.425</ele>
        <time>2015-06-13T09:25:51Z</time>
      </trkpt>
      <trkpt lat="44.12007" lon="7.17955">
        <ele>2464.534</ele>
        <time>2015-06-13T09:25:59Z</time>
      </trkpt>
      <trkpt lat="44.12015" lon="7.1795">
        <ele>2463.503</ele>
        <time>2015-06-13T09:26:08Z</time>
      </trkpt>
      <trkpt lat="44.12022" lon="7.17942">
        <ele>2465.655</ele>
        <time>2015-06-13T09:26:23Z</time>
      </trkpt>
      <trkpt lat="44.12025" lon="7.1794">
        <ele>2467.536</ele>
        <time>2015-06-13T09:26:30Z</time>
      </trkpt>
      <trkpt lat="44.1203" lon="7.17938">
        <ele>2472.267</ele>
        <time>2015-06-13T09:26:42Z</time>
      </trkpt>
      <trkpt lat="44.12033" lon="7.17933">
        <ele>2476.566</ele>
        <time>2015-06-13T09:26:56Z</time>
      </trkpt>
      <trkpt lat="44.12039" lon="7.17929">
        <ele>2483.567</ele>
        <time>2015-06-13T09:27:05Z</time>
      </trkpt>
      <trkpt lat="44.12045" lon="7.17926">
        <ele>2474.032</ele>
        <time>2015-06-13T09:30:50Z</time>
      </trkpt>
      <trkpt lat="44.1205" lon="7.17922">
        <ele>2467.937</ele>
        <time>2015-06-13T09:31:05Z</time>
      </trkpt>
      <trkpt lat="44.12051" lon="7.17922">
        <ele>2469.02</ele>
        <time>2015-06-13T09:31:06Z</time>
      </trkpt>
      <trkpt lat="44.12054" lon="7.17924">
        <ele>2468.582</ele>
        <time>2015-06-13T09:31:12Z</time>
      </trkpt>
      <trkpt lat="44.12058" lon="7.17922">
        <ele>2470.213</ele>
        <time>2015-06-13T09:31:18Z</time>
      </trkpt>
      <trkpt lat="44.12059" lon="7.17922">
        <ele>2470.314</ele>
        <time>2015-06-13T09:31:20Z</time>
      </trkpt>
      <trkpt lat="44.12063" lon="7.17922">
        <ele>2477.315</ele>
        <time>2015-06-13T09:31:26Z</time>
      </trkpt>
      <trkpt lat="44.12064" lon="7.17918">
        <ele>2478.735</ele>
        <time>2015-06-13T09:31:32Z</time>
      </trkpt>
      <trkpt lat="44.12064" lon="7.17918">
        <ele>2482.004</ele>
        <time>2015-06-13T09:31:41Z</time>
      </trkpt>
      <trkpt lat="44.12066" lon="7.17923">
        <ele>2487.425</ele>
        <time>2015-06-13T09:32:09Z</time>
      </trkpt>
      <trkpt lat="44.12066" lon="7.17917">
        <ele>2483.702</ele>
        <time>2015-06-13T09:32:21Z</time>
      </trkpt>
      <trkpt lat="44.12069" lon="7.17914">
        <ele>2480.962</ele>
        <time>2015-06-13T09:32:28Z</time>
      </trkpt>
      <trkpt lat="44.1207" lon="7.17914">
        <ele>2492.324</ele>
        <time>2015-06-13T09:33:07Z</time>
      </trkpt>
      <trkpt lat="44.12068" lon="7.17916">
        <ele>2492.434</ele>
        <time>2015-06-13T09:33:13Z</time>
      </trkpt>
      <trkpt lat="44.12066" lon="7.17917">
        <ele>2491.213</ele>
        <time>2015-06-13T09:33:19Z</time>
      </trkpt>
      <trkpt lat="44.12066" lon="7.17921">
        <ele>2492.232</ele>
        <time>2015-06-13T09:33:32Z</time>
      </trkpt>
      <trkpt lat="44.12066" lon="7.17916">
        <ele>2487.883</ele>
        <time>2015-06-13T09:34:08Z</time>
      </trkpt>
      <trkpt lat="44.12066" lon="7.17919">
        <ele>2497.373</ele>
        <time>2015-06-13T09:35:14Z</time>
      </trkpt>
      <trkpt lat="44.12064" lon="7.1792">
        <ele>2497.103</ele>
        <time>2015-06-13T09:35:19Z</time>
      </trkpt>
      <trkpt lat="44.12065" lon="7.17919">
        <ele>2494.722</ele>
        <time>2015-06-13T09:35:23Z</time>
      </trkpt>
      <trkpt lat="44.12063" lon="7.1792">
        <ele>2491.72</ele>
        <time>2015-06-13T09:35:28Z</time>
      </trkpt>
      <trkpt lat="44.12063" lon="7.17918">
        <ele>2492.853</ele>
        <time>2015-06-13T09:35:35Z</time>
      </trkpt>
      <trkpt lat="44.12063" lon="7.17929">
        <ele>2494.284</ele>
        <time>2015-06-13T09:35:42Z</time>
      </trkpt>
      <trkpt lat="44.12061" lon="7.17939">
        <ele>2496.416</ele>
        <time>2015-06-13T09:35:51Z</time>
      </trkpt>
      <trkpt lat="44.12059" lon="7.17944">
        <ele>2495.103</ele>
        <time>2015-06-13T09:36:01Z</time>
      </trkpt>
      <trkpt lat="44.12057" lon="7.17951">
        <ele>2496.874</ele>
        <time>2015-06-13T09:36:08Z</time>
      </trkpt>
      <trkpt lat="44.12055" lon="7.17962">
        <ele>2504.398</ele>
        <time>2015-06-13T09:36:17Z</time>
      </trkpt>
      <trkpt lat="44.12053" lon="7.17971">
        <ele>2508.106</ele>
        <time>2015-06-13T09:36:26Z</time>
      </trkpt>
      <trkpt lat="44.12052" lon="7.17977">
        <ele>2507.514</ele>
        <time>2015-06-13T09:36:34Z</time>
      </trkpt>
      <trkpt lat="44.12054" lon="7.17982">
        <ele>2504.312</ele>
        <time>2015-06-13T09:36:41Z</time>
      </trkpt>
      <trkpt lat="44.12054" lon="7.17991">
        <ele>2505.433</ele>
        <time>2015-06-13T09:36:49Z</time>
      </trkpt>
      <trkpt lat="44.12053" lon="7.17994">
        <ele>2505.303</ele>
        <time>2015-06-13T09:36:54Z</time>
      </trkpt>
      <trkpt lat="44.12054" lon="7.18005">
        <ele>2508.604</ele>
        <time>2015-06-13T09:37:02Z</time>
      </trkpt>
      <trkpt lat="44.12053" lon="7.18014">
        <ele>2510.125</ele>
        <time>2015-06-13T09:37:10Z</time>
      </trkpt>
      <trkpt lat="44.12053" lon="7.1802">
        <ele>2508.193</ele>
        <time>2015-06-13T09:37:17Z</time>
      </trkpt>
      <trkpt lat="44.12049" lon="7.18026">
        <ele>2504.182</ele>
        <time>2015-06-13T09:37:26Z</time>
      </trkpt>
      <trkpt lat="44.1205" lon="7.18035">
        <ele>2505.173</ele>
        <time>2015-06-13T09:37:34Z</time>
      </trkpt>
      <trkpt lat="44.12049" lon="7.18042">
        <ele>2507.704</ele>
        <time>2015-06-13T09:37:41Z</time>
      </trkpt>
      <trkpt lat="44.12048" lon="7.1805">
        <ele>2508.383</ele>
        <time>2015-06-13T09:37:49Z</time>
      </trkpt>
      <trkpt lat="44.1205" lon="7.18056">
        <ele>2507.552</ele>
        <time>2015-06-13T09:37:56Z</time>
      </trkpt>
      <trkpt lat="44.12049" lon="7.1806">
        <ele>2507.863</ele>
        <time>2015-06-13T09:38:01Z</time>
      </trkpt>
      <trkpt lat="44.12048" lon="7.18064">
        <ele>2510.435</ele>
        <time>2015-06-13T09:38:07Z</time>
      </trkpt>
      <trkpt lat="44.12047" lon="7.18067">
        <ele>2507.432</ele>
        <time>2015-06-13T09:38:11Z</time>
      </trkpt>
      <trkpt lat="44.12043" lon="7.18071">
        <ele>2507.142</ele>
        <time>2015-06-13T09:38:18Z</time>
      </trkpt>
      <trkpt lat="44.12042" lon="7.18074">
        <ele>2508.293</ele>
        <time>2015-06-13T09:38:23Z</time>
      </trkpt>
      <trkpt lat="44.12042" lon="7.18083">
        <ele>2508.813</ele>
        <time>2015-06-13T09:38:30Z</time>
      </trkpt>
      <trkpt lat="44.1204" lon="7.18091">
        <ele>2512.444</ele>
        <time>2015-06-13T09:38:38Z</time>
      </trkpt>
      <trkpt lat="44.12039" lon="7.18095">
        <ele>2516.345</ele>
        <time>2015-06-13T09:38:42Z</time>
      </trkpt>
      <trkpt lat="44.12037" lon="7.18102">
        <ele>2519.236</ele>
        <time>2015-06-13T09:38:51Z</time>
      </trkpt>
      <trkpt lat="44.12038" lon="7.18106">
        <ele>2521.957</ele>
        <time>2015-06-13T09:38:57Z</time>
      </trkpt>
      <trkpt lat="44.12035" lon="7.18109">
        <ele>2523.586</ele>
        <time>2015-06-13T09:39:03Z</time>
      </trkpt>
      <trkpt lat="44.12034" lon="7.18121">
        <ele>2524.434</ele>
        <time>2015-06-13T09:39:19Z</time>
      </trkpt>
      <trkpt lat="44.12034" lon="7.18128">
        <ele>2523.854</ele>
        <time>2015-06-13T09:39:25Z</time>
      </trkpt>
      <trkpt lat="44.12038" lon="7.18135">
        <ele>2522.883</ele>
        <time>2015-06-13T09:39:33Z</time>
      </trkpt>
      <trkpt lat="44.12042" lon="7.18135">
        <ele>2522.353</ele>
        <time>2015-06-13T09:39:40Z</time>
      </trkpt>
      <trkpt lat="44.12044" lon="7.18139">
        <ele>2522.704</ele>
        <time>2015-06-13T09:39:47Z</time>
      </trkpt>
      <trkpt lat="44.12046" lon="7.18144">
        <ele>2523.884</ele>
        <time>2015-06-13T09:39:53Z</time>
      </trkpt>
      <trkpt lat="44.1205" lon="7.18149">
        <ele>2525.604</ele>
        <time>2015-06-13T09:40:01Z</time>
      </trkpt>
      <trkpt lat="44.12053" lon="7.18156">
        <ele>2525.923</ele>
        <time>2015-06-13T09:40:09Z</time>
      </trkpt>
      <trkpt lat="44.12054" lon="7.1816">
        <ele>2524.933</ele>
        <time>2015-06-13T09:40:16Z</time>
      </trkpt>
      <trkpt lat="44.12053" lon="7.18168">
        <ele>2526.624</ele>
        <time>2015-06-13T09:40:24Z</time>
      </trkpt>
      <trkpt lat="44.12052" lon="7.18174">
        <ele>2526.162</ele>
        <time>2015-06-13T09:40:32Z</time>
      </trkpt>
      <trkpt lat="44.12051" lon="7.18176">
        <ele>2522.442</ele>
        <time>2015-06-13T09:40:38Z</time>
      </trkpt>
      <trkpt lat="44.12052" lon="7.1818">
        <ele>2523.523</ele>
        <time>2015-06-13T09:40:44Z</time>
      </trkpt>
      <trkpt lat="44.12051" lon="7.18189">
        <ele>2527.035</ele>
        <time>2015-06-13T09:40:51Z</time>
      </trkpt>
      <trkpt lat="44.12051" lon="7.1819">
        <ele>2527.905</ele>
        <time>2015-06-13T09:40:52Z</time>
      </trkpt>
      <trkpt lat="44.12053" lon="7.18196">
        <ele>2528.124</ele>
        <time>2015-06-13T09:40:57Z</time>
      </trkpt>
      <trkpt lat="44.12055" lon="7.18206">
        <ele>2528.844</ele>
        <time>2015-06-13T09:41:05Z</time>
      </trkpt>
      <trkpt lat="44.12056" lon="7.18213">
        <ele>2525.391</ele>
        <time>2015-06-13T09:41:12Z</time>
      </trkpt>
      <trkpt lat="44.12058" lon="7.18227">
        <ele>2522.822</ele>
        <time>2015-06-13T09:41:21Z</time>
      </trkpt>
      <trkpt lat="44.12059" lon="7.18235">
        <ele>2523.692</ele>
        <time>2015-06-13T09:41:27Z</time>
      </trkpt>
      <trkpt lat="44.1206" lon="7.18248">
        <ele>2524.843</ele>
        <time>2015-06-13T09:41:35Z</time>
      </trkpt>
      <trkpt lat="44.1206" lon="7.1825">
        <ele>2525.213</ele>
        <time>2015-06-13T09:41:36Z</time>
      </trkpt>
      <trkpt lat="44.12062" lon="7.18267">
        <ele>2525.202</ele>
        <time>2015-06-13T09:41:46Z</time>
      </trkpt>
      <trkpt lat="44.12064" lon="7.18277">
        <ele>2524.873</ele>
        <time>2015-06-13T09:41:54Z</time>
      </trkpt>
      <trkpt lat="44.12064" lon="7.18285">
        <ele>2526.104</ele>
        <time>2015-06-13T09:42:00Z</time>
      </trkpt>
      <trkpt lat="44.12063" lon="7.18296">
        <ele>2526.775</ele>
        <time>2015-06-13T09:42:08Z</time>
      </trkpt>
      <trkpt lat="44.12063" lon="7.18299">
        <ele>2527.064</ele>
        <time>2015-06-13T09:42:13Z</time>
      </trkpt>
      <trkpt lat="44.12064" lon="7.183">
        <ele>2527.014</ele>
        <time>2015-06-13T09:42:14Z</time>
      </trkpt>
      <trkpt lat="44.12066" lon="7.18307">
        <ele>2524.663</ele>
        <time>2015-06-13T09:42:20Z</time>
      </trkpt>
      <trkpt lat="44.12068" lon="7.18313">
        <ele>2525.873</ele>
        <time>2015-06-13T09:42:28Z</time>
      </trkpt>
      <trkpt lat="44.1207" lon="7.18315">
        <ele>2525.113</ele>
        <time>2015-06-13T09:42:32Z</time>
      </trkpt>
      <trkpt lat="44.12072" lon="7.18327">
        <ele>2524.943</ele>
        <time>2015-06-13T09:42:40Z</time>
      </trkpt>
      <trkpt lat="44.12074" lon="7.18337">
        <ele>2525.976</ele>
        <time>2015-06-13T09:42:48Z</time>
      </trkpt>
      <trkpt lat="44.12072" lon="7.1834">
        <ele>2524.394</ele>
        <time>2015-06-13T09:42:54Z</time>
      </trkpt>
      <trkpt lat="44.12072" lon="7.1835">
        <ele>2525.095</ele>
        <time>2015-06-13T09:43:01Z</time>
      </trkpt>
      <trkpt lat="44.12073" lon="7.18352">
        <ele>2524.094</ele>
        <time>2015-06-13T09:43:03Z</time>
      </trkpt>
      <trkpt lat="44.12072" lon="7.18357">
        <ele>2523.514</ele>
        <time>2015-06-13T09:43:07Z</time>
      </trkpt>
      <trkpt lat="44.12071" lon="7.1836">
        <ele>2523.644</ele>
        <time>2015-06-13T09:43:15Z</time>
      </trkpt>
      <trkpt lat="44.12072" lon="7.18362">
        <ele>2524.734</ele>
        <time>2015-06-13T09:43:27Z</time>
      </trkpt>
      <trkpt lat="44.12073" lon="7.18364">
        <ele>2523.864</ele>
        <time>2015-06-13T09:43:30Z</time>
      </trkpt>
      <trkpt lat="44.12068" lon="7.18371">
        <ele>2519.342</ele>
        <time>2015-06-13T09:43:37Z</time>
      </trkpt>
      <trkpt lat="44.12068" lon="7.18373">
        <ele>2518.082</ele>
        <time>2015-06-13T09:43:40Z</time>
      </trkpt>
      <trkpt lat="44.12067" lon="7.18384">
        <ele>2518.112</ele>
        <time>2015-06-13T09:43:48Z</time>
      </trkpt>
      <trkpt lat="44.12068" lon="7.18396">
        <ele>2518.714</ele>
        <time>2015-06-13T09:43:56Z</time>
      </trkpt>
      <trkpt lat="44.12067" lon="7.18398">
        <ele>2518.563</ele>
        <time>2015-06-13T09:44:02Z</time>
      </trkpt>
      <trkpt lat="44.12062" lon="7.18396">
        <ele>2518.654</ele>
        <time>2015-06-13T09:44:19Z</time>
      </trkpt>
      <trkpt lat="44.12059" lon="7.18399">
        <ele>2517.063</ele>
        <time>2015-06-13T09:44:26Z</time>
      </trkpt>
      <trkpt lat="44.12058" lon="7.18407">
        <ele>2513.223</ele>
        <time>2015-06-13T09:44:42Z</time>
      </trkpt>
      <trkpt lat="44.12057" lon="7.1841">
        <ele>2513.064</ele>
        <time>2015-06-13T09:44:44Z</time>
      </trkpt>
      <trkpt lat="44.12057" lon="7.18412">
        <ele>2512.304</ele>
        <time>2015-06-13T09:44:47Z</time>
      </trkpt>
      <trkpt lat="44.12058" lon="7.18421">
        <ele>2515.946</ele>
        <time>2015-06-13T09:44:54Z</time>
      </trkpt>
      <trkpt lat="44.12057" lon="7.18423">
        <ele>2515.165</ele>
        <time>2015-06-13T09:44:57Z</time>
      </trkpt>
      <trkpt lat="44.12057" lon="7.1843">
        <ele>2517.266</ele>
        <time>2015-06-13T09:45:04Z</time>
      </trkpt>
      <trkpt lat="44.12055" lon="7.18433">
        <ele>2517.805</ele>
        <time>2015-06-13T09:45:10Z</time>
      </trkpt>
      <trkpt lat="44.12051" lon="7.18434">
        <ele>2515.054</ele>
        <time>2015-06-13T09:45:16Z</time>
      </trkpt>
      <trkpt lat="44.1205" lon="7.18436">
        <ele>2513.003</ele>
        <time>2015-06-13T09:45:22Z</time>
      </trkpt>
      <trkpt lat="44.12051" lon="7.18442">
        <ele>2510.883</ele>
        <time>2015-06-13T09:45:29Z</time>
      </trkpt>
      <trkpt lat="44.12051" lon="7.18443">
        <ele>2511.003</ele>
        <time>2015-06-13T09:45:30Z</time>
      </trkpt>
      <trkpt lat="44.1205" lon="7.18445">
        <ele>2508.041</ele>
        <time>2015-06-13T09:45:35Z</time>
      </trkpt>
      <trkpt lat="44.12044" lon="7.18442">
        <ele>2506.122</ele>
        <time>2015-06-13T09:45:44Z</time>
      </trkpt>
      <trkpt lat="44.12038" lon="7.18443">
        <ele>2506.004</ele>
        <time>2015-06-13T09:45:52Z</time>
      </trkpt>
      <trkpt lat="44.12035" lon="7.18446">
        <ele>2506.404</ele>
        <time>2015-06-13T09:45:58Z</time>
      </trkpt>
      <trkpt lat="44.12033" lon="7.18449">
        <ele>2504.433</ele>
        <time>2015-06-13T09:46:01Z</time>
      </trkpt>
      <trkpt lat="44.12033" lon="7.18461">
        <ele>2506.945</ele>
        <time>2015-06-13T09:46:09Z</time>
      </trkpt>
      <trkpt lat="44.12032" lon="7.18467">
        <ele>2505.994</ele>
        <time>2015-06-13T09:46:14Z</time>
      </trkpt>
      <trkpt lat="44.1203" lon="7.18472">
        <ele>2502.802</ele>
        <time>2015-06-13T09:46:21Z</time>
      </trkpt>
      <trkpt lat="44.12031" lon="7.18481">
        <ele>2500.284</ele>
        <time>2015-06-13T09:46:35Z</time>
      </trkpt>
      <trkpt lat="44.12032" lon="7.18482">
        <ele>2493.33</ele>
        <time>2015-06-13T09:46:41Z</time>
      </trkpt>
      <trkpt lat="44.12031" lon="7.18489">
        <ele>2493.323</ele>
        <time>2015-06-13T09:46:45Z</time>
      </trkpt>
      <trkpt lat="44.12032" lon="7.18493">
        <ele>2490.662</ele>
        <time>2015-06-13T09:46:50Z</time>
      </trkpt>
      <trkpt lat="44.12033" lon="7.18497">
        <ele>2489.412</ele>
        <time>2015-06-13T09:46:55Z</time>
      </trkpt>
      <trkpt lat="44.12033" lon="7.18505">
        <ele>2488.733</ele>
        <time>2015-06-13T09:47:02Z</time>
      </trkpt>
      <trkpt lat="44.12033" lon="7.1851">
        <ele>2488.764</ele>
        <time>2015-06-13T09:47:08Z</time>
      </trkpt>
      <trkpt lat="44.12032" lon="7.18514">
        <ele>2486.283</ele>
        <time>2015-06-13T09:47:16Z</time>
      </trkpt>
      <trkpt lat="44.12033" lon="7.18518">
        <ele>2484.276</ele>
        <time>2015-06-13T09:47:21Z</time>
      </trkpt>
      <trkpt lat="44.12034" lon="7.18533">
        <ele>2482.833</ele>
        <time>2015-06-13T09:47:30Z</time>
      </trkpt>
      <trkpt lat="44.12034" lon="7.18538">
        <ele>2482.063</ele>
        <time>2015-06-13T09:47:35Z</time>
      </trkpt>
      <trkpt lat="44.12038" lon="7.18535">
        <ele>2485.776</ele>
        <time>2015-06-13T09:47:40Z</time>
      </trkpt>
      <trkpt lat="44.12036" lon="7.18538">
        <ele>2469.631</ele>
        <time>2015-06-13T09:48:07Z</time>
      </trkpt>
      <trkpt lat="44.12033" lon="7.1854">
        <ele>2464.823</ele>
        <time>2015-06-13T09:48:19Z</time>
      </trkpt>
      <trkpt lat="44.12032" lon="7.18548">
        <ele>2475.065</ele>
        <time>2015-06-13T09:49:40Z</time>
      </trkpt>
      <trkpt lat="44.12034" lon="7.18551">
        <ele>2474.384</ele>
        <time>2015-06-13T09:49:47Z</time>
      </trkpt>
      <trkpt lat="44.12035" lon="7.18562">
        <ele>2477.496</ele>
        <time>2015-06-13T09:49:54Z</time>
      </trkpt>
      <trkpt lat="44.12035" lon="7.18571">
        <ele>2476.004</ele>
        <time>2015-06-13T09:50:01Z</time>
      </trkpt>
      <trkpt lat="44.12035" lon="7.18585">
        <ele>2474.575</ele>
        <time>2015-06-13T09:50:09Z</time>
      </trkpt>
      <trkpt lat="44.12036" lon="7.18592">
        <ele>2475.326</ele>
        <time>2015-06-13T09:50:14Z</time>
      </trkpt>
      <trkpt lat="44.12038" lon="7.18604">
        <ele>2476.375</ele>
        <time>2015-06-13T09:50:22Z</time>
      </trkpt>
      <trkpt lat="44.12038" lon="7.18607">
        <ele>2475.364</ele>
        <time>2015-06-13T09:50:24Z</time>
      </trkpt>
      <trkpt lat="44.12038" lon="7.18613">
        <ele>2476.764</ele>
        <time>2015-06-13T09:50:27Z</time>
      </trkpt>
      <trkpt lat="44.12039" lon="7.18618">
        <ele>2475.003</ele>
        <time>2015-06-13T09:50:31Z</time>
      </trkpt>
      <trkpt lat="44.1204" lon="7.18623">
        <ele>2472.653</ele>
        <time>2015-06-13T09:50:38Z</time>
      </trkpt>
      <trkpt lat="44.12041" lon="7.18627">
        <ele>2470.302</ele>
        <time>2015-06-13T09:50:43Z</time>
      </trkpt>
      <trkpt lat="44.12042" lon="7.18634">
        <ele>2472.874</ele>
        <time>2015-06-13T09:50:50Z</time>
      </trkpt>
      <trkpt lat="44.12043" lon="7.18638">
        <ele>2472.924</ele>
        <time>2015-06-13T09:50:55Z</time>
      </trkpt>
      <trkpt lat="44.12045" lon="7.18643">
        <ele>2468.923</ele>
        <time>2015-06-13T09:51:01Z</time>
      </trkpt>
      <trkpt lat="44.12045" lon="7.18647">
        <ele>2468.474</ele>
        <time>2015-06-13T09:51:07Z</time>
      </trkpt>
      <trkpt lat="44.12046" lon="7.18655">
        <ele>2471.216</ele>
        <time>2015-06-13T09:51:16Z</time>
      </trkpt>
      <trkpt lat="44.12047" lon="7.18661">
        <ele>2470.675</ele>
        <time>2015-06-13T09:51:23Z</time>
      </trkpt>
      <trkpt lat="44.12048" lon="7.18668">
        <ele>2474.037</ele>
        <time>2015-06-13T09:51:30Z</time>
      </trkpt>
      <trkpt lat="44.12049" lon="7.18675">
        <ele>2477.598</ele>
        <time>2015-06-13T09:51:37Z</time>
      </trkpt>
      <trkpt lat="44.12052" lon="7.1868">
        <ele>2478.138</ele>
        <time>2015-06-13T09:51:42Z</time>
      </trkpt>
      <trkpt lat="44.12053" lon="7.18691">
        <ele>2484.008</ele>
        <time>2015-06-13T09:51:52Z</time>
      </trkpt>
      <trkpt lat="44.12056" lon="7.18699">
        <ele>2484.886</ele>
        <time>2015-06-13T09:52:00Z</time>
      </trkpt>
      <trkpt lat="44.12059" lon="7.18703">
        <ele>2479.382</ele>
        <time>2015-06-13T09:52:06Z</time>
      </trkpt>
      <trkpt lat="44.12063" lon="7.18711">
        <ele>2476.693</ele>
        <time>2015-06-13T09:52:14Z</time>
      </trkpt>
      <trkpt lat="44.12064" lon="7.18716">
        <ele>2478.366</ele>
        <time>2015-06-13T09:52:22Z</time>
      </trkpt>
      <trkpt lat="44.12066" lon="7.18719">
        <ele>2476.174</ele>
        <time>2015-06-13T09:52:28Z</time>
      </trkpt>
      <trkpt lat="44.12069" lon="7.18725">
        <ele>2480.395</ele>
        <time>2015-06-13T09:52:44Z</time>
      </trkpt>
      <trkpt lat="44.12071" lon="7.18732">
        <ele>2480.641</ele>
        <time>2015-06-13T09:52:52Z</time>
      </trkpt>
      <trkpt lat="44.12074" lon="7.1874">
        <ele>2482.726</ele>
        <time>2015-06-13T09:52:59Z</time>
      </trkpt>
      <trkpt lat="44.12075" lon="7.18748">
        <ele>2480.634</ele>
        <time>2015-06-13T09:53:07Z</time>
      </trkpt>
      <trkpt lat="44.12077" lon="7.18752">
        <ele>2478.393</ele>
        <time>2015-06-13T09:53:14Z</time>
      </trkpt>
      <trkpt lat="44.12076" lon="7.18755">
        <ele>2480.785</ele>
        <time>2015-06-13T09:53:21Z</time>
      </trkpt>
      <trkpt lat="44.12077" lon="7.1876">
        <ele>2484.997</ele>
        <time>2015-06-13T09:53:26Z</time>
      </trkpt>
      <trkpt lat="44.12079" lon="7.18766">
        <ele>2488.587</ele>
        <time>2015-06-13T09:53:33Z</time>
      </trkpt>
      <trkpt lat="44.12082" lon="7.18771">
        <ele>2488.386</ele>
        <time>2015-06-13T09:53:40Z</time>
      </trkpt>
      <trkpt lat="44.12084" lon="7.18782">
        <ele>2491.527</ele>
        <time>2015-06-13T09:53:50Z</time>
      </trkpt>
      <trkpt lat="44.12085" lon="7.18784">
        <ele>2492.267</ele>
        <time>2015-06-13T09:53:55Z</time>
      </trkpt>
      <trkpt lat="44.12086" lon="7.18787">
        <ele>2492.835</ele>
        <time>2015-06-13T09:54:00Z</time>
      </trkpt>
      <trkpt lat="44.12088" lon="7.1879">
        <ele>2493.447</ele>
        <time>2015-06-13T09:54:06Z</time>
      </trkpt>
      <trkpt lat="44.12088" lon="7.18793">
        <ele>2495.167</ele>
        <time>2015-06-13T09:54:09Z</time>
      </trkpt>
      <trkpt lat="44.12088" lon="7.18802">
        <ele>2497.036</ele>
        <time>2015-06-13T09:54:16Z</time>
      </trkpt>
      <trkpt lat="44.12089" lon="7.18811">
        <ele>2500.716</ele>
        <time>2015-06-13T09:54:26Z</time>
      </trkpt>
      <trkpt lat="44.1209" lon="7.18816">
        <ele>2499.775</ele>
        <time>2015-06-13T09:54:34Z</time>
      </trkpt>
      <trkpt lat="44.12092" lon="7.18817">
        <ele>2493.394</ele>
        <time>2015-06-13T09:54:45Z</time>
      </trkpt>
      <trkpt lat="44.12093" lon="7.18819">
        <ele>2492.045</ele>
        <time>2015-06-13T09:55:12Z</time>
      </trkpt>
      <trkpt lat="44.12093" lon="7.18824">
        <ele>2495.346</ele>
        <time>2015-06-13T09:55:19Z</time>
      </trkpt>
      <trkpt lat="44.12094" lon="7.1883">
        <ele>2498.687</ele>
        <time>2015-06-13T09:55:26Z</time>
      </trkpt>
      <trkpt lat="44.12093" lon="7.18836">
        <ele>2501.757</ele>
        <time>2015-06-13T09:55:35Z</time>
      </trkpt>
      <trkpt lat="44.12094" lon="7.1884">
        <ele>2502.676</ele>
        <time>2015-06-13T09:55:40Z</time>
      </trkpt>
      <trkpt lat="44.12094" lon="7.18847">
        <ele>2505.636</ele>
        <time>2015-06-13T09:55:47Z</time>
      </trkpt>
      <trkpt lat="44.12094" lon="7.18853">
        <ele>2504.435</ele>
        <time>2015-06-13T09:55:52Z</time>
      </trkpt>
      <trkpt lat="44.12094" lon="7.18865">
        <ele>2507.445</ele>
        <time>2015-06-13T09:56:01Z</time>
      </trkpt>
      <trkpt lat="44.12094" lon="7.1887">
        <ele>2511.645</ele>
        <time>2015-06-13T09:56:07Z</time>
      </trkpt>
      <trkpt lat="44.12093" lon="7.18876">
        <ele>2514.127</ele>
        <time>2015-06-13T09:56:13Z</time>
      </trkpt>
      <trkpt lat="44.12093" lon="7.18879">
        <ele>2515.976</ele>
        <time>2015-06-13T09:56:16Z</time>
      </trkpt>
      <trkpt lat="44.12092" lon="7.18886">
        <ele>2513.854</ele>
        <time>2015-06-13T09:56:23Z</time>
      </trkpt>
      <trkpt lat="44.12093" lon="7.1889">
        <ele>2513.445</ele>
        <time>2015-06-13T09:56:30Z</time>
      </trkpt>
      <trkpt lat="44.1209" lon="7.1889">
        <ele>2518.747</ele>
        <time>2015-06-13T09:56:36Z</time>
      </trkpt>
      <trkpt lat="44.12088" lon="7.18895">
        <ele>2518.775</ele>
        <time>2015-06-13T09:56:43Z</time>
      </trkpt>
      <trkpt lat="44.12088" lon="7.18903">
        <ele>2517.976</ele>
        <time>2015-06-13T09:56:51Z</time>
      </trkpt>
      <trkpt lat="44.12087" lon="7.18908">
        <ele>2514.403</ele>
        <time>2015-06-13T09:56:57Z</time>
      </trkpt>
      <trkpt lat="44.12086" lon="7.18913">
        <ele>2517.256</ele>
        <time>2015-06-13T09:57:03Z</time>
      </trkpt>
      <trkpt lat="44.12087" lon="7.18917">
        <ele>2517.025</ele>
        <time>2015-06-13T09:57:08Z</time>
      </trkpt>
      <trkpt lat="44.12087" lon="7.18923">
        <ele>2517.705</ele>
        <time>2015-06-13T09:57:14Z</time>
      </trkpt>
      <trkpt lat="44.12087" lon="7.18924">
        <ele>2516.654</ele>
        <time>2015-06-13T09:57:20Z</time>
      </trkpt>
      <trkpt lat="44.12088" lon="7.18925">
        <ele>2515.333</ele>
        <time>2015-06-13T09:57:23Z</time>
      </trkpt>
      <trkpt lat="44.12088" lon="7.18937">
        <ele>2516.425</ele>
        <time>2015-06-13T09:57:31Z</time>
      </trkpt>
      <trkpt lat="44.12088" lon="7.18943">
        <ele>2518.615</ele>
        <time>2015-06-13T09:57:37Z</time>
      </trkpt>
      <trkpt lat="44.12087" lon="7.18948">
        <ele>2520.917</ele>
        <time>2015-06-13T09:57:43Z</time>
      </trkpt>
      <trkpt lat="44.12087" lon="7.18953">
        <ele>2521.386</ele>
        <time>2015-06-13T09:57:50Z</time>
      </trkpt>
      <trkpt lat="44.12087" lon="7.18957">
        <ele>2522.066</ele>
        <time>2015-06-13T09:57:56Z</time>
      </trkpt>
      <trkpt lat="44.12085" lon="7.18965">
        <ele>2524.367</ele>
        <time>2015-06-13T09:58:03Z</time>
      </trkpt>
      <trkpt lat="44.12084" lon="7.18971">
        <ele>2525.536</ele>
        <time>2015-06-13T09:58:09Z</time>
      </trkpt>
      <trkpt lat="44.12082" lon="7.18983">
        <ele>2524.444</ele>
        <time>2015-06-13T09:58:17Z</time>
      </trkpt>
      <trkpt lat="44.12082" lon="7.18992">
        <ele>2522.578</ele>
        <time>2015-06-13T09:58:24Z</time>
      </trkpt>
      <trkpt lat="44.12082" lon="7.18993">
        <ele>2523.353</ele>
        <time>2015-06-13T09:58:25Z</time>
      </trkpt>
      <trkpt lat="44.12083" lon="7.19005">
        <ele>2525.063</ele>
        <time>2015-06-13T09:58:32Z</time>
      </trkpt>
      <trkpt lat="44.12082" lon="7.19011">
        <ele>2527.446</ele>
        <time>2015-06-13T09:58:39Z</time>
      </trkpt>
      <trkpt lat="44.12081" lon="7.19016">
        <ele>2527.756</ele>
        <time>2015-06-13T09:58:45Z</time>
      </trkpt>
      <trkpt lat="44.1208" lon="7.19026">
        <ele>2532.857</ele>
        <time>2015-06-13T09:58:52Z</time>
      </trkpt>
      <trkpt lat="44.12079" lon="7.19035">
        <ele>2533.416</ele>
        <time>2015-06-13T09:59:00Z</time>
      </trkpt>
      <trkpt lat="44.12079" lon="7.19044">
        <ele>2527.742</ele>
        <time>2015-06-13T09:59:06Z</time>
      </trkpt>
      <trkpt lat="44.1208" lon="7.19051">
        <ele>2525.552</ele>
        <time>2015-06-13T09:59:11Z</time>
      </trkpt>
      <trkpt lat="44.1208" lon="7.19061">
        <ele>2524.571</ele>
        <time>2015-06-13T09:59:19Z</time>
      </trkpt>
      <trkpt lat="44.12078" lon="7.19071">
        <ele>2523.963</ele>
        <time>2015-06-13T09:59:26Z</time>
      </trkpt>
      <trkpt lat="44.12076" lon="7.19074">
        <ele>2526.104</ele>
        <time>2015-06-13T09:59:29Z</time>
      </trkpt>
      <trkpt lat="44.12076" lon="7.1908">
        <ele>2527.665</ele>
        <time>2015-06-13T09:59:35Z</time>
      </trkpt>
      <trkpt lat="44.12075" lon="7.1909">
        <ele>2528.774</ele>
        <time>2015-06-13T09:59:43Z</time>
      </trkpt>
      <trkpt lat="44.12075" lon="7.19097">
        <ele>2525.442</ele>
        <time>2015-06-13T09:59:49Z</time>
      </trkpt>
      <trkpt lat="44.12074" lon="7.19097">
        <ele>2518.814</ele>
        <time>2015-06-13T10:00:00Z</time>
      </trkpt>
      <trkpt lat="44.12076" lon="7.19102">
        <ele>2534.468</ele>
        <time>2015-06-13T10:00:50Z</time>
      </trkpt>
      <trkpt lat="44.12073" lon="7.19104">
        <ele>2527.605</ele>
        <time>2015-06-13T10:01:11Z</time>
      </trkpt>
      <trkpt lat="44.12073" lon="7.19107">
        <ele>2527.384</ele>
        <time>2015-06-13T10:01:18Z</time>
      </trkpt>
      <trkpt lat="44.12075" lon="7.19112">
        <ele>2525.293</ele>
        <time>2015-06-13T10:01:25Z</time>
      </trkpt>
      <trkpt lat="44.12074" lon="7.19119">
        <ele>2518.502</ele>
        <time>2015-06-13T10:01:41Z</time>
      </trkpt>
      <trkpt lat="44.12073" lon="7.19121">
        <ele>2514.192</ele>
        <time>2015-06-13T10:01:47Z</time>
      </trkpt>
      <trkpt lat="44.12072" lon="7.19124">
        <ele>2511.882</ele>
        <time>2015-06-13T10:01:52Z</time>
      </trkpt>
      <trkpt lat="44.12069" lon="7.19131">
        <ele>2511.094</ele>
        <time>2015-06-13T10:02:01Z</time>
      </trkpt>
      <trkpt lat="44.12065" lon="7.19138">
        <ele>2513.655</ele>
        <time>2015-06-13T10:02:09Z</time>
      </trkpt>
      <trkpt lat="44.12063" lon="7.19144">
        <ele>2509.863</ele>
        <time>2015-06-13T10:02:16Z</time>
      </trkpt>
      <trkpt lat="44.1206" lon="7.19147">
        <ele>2511.145</ele>
        <time>2015-06-13T10:02:20Z</time>
      </trkpt>
      <trkpt lat="44.12054" lon="7.19155">
        <ele>2512.416</ele>
        <time>2015-06-13T10:02:29Z</time>
      </trkpt>
      <trkpt lat="44.1205" lon="7.19162">
        <ele>2511.094</ele>
        <time>2015-06-13T10:02:37Z</time>
      </trkpt>
      <trkpt lat="44.12044" lon="7.19168">
        <ele>2508.384</ele>
        <time>2015-06-13T10:02:45Z</time>
      </trkpt>
      <trkpt lat="44.12041" lon="7.19174">
        <ele>2509.386</ele>
        <time>2015-06-13T10:02:52Z</time>
      </trkpt>
      <trkpt lat="44.1204" lon="7.19176">
        <ele>2510.317</ele>
        <time>2015-06-13T10:02:57Z</time>
      </trkpt>
      <trkpt lat="44.12036" lon="7.19176">
        <ele>2509.962</ele>
        <time>2015-06-13T10:03:26Z</time>
      </trkpt>
      <trkpt lat="44.12036" lon="7.19182">
        <ele>2510.491</ele>
        <time>2015-06-13T10:03:32Z</time>
      </trkpt>
      <trkpt lat="44.12034" lon="7.19189">
        <ele>2508.465</ele>
        <time>2015-06-13T10:03:39Z</time>
      </trkpt>
      <trkpt lat="44.12033" lon="7.1919">
        <ele>2507.414</ele>
        <time>2015-06-13T10:03:41Z</time>
      </trkpt>
      <trkpt lat="44.12032" lon="7.19192">
        <ele>2507.024</ele>
        <time>2015-06-13T10:03:43Z</time>
      </trkpt>
      <trkpt lat="44.12031" lon="7.19203">
        <ele>2502.983</ele>
        <time>2015-06-13T10:03:51Z</time>
      </trkpt>
      <trkpt lat="44.1203" lon="7.1921">
        <ele>2499.643</ele>
        <time>2015-06-13T10:03:59Z</time>
      </trkpt>
      <trkpt lat="44.12029" lon="7.19217">
        <ele>2499.815</ele>
        <time>2015-06-13T10:04:05Z</time>
      </trkpt>
      <trkpt lat="44.12032" lon="7.19224">
        <ele>2498.185</ele>
        <time>2015-06-13T10:04:12Z</time>
      </trkpt>
      <trkpt lat="44.12032" lon="7.19229">
        <ele>2496.493</ele>
        <time>2015-06-13T10:04:15Z</time>
      </trkpt>
      <trkpt lat="44.12029" lon="7.19242">
        <ele>2495.304</ele>
        <time>2015-06-13T10:04:23Z</time>
      </trkpt>
      <trkpt lat="44.12023" lon="7.19252">
        <ele>2497.466</ele>
        <time>2015-06-13T10:04:31Z</time>
      </trkpt>
      <trkpt lat="44.12016" lon="7.1926">
        <ele>2497.996</ele>
        <time>2015-06-13T10:04:39Z</time>
      </trkpt>
      <trkpt lat="44.12011" lon="7.19269">
        <ele>2493.683</ele>
        <time>2015-06-13T10:04:47Z</time>
      </trkpt>
      <trkpt lat="44.12008" lon="7.19274">
        <ele>2492.164</ele>
        <time>2015-06-13T10:04:53Z</time>
      </trkpt>
      <trkpt lat="44.1201" lon="7.19273">
        <ele>2486.384</ele>
        <time>2015-06-13T10:05:03Z</time>
      </trkpt>
      <trkpt lat="44.12006" lon="7.19279">
        <ele>2487.095</ele>
        <time>2015-06-13T10:05:08Z</time>
      </trkpt>
      <trkpt lat="44.12" lon="7.19293">
        <ele>2486.024</ele>
        <time>2015-06-13T10:05:15Z</time>
      </trkpt>
      <trkpt lat="44.11996" lon="7.193">
        <ele>2484.973</ele>
        <time>2015-06-13T10:05:19Z</time>
      </trkpt>
      <trkpt lat="44.11995" lon="7.19303">
        <ele>2484.385</ele>
        <time>2015-06-13T10:05:25Z</time>
      </trkpt>
      <trkpt lat="44.11995" lon="7.19303">
        <ele>2484.595</ele>
        <time>2015-06-13T10:05:27Z</time>
      </trkpt>
      <trkpt lat="44.11989" lon="7.19311">
        <ele>2484.395</ele>
        <time>2015-06-13T10:05:35Z</time>
      </trkpt>
      <trkpt lat="44.11985" lon="7.19318">
        <ele>2479.523</ele>
        <time>2015-06-13T10:05:42Z</time>
      </trkpt>
      <trkpt lat="44.11985" lon="7.19318">
        <ele>2475.563</ele>
        <time>2015-06-13T10:05:49Z</time>
      </trkpt>
      <trkpt lat="44.11982" lon="7.19318">
        <ele>2474.814</ele>
        <time>2015-06-13T10:05:55Z</time>
      </trkpt>
      <trkpt lat="44.11978" lon="7.19321">
        <ele>2473.834</ele>
        <time>2015-06-13T10:06:00Z</time>
      </trkpt>
      <trkpt lat="44.11975" lon="7.19323">
        <ele>2474.746</ele>
        <time>2015-06-13T10:06:07Z</time>
      </trkpt>
      <trkpt lat="44.11972" lon="7.19329">
        <ele>2474.025</ele>
        <time>2015-06-13T10:06:13Z</time>
      </trkpt>
      <trkpt lat="44.11966" lon="7.19337">
        <ele>2471.295</ele>
        <time>2015-06-13T10:06:22Z</time>
      </trkpt>
      <trkpt lat="44.11961" lon="7.19343">
        <ele>2471.005</ele>
        <time>2015-06-13T10:06:29Z</time>
      </trkpt>
      <trkpt lat="44.11956" lon="7.19347">
        <ele>2472.237</ele>
        <time>2015-06-13T10:06:37Z</time>
      </trkpt>
      <trkpt lat="44.11956" lon="7.19347">
        <ele>2473.997</ele>
        <time>2015-06-13T10:06:44Z</time>
      </trkpt>
      <trkpt lat="44.11953" lon="7.19348">
        <ele>2474.936</ele>
        <time>2015-06-13T10:06:56Z</time>
      </trkpt>
      <trkpt lat="44.11948" lon="7.19355">
        <ele>2473.895</ele>
        <time>2015-06-13T10:07:03Z</time>
      </trkpt>
      <trkpt lat="44.11943" lon="7.19364">
        <ele>2473.415</ele>
        <time>2015-06-13T10:07:10Z</time>
      </trkpt>
      <trkpt lat="44.11936" lon="7.19373">
        <ele>2476.286</ele>
        <time>2015-06-13T10:07:18Z</time>
      </trkpt>
      <trkpt lat="44.1193" lon="7.19383">
        <ele>2473.405</ele>
        <time>2015-06-13T10:07:27Z</time>
      </trkpt>
      <trkpt lat="44.11931" lon="7.19385">
        <ele>2470.393</ele>
        <time>2015-06-13T10:07:32Z</time>
      </trkpt>
      <trkpt lat="44.11924" lon="7.19387">
        <ele>2470.146</ele>
        <time>2015-06-13T10:07:57Z</time>
      </trkpt>
      <trkpt lat="44.11918" lon="7.19395">
        <ele>2470.846</ele>
        <time>2015-06-13T10:08:05Z</time>
      </trkpt>
      <trkpt lat="44.11915" lon="7.19398">
        <ele>2471.626</ele>
        <time>2015-06-13T10:08:13Z</time>
      </trkpt>
      <trkpt lat="44.1191" lon="7.19405">
        <ele>2473.066</ele>
        <time>2015-06-13T10:08:21Z</time>
      </trkpt>
      <trkpt lat="44.11907" lon="7.19407">
        <ele>2472.105</ele>
        <time>2015-06-13T10:08:24Z</time>
      </trkpt>
      <trkpt lat="44.119" lon="7.19412">
        <ele>2473.238</ele>
        <time>2015-06-13T10:08:32Z</time>
      </trkpt>
      <trkpt lat="44.11892" lon="7.19419">
        <ele>2475.257</ele>
        <time>2015-06-13T10:08:41Z</time>
      </trkpt>
      <trkpt lat="44.11887" lon="7.19424">
        <ele>2478.288</ele>
        <time>2015-06-13T10:08:48Z</time>
      </trkpt>
      <trkpt lat="44.11879" lon="7.19431">
        <ele>2479.968</ele>
        <time>2015-06-13T10:08:56Z</time>
      </trkpt>
      <trkpt lat="44.11871" lon="7.19438">
        <ele>2480.897</ele>
        <time>2015-06-13T10:09:05Z</time>
      </trkpt>
      <trkpt lat="44.11863" lon="7.19446">
        <ele>2479.286</ele>
        <time>2015-06-13T10:09:15Z</time>
      </trkpt>
      <trkpt lat="44.11855" lon="7.19453">
        <ele>2480.345</ele>
        <time>2015-06-13T10:09:24Z</time>
      </trkpt>
      <trkpt lat="44.11848" lon="7.1946">
        <ele>2477.525</ele>
        <time>2015-06-13T10:09:31Z</time>
      </trkpt>
      <trkpt lat="44.11843" lon="7.19466">
        <ele>2476.214</ele>
        <time>2015-06-13T10:09:36Z</time>
      </trkpt>
      <trkpt lat="44.11838" lon="7.19476">
        <ele>2476.045</ele>
        <time>2015-06-13T10:09:43Z</time>
      </trkpt>
      <trkpt lat="44.11838" lon="7.1948">
        <ele>2474.355</ele>
        <time>2015-06-13T10:09:50Z</time>
      </trkpt>
      <trkpt lat="44.11841" lon="7.19479">
        <ele>2472.125</ele>
        <time>2015-06-13T10:10:08Z</time>
      </trkpt>
      <trkpt lat="44.11842" lon="7.1948">
        <ele>2473.546</ele>
        <time>2015-06-13T10:10:21Z</time>
      </trkpt>
      <trkpt lat="44.11841" lon="7.19479">
        <ele>2475.856</ele>
        <time>2015-06-13T10:10:45Z</time>
      </trkpt>
      <trkpt lat="44.11841" lon="7.19481">
        <ele>2472.314</ele>
        <time>2015-06-13T10:10:53Z</time>
      </trkpt>
      <trkpt lat="44.11845" lon="7.19483">
        <ele>2476.035</ele>
        <time>2015-06-13T10:14:26Z</time>
      </trkpt>
      <trkpt lat="44.11852" lon="7.19485">
        <ele>2471.555</ele>
        <time>2015-06-13T10:14:57Z</time>
      </trkpt>
      <trkpt lat="44.11853" lon="7.19484">
        <ele>2472.096</ele>
        <time>2015-06-13T10:15:00Z</time>
      </trkpt>
      <trkpt lat="44.11856" lon="7.19484">
        <ele>2473.167</ele>
        <time>2015-06-13T10:15:05Z</time>
      </trkpt>
      <trkpt lat="44.11858" lon="7.19487">
        <ele>2476.619</ele>
        <time>2015-06-13T10:15:10Z</time>
      </trkpt>
      <trkpt lat="44.1186" lon="7.19493">
        <ele>2478.457</ele>
        <time>2015-06-13T10:15:18Z</time>
      </trkpt>
      <trkpt lat="44.11861" lon="7.19497">
        <ele>2478.387</ele>
        <time>2015-06-13T10:15:22Z</time>
      </trkpt>
      <trkpt lat="44.11864" lon="7.19503">
        <ele>2477.746</ele>
        <time>2015-06-13T10:15:30Z</time>
      </trkpt>
      <trkpt lat="44.11868" lon="7.19509">
        <ele>2478.177</ele>
        <time>2015-06-13T10:15:38Z</time>
      </trkpt>
      <trkpt lat="44.11871" lon="7.19516">
        <ele>2478.617</ele>
        <time>2015-06-13T10:15:45Z</time>
      </trkpt>
      <trkpt lat="44.11872" lon="7.19516">
        <ele>2478.637</ele>
        <time>2015-06-13T10:15:46Z</time>
      </trkpt>
      <trkpt lat="44.11876" lon="7.19522">
        <ele>2480.486</ele>
        <time>2015-06-13T10:15:54Z</time>
      </trkpt>
      <trkpt lat="44.11876" lon="7.19526">
        <ele>2483.498</ele>
        <time>2015-06-13T10:16:00Z</time>
      </trkpt>
      <trkpt lat="44.11878" lon="7.19536">
        <ele>2485.408</ele>
        <time>2015-06-13T10:16:08Z</time>
      </trkpt>
      <trkpt lat="44.11878" lon="7.19545">
        <ele>2485.727</ele>
        <time>2015-06-13T10:16:16Z</time>
      </trkpt>
      <trkpt lat="44.11878" lon="7.19549">
        <ele>2487.908</ele>
        <time>2015-06-13T10:16:22Z</time>
      </trkpt>
      <trkpt lat="44.11881" lon="7.19558">
        <ele>2487.046</ele>
        <time>2015-06-13T10:16:29Z</time>
      </trkpt>
      <trkpt lat="44.11881" lon="7.19563">
        <ele>2489.097</ele>
        <time>2015-06-13T10:16:34Z</time>
      </trkpt>
      <trkpt lat="44.11881" lon="7.19575">
        <ele>2492.418</ele>
        <time>2015-06-13T10:16:44Z</time>
      </trkpt>
      <trkpt lat="44.11882" lon="7.19587">
        <ele>2492.576</ele>
        <time>2015-06-13T10:16:53Z</time>
      </trkpt>
      <trkpt lat="44.11884" lon="7.19595">
        <ele>2494.708</ele>
        <time>2015-06-13T10:17:01Z</time>
      </trkpt>
      <trkpt lat="44.11885" lon="7.19601">
        <ele>2497.177</ele>
        <time>2015-06-13T10:17:08Z</time>
      </trkpt>
      <trkpt lat="44.11886" lon="7.196">
        <ele>2497.046</ele>
        <time>2015-06-13T10:17:11Z</time>
      </trkpt>
      <trkpt lat="44.1189" lon="7.196">
        <ele>2498.157</ele>
        <time>2015-06-13T10:17:18Z</time>
      </trkpt>
      <trkpt lat="44.11892" lon="7.19602">
        <ele>2498.907</ele>
        <time>2015-06-13T10:17:23Z</time>
      </trkpt>
      <trkpt lat="44.11896" lon="7.19603">
        <ele>2499.957</ele>
        <time>2015-06-13T10:17:30Z</time>
      </trkpt>
      <trkpt lat="44.11899" lon="7.19607">
        <ele>2501.238</ele>
        <time>2015-06-13T10:17:36Z</time>
      </trkpt>
      <trkpt lat="44.11902" lon="7.19611">
        <ele>2502.217</ele>
        <time>2015-06-13T10:17:43Z</time>
      </trkpt>
      <trkpt lat="44.11903" lon="7.19624">
        <ele>2500.716</ele>
        <time>2015-06-13T10:17:52Z</time>
      </trkpt>
      <trkpt lat="44.11901" lon="7.19626">
        <ele>2500.596</ele>
        <time>2015-06-13T10:17:59Z</time>
      </trkpt>
      <trkpt lat="44.119" lon="7.19628">
        <ele>2502.535</ele>
        <time>2015-06-13T10:18:23Z</time>
      </trkpt>
      <trkpt lat="44.11902" lon="7.19642">
        <ele>2500.346</ele>
        <time>2015-06-13T10:18:32Z</time>
      </trkpt>
      <trkpt lat="44.11903" lon="7.19652">
        <ele>2498.596</ele>
        <time>2015-06-13T10:18:39Z</time>
      </trkpt>
      <trkpt lat="44.11904" lon="7.19662">
        <ele>2498.297</ele>
        <time>2015-06-13T10:18:45Z</time>
      </trkpt>
      <trkpt lat="44.11904" lon="7.19669">
        <ele>2501.158</ele>
        <time>2015-06-13T10:18:52Z</time>
      </trkpt>
      <trkpt lat="44.11904" lon="7.19671">
        <ele>2500.806</ele>
        <time>2015-06-13T10:18:58Z</time>
      </trkpt>
      <trkpt lat="44.11903" lon="7.19677">
        <ele>2501.417</ele>
        <time>2015-06-13T10:19:10Z</time>
      </trkpt>
      <trkpt lat="44.11904" lon="7.19676">
        <ele>2499.946</ele>
        <time>2015-06-13T10:19:16Z</time>
      </trkpt>
      <trkpt lat="44.11904" lon="7.1967">
        <ele>2500.677</ele>
        <time>2015-06-13T10:19:23Z</time>
      </trkpt>
      <trkpt lat="44.11905" lon="7.19671">
        <ele>2500.665</ele>
        <time>2015-06-13T10:19:29Z</time>
      </trkpt>
      <trkpt lat="44.11906" lon="7.19678">
        <ele>2501.257</ele>
        <time>2015-06-13T10:19:39Z</time>
      </trkpt>
      <trkpt lat="44.11907" lon="7.19691">
        <ele>2499.286</ele>
        <time>2015-06-13T10:19:49Z</time>
      </trkpt>
      <trkpt lat="44.11908" lon="7.19706">
        <ele>2499.258</ele>
        <time>2015-06-13T10:20:00Z</time>
      </trkpt>
      <trkpt lat="44.11908" lon="7.19714">
        <ele>2501.658</ele>
        <time>2015-06-13T10:20:09Z</time>
      </trkpt>
      <trkpt lat="44.1191" lon="7.19721">
        <ele>2502.477</ele>
        <time>2015-06-13T10:20:18Z</time>
      </trkpt>
      <trkpt lat="44.11911" lon="7.19729">
        <ele>2503.258</ele>
        <time>2015-06-13T10:20:26Z</time>
      </trkpt>
      <trkpt lat="44.11913" lon="7.1974">
        <ele>2503.267</ele>
        <time>2015-06-13T10:20:33Z</time>
      </trkpt>
      <trkpt lat="44.11912" lon="7.19749">
        <ele>2503.097</ele>
        <time>2015-06-13T10:20:41Z</time>
      </trkpt>
      <trkpt lat="44.11913" lon="7.19761">
        <ele>2503.017</ele>
        <time>2015-06-13T10:20:50Z</time>
      </trkpt>
      <trkpt lat="44.11913" lon="7.19771">
        <ele>2509.308</ele>
        <time>2015-06-13T10:21:16Z</time>
      </trkpt>
      <trkpt lat="44.11914" lon="7.19779">
        <ele>2510.028</ele>
        <time>2015-06-13T10:21:25Z</time>
      </trkpt>
      <trkpt lat="44.11913" lon="7.19781">
        <ele>2509.827</ele>
        <time>2015-06-13T10:21:28Z</time>
      </trkpt>
      <trkpt lat="44.11913" lon="7.19785">
        <ele>2510.178</ele>
        <time>2015-06-13T10:21:32Z</time>
      </trkpt>
      <trkpt lat="44.11911" lon="7.19795">
        <ele>2513.388</ele>
        <time>2015-06-13T10:21:40Z</time>
      </trkpt>
      <trkpt lat="44.11911" lon="7.19808">
        <ele>2511.907</ele>
        <time>2015-06-13T10:21:48Z</time>
      </trkpt>
      <trkpt lat="44.11909" lon="7.19817">
        <ele>2513.208</ele>
        <time>2015-06-13T10:21:56Z</time>
      </trkpt>
      <trkpt lat="44.11909" lon="7.19822">
        <ele>2514.948</ele>
        <time>2015-06-13T10:22:00Z</time>
      </trkpt>
      <trkpt lat="44.11906" lon="7.19834">
        <ele>2513.536</ele>
        <time>2015-06-13T10:22:09Z</time>
      </trkpt>
      <trkpt lat="44.11904" lon="7.19839">
        <ele>2512.306</ele>
        <time>2015-06-13T10:22:14Z</time>
      </trkpt>
      <trkpt lat="44.11903" lon="7.19844">
        <ele>2511.736</ele>
        <time>2015-06-13T10:22:18Z</time>
      </trkpt>
      <trkpt lat="44.11901" lon="7.19855">
        <ele>2512.206</ele>
        <time>2015-06-13T10:22:25Z</time>
      </trkpt>
      <trkpt lat="44.11898" lon="7.19864">
        <ele>2511.226</ele>
        <time>2015-06-13T10:22:31Z</time>
      </trkpt>
      <trkpt lat="44.11896" lon="7.19868">
        <ele>2511.606</ele>
        <time>2015-06-13T10:22:34Z</time>
      </trkpt>
      <trkpt lat="44.11894" lon="7.19873">
        <ele>2510.075</ele>
        <time>2015-06-13T10:22:41Z</time>
      </trkpt>
      <trkpt lat="44.11893" lon="7.19881">
        <ele>2507.366</ele>
        <time>2015-06-13T10:22:51Z</time>
      </trkpt>
      <trkpt lat="44.11893" lon="7.19887">
        <ele>2509.287</ele>
        <time>2015-06-13T10:22:56Z</time>
      </trkpt>
      <trkpt lat="44.11892" lon="7.19891">
        <ele>2511.918</ele>
        <time>2015-06-13T10:23:02Z</time>
      </trkpt>
      <trkpt lat="44.11892" lon="7.19898">
        <ele>2511.337</ele>
        <time>2015-06-13T10:23:09Z</time>
      </trkpt>
      <trkpt lat="44.11893" lon="7.19907">
        <ele>2506.495</ele>
        <time>2015-06-13T10:23:17Z</time>
      </trkpt>
      <trkpt lat="44.11893" lon="7.19908">
        <ele>2506.605</ele>
        <time>2015-06-13T10:23:18Z</time>
      </trkpt>
      <trkpt lat="44.11894" lon="7.19917">
        <ele>2506.506</ele>
        <time>2015-06-13T10:23:24Z</time>
      </trkpt>
      <trkpt lat="44.11892" lon="7.19925">
        <ele>2509.448</ele>
        <time>2015-06-13T10:23:31Z</time>
      </trkpt>
      <trkpt lat="44.1189" lon="7.19928">
        <ele>2510.647</ele>
        <time>2015-06-13T10:23:38Z</time>
      </trkpt>
      <trkpt lat="44.1189" lon="7.19932">
        <ele>2511.106</ele>
        <time>2015-06-13T10:23:49Z</time>
      </trkpt>
      <trkpt lat="44.11888" lon="7.19934">
        <ele>2511.967</ele>
        <time>2015-06-13T10:23:55Z</time>
      </trkpt>
      <trkpt lat="44.11885" lon="7.19938">
        <ele>2515.118</ele>
        <time>2015-06-13T10:24:08Z</time>
      </trkpt>
      <trkpt lat="44.11884" lon="7.19941">
        <ele>2514.257</ele>
        <time>2015-06-13T10:24:11Z</time>
      </trkpt>
      <trkpt lat="44.11882" lon="7.19947">
        <ele>2511.196</ele>
        <time>2015-06-13T10:24:18Z</time>
      </trkpt>
      <trkpt lat="44.11881" lon="7.19952">
        <ele>2509.806</ele>
        <time>2015-06-13T10:24:24Z</time>
      </trkpt>
      <trkpt lat="44.11879" lon="7.19958">
        <ele>2510.097</ele>
        <time>2015-06-13T10:24:30Z</time>
      </trkpt>
      <trkpt lat="44.11878" lon="7.19962">
        <ele>2509.195</ele>
        <time>2015-06-13T10:24:38Z</time>
      </trkpt>
      <trkpt lat="44.11877" lon="7.19972">
        <ele>2506.726</ele>
        <time>2015-06-13T10:24:46Z</time>
      </trkpt>
      <trkpt lat="44.11876" lon="7.19983">
        <ele>2505.686</ele>
        <time>2015-06-13T10:24:54Z</time>
      </trkpt>
      <trkpt lat="44.11875" lon="7.19989">
        <ele>2505.317</ele>
        <time>2015-06-13T10:25:01Z</time>
      </trkpt>
      <trkpt lat="44.11872" lon="7.19994">
        <ele>2505.988</ele>
        <time>2015-06-13T10:25:06Z</time>
      </trkpt>
      <trkpt lat="44.11872" lon="7.19999">
        <ele>2505.286</ele>
        <time>2015-06-13T10:25:11Z</time>
      </trkpt>
      <trkpt lat="44.11871" lon="7.20008">
        <ele>2502.275</ele>
        <time>2015-06-13T10:25:19Z</time>
      </trkpt>
      <trkpt lat="44.11871" lon="7.20009">
        <ele>2498.345</ele>
        <time>2015-06-13T10:25:30Z</time>
      </trkpt>
      <trkpt lat="44.11871" lon="7.20006">
        <ele>2500.127</ele>
        <time>2015-06-13T10:25:41Z</time>
      </trkpt>
      <trkpt lat="44.11869" lon="7.2">
        <ele>2505.088</ele>
        <time>2015-06-13T10:25:49Z</time>
      </trkpt>
      <trkpt lat="44.11866" lon="7.19997">
        <ele>2506.537</ele>
        <time>2015-06-13T10:25:58Z</time>
      </trkpt>
      <trkpt lat="44.11862" lon="7.19995">
        <ele>2505.856</ele>
        <time>2015-06-13T10:26:15Z</time>
      </trkpt>
      <trkpt lat="44.1186" lon="7.19996">
        <ele>2505.786</ele>
        <time>2015-06-13T10:26:18Z</time>
      </trkpt>
      <trkpt lat="44.11854" lon="7.19999">
        <ele>2503.255</ele>
        <time>2015-06-13T10:26:26Z</time>
      </trkpt>
      <trkpt lat="44.11853" lon="7.19998">
        <ele>2503.676</ele>
        <time>2015-06-13T10:26:29Z</time>
      </trkpt>
      <trkpt lat="44.1185" lon="7.1999">
        <ele>2503.075</ele>
        <time>2015-06-13T10:26:38Z</time>
      </trkpt>
      <trkpt lat="44.11848" lon="7.19983">
        <ele>2502.437</ele>
        <time>2015-06-13T10:26:46Z</time>
      </trkpt>
      <trkpt lat="44.11842" lon="7.19976">
        <ele>2499.476</ele>
        <time>2015-06-13T10:26:54Z</time>
      </trkpt>
      <trkpt lat="44.11839" lon="7.19976">
        <ele>2497.335</ele>
        <time>2015-06-13T10:26:59Z</time>
      </trkpt>
      <trkpt lat="44.11837" lon="7.19969">
        <ele>2494.076</ele>
        <time>2015-06-13T10:27:10Z</time>
      </trkpt>
      <trkpt lat="44.11834" lon="7.19967">
        <ele>2493.276</ele>
        <time>2015-06-13T10:27:13Z</time>
      </trkpt>
      <trkpt lat="44.11833" lon="7.1997">
        <ele>2489.795</ele>
        <time>2015-06-13T10:27:21Z</time>
      </trkpt>
      <trkpt lat="44.1183" lon="7.19974">
        <ele>2485.216</ele>
        <time>2015-06-13T10:27:34Z</time>
      </trkpt>
      <trkpt lat="44.11825" lon="7.19982">
        <ele>2481.696</ele>
        <time>2015-06-13T10:27:42Z</time>
      </trkpt>
      <trkpt lat="44.11822" lon="7.1999">
        <ele>2479.646</ele>
        <time>2015-06-13T10:27:48Z</time>
      </trkpt>
      <trkpt lat="44.11821" lon="7.19994">
        <ele>2479.417</ele>
        <time>2015-06-13T10:27:54Z</time>
      </trkpt>
      <trkpt lat="44.1182" lon="7.19997">
        <ele>2479.157</ele>
        <time>2015-06-13T10:27:57Z</time>
      </trkpt>
      <trkpt lat="44.11814" lon="7.20006">
        <ele>2477.087</ele>
        <time>2015-06-13T10:28:06Z</time>
      </trkpt>
      <trkpt lat="44.11803" lon="7.20007">
        <ele>2479.788</ele>
        <time>2015-06-13T10:28:15Z</time>
      </trkpt>
      <trkpt lat="44.11801" lon="7.20006">
        <ele>2478.626</ele>
        <time>2015-06-13T10:28:20Z</time>
      </trkpt>
      <trkpt lat="44.11797" lon="7.20006">
        <ele>2474.417</ele>
        <time>2015-06-13T10:28:51Z</time>
      </trkpt>
      <trkpt lat="44.11798" lon="7.20011">
        <ele>2473.937</ele>
        <time>2015-06-13T10:28:59Z</time>
      </trkpt>
      <trkpt lat="44.118" lon="7.20009">
        <ele>2475.988</ele>
        <time>2015-06-13T10:29:05Z</time>
      </trkpt>
      <trkpt lat="44.11801" lon="7.20009">
        <ele>2476.198</ele>
        <time>2015-06-13T10:29:07Z</time>
      </trkpt>
      <trkpt lat="44.11806" lon="7.20009">
        <ele>2477.848</ele>
        <time>2015-06-13T10:29:16Z</time>
      </trkpt>
      <trkpt lat="44.11806" lon="7.2001">
        <ele>2475.376</ele>
        <time>2015-06-13T10:29:24Z</time>
      </trkpt>
      <trkpt lat="44.11806" lon="7.20012">
        <ele>2474.896</ele>
        <time>2015-06-13T10:29:34Z</time>
      </trkpt>
      <trkpt lat="44.11803" lon="7.20016">
        <ele>2476.789</ele>
        <time>2015-06-13T10:29:41Z</time>
      </trkpt>
      <trkpt lat="44.11804" lon="7.20016">
        <ele>2476.448</ele>
        <time>2015-06-13T10:29:48Z</time>
      </trkpt>
      <trkpt lat="44.11803" lon="7.20014">
        <ele>2474.057</ele>
        <time>2015-06-13T10:30:26Z</time>
      </trkpt>
      <trkpt lat="44.11804" lon="7.20018">
        <ele>2474.567</ele>
        <time>2015-06-13T10:30:29Z</time>
      </trkpt>
      <trkpt lat="44.11799" lon="7.20021">
        <ele>2473.446</ele>
        <time>2015-06-13T10:30:34Z</time>
      </trkpt>
      <trkpt lat="44.11793" lon="7.20029">
        <ele>2472.725</ele>
        <time>2015-06-13T10:30:42Z</time>
      </trkpt>
      <trkpt lat="44.11793" lon="7.2003">
        <ele>2471.436</ele>
        <time>2015-06-13T10:30:49Z</time>
      </trkpt>
      <trkpt lat="44.11792" lon="7.20031">
        <ele>2469.966</ele>
        <time>2015-06-13T10:31:01Z</time>
      </trkpt>
      <trkpt lat="44.11797" lon="7.20007">
        <ele>2431.681</ele>
        <time>2015-06-13T10:52:33Z</time>
      </trkpt>
      <trkpt lat="44.11797" lon="7.20004">
        <ele>2427.944</ele>
        <time>2015-06-13T10:52:42Z</time>
      </trkpt>
      <trkpt lat="44.11793" lon="7.20032">
        <ele>2462.971</ele>
        <time>2015-06-13T10:58:44Z</time>
      </trkpt>
      <trkpt lat="44.11792" lon="7.20033">
        <ele>2468.557</ele>
        <time>2015-06-13T10:59:29Z</time>
      </trkpt>
      <trkpt lat="44.11789" lon="7.20036">
        <ele>2469.226</ele>
        <time>2015-06-13T10:59:49Z</time>
      </trkpt>
      <trkpt lat="44.11789" lon="7.20032">
        <ele>2465.847</ele>
        <time>2015-06-13T11:00:13Z</time>
      </trkpt>
      <trkpt lat="44.11788" lon="7.20032">
        <ele>2465.036</ele>
        <time>2015-06-13T11:00:19Z</time>
      </trkpt>
      <trkpt lat="44.11787" lon="7.20036">
        <ele>2464.115</ele>
        <time>2015-06-13T11:00:23Z</time>
      </trkpt>
      <trkpt lat="44.11782" lon="7.20045">
        <ele>2464.285</ele>
        <time>2015-06-13T11:00:31Z</time>
      </trkpt>
      <trkpt lat="44.11781" lon="7.20046">
        <ele>2462.894</ele>
        <time>2015-06-13T11:00:33Z</time>
      </trkpt>
      <trkpt lat="44.11774" lon="7.20055">
        <ele>2462.766</ele>
        <time>2015-06-13T11:00:40Z</time>
      </trkpt>
      <trkpt lat="44.11768" lon="7.20061">
        <ele>2462.227</ele>
        <time>2015-06-13T11:00:47Z</time>
      </trkpt>
      <trkpt lat="44.11761" lon="7.20067">
        <ele>2459.035</ele>
        <time>2015-06-13T11:00:54Z</time>
      </trkpt>
      <trkpt lat="44.11751" lon="7.20077">
        <ele>2461.028</ele>
        <time>2015-06-13T11:01:02Z</time>
      </trkpt>
      <trkpt lat="44.11744" lon="7.20083">
        <ele>2461.377</ele>
        <time>2015-06-13T11:01:09Z</time>
      </trkpt>
      <trkpt lat="44.11742" lon="7.20083">
        <ele>2460.397</ele>
        <time>2015-06-13T11:01:15Z</time>
      </trkpt>
      <trkpt lat="44.1174" lon="7.20084">
        <ele>2459.217</ele>
        <time>2015-06-13T11:01:20Z</time>
      </trkpt>
      <trkpt lat="44.11736" lon="7.20086">
        <ele>2456.976</ele>
        <time>2015-06-13T11:01:28Z</time>
      </trkpt>
      <trkpt lat="44.1173" lon="7.20092">
        <ele>2457.687</ele>
        <time>2015-06-13T11:01:42Z</time>
      </trkpt>
      <trkpt lat="44.11724" lon="7.20094">
        <ele>2454.724</ele>
        <time>2015-06-13T11:01:50Z</time>
      </trkpt>
      <trkpt lat="44.11723" lon="7.20093">
        <ele>2454.625</ele>
        <time>2015-06-13T11:01:51Z</time>
      </trkpt>
      <trkpt lat="44.11724" lon="7.20086">
        <ele>2453.906</ele>
        <time>2015-06-13T11:01:58Z</time>
      </trkpt>
      <trkpt lat="44.11726" lon="7.20082">
        <ele>2453.096</ele>
        <time>2015-06-13T11:02:04Z</time>
      </trkpt>
      <trkpt lat="44.1173" lon="7.2007">
        <ele>2452.826</ele>
        <time>2015-06-13T11:02:11Z</time>
      </trkpt>
      <trkpt lat="44.11732" lon="7.20068">
        <ele>2453.527</ele>
        <time>2015-06-13T11:02:15Z</time>
      </trkpt>
      <trkpt lat="44.11733" lon="7.20061">
        <ele>2453.336</ele>
        <time>2015-06-13T11:02:22Z</time>
      </trkpt>
      <trkpt lat="44.11733" lon="7.20058">
        <ele>2454.447</ele>
        <time>2015-06-13T11:02:25Z</time>
      </trkpt>
      <trkpt lat="44.11734" lon="7.20054">
        <ele>2455.557</ele>
        <time>2015-06-13T11:02:29Z</time>
      </trkpt>
      <trkpt lat="44.11737" lon="7.2005">
        <ele>2451.283</ele>
        <time>2015-06-13T11:02:36Z</time>
      </trkpt>
      <trkpt lat="44.11741" lon="7.20043">
        <ele>2448.803</ele>
        <time>2015-06-13T11:02:43Z</time>
      </trkpt>
      <trkpt lat="44.11743" lon="7.20036">
        <ele>2447.725</ele>
        <time>2015-06-13T11:02:48Z</time>
      </trkpt>
      <trkpt lat="44.11745" lon="7.20032">
        <ele>2446.384</ele>
        <time>2015-06-13T11:02:52Z</time>
      </trkpt>
      <trkpt lat="44.11749" lon="7.20021">
        <ele>2448.067</ele>
        <time>2015-06-13T11:03:00Z</time>
      </trkpt>
      <trkpt lat="44.1175" lon="7.20009">
        <ele>2452.257</ele>
        <time>2015-06-13T11:03:07Z</time>
      </trkpt>
      <trkpt lat="44.11754" lon="7.20001">
        <ele>2452.798</ele>
        <time>2015-06-13T11:03:14Z</time>
      </trkpt>
      <trkpt lat="44.11758" lon="7.19995">
        <ele>2450.345</ele>
        <time>2015-06-13T11:03:20Z</time>
      </trkpt>
      <trkpt lat="44.11763" lon="7.1999">
        <ele>2450.896</ele>
        <time>2015-06-13T11:03:25Z</time>
      </trkpt>
      <trkpt lat="44.11767" lon="7.19986">
        <ele>2449.585</ele>
        <time>2015-06-13T11:03:30Z</time>
      </trkpt>
      <trkpt lat="44.11772" lon="7.19978">
        <ele>2448.915</ele>
        <time>2015-06-13T11:03:37Z</time>
      </trkpt>
      <trkpt lat="44.1177" lon="7.19969">
        <ele>2446.343</ele>
        <time>2015-06-13T11:03:44Z</time>
      </trkpt>
      <trkpt lat="44.1177" lon="7.19969">
        <ele>2446.314</ele>
        <time>2015-06-13T11:03:46Z</time>
      </trkpt>
      <trkpt lat="44.11765" lon="7.19969">
        <ele>2448.846</ele>
        <time>2015-06-13T11:03:54Z</time>
      </trkpt>
      <trkpt lat="44.11765" lon="7.19968">
        <ele>2448.335</ele>
        <time>2015-06-13T11:04:01Z</time>
      </trkpt>
      <trkpt lat="44.11764" lon="7.19962">
        <ele>2447.145</ele>
        <time>2015-06-13T11:04:05Z</time>
      </trkpt>
      <trkpt lat="44.11765" lon="7.19962">
        <ele>2444.674</ele>
        <time>2015-06-13T11:04:08Z</time>
      </trkpt>
      <trkpt lat="44.11766" lon="7.19956">
        <ele>2441.813</ele>
        <time>2015-06-13T11:04:13Z</time>
      </trkpt>
      <trkpt lat="44.11772" lon="7.19946">
        <ele>2437.845</ele>
        <time>2015-06-13T11:04:23Z</time>
      </trkpt>
      <trkpt lat="44.11772" lon="7.19937">
        <ele>2437.285</ele>
        <time>2015-06-13T11:04:27Z</time>
      </trkpt>
      <trkpt lat="44.11774" lon="7.1993">
        <ele>2437.575</ele>
        <time>2015-06-13T11:04:32Z</time>
      </trkpt>
      <trkpt lat="44.11774" lon="7.19916">
        <ele>2435.135</ele>
        <time>2015-06-13T11:04:40Z</time>
      </trkpt>
      <trkpt lat="44.11777" lon="7.1991">
        <ele>2432.276</ele>
        <time>2015-06-13T11:04:47Z</time>
      </trkpt>
      <trkpt lat="44.11778" lon="7.19896">
        <ele>2431.516</ele>
        <time>2015-06-13T11:04:53Z</time>
      </trkpt>
      <trkpt lat="44.11781" lon="7.19894">
        <ele>2432.086</ele>
        <time>2015-06-13T11:04:55Z</time>
      </trkpt>
      <trkpt lat="44.11786" lon="7.19882">
        <ele>2434.347</ele>
        <time>2015-06-13T11:05:02Z</time>
      </trkpt>
      <trkpt lat="44.1179" lon="7.1987">
        <ele>2435.777</ele>
        <time>2015-06-13T11:05:10Z</time>
      </trkpt>
      <trkpt lat="44.11791" lon="7.19863">
        <ele>2431.435</ele>
        <time>2015-06-13T11:05:17Z</time>
      </trkpt>
      <trkpt lat="44.11793" lon="7.19852">
        <ele>2426.673</ele>
        <time>2015-06-13T11:05:24Z</time>
      </trkpt>
      <trkpt lat="44.11794" lon="7.19834">
        <ele>2428.557</ele>
        <time>2015-06-13T11:05:33Z</time>
      </trkpt>
      <trkpt lat="44.11795" lon="7.19833">
        <ele>2427.606</ele>
        <time>2015-06-13T11:05:35Z</time>
      </trkpt>
      <trkpt lat="44.11795" lon="7.19826">
        <ele>2428.147</ele>
        <time>2015-06-13T11:05:41Z</time>
      </trkpt>
      <trkpt lat="44.11794" lon="7.19811">
        <ele>2426.076</ele>
        <time>2015-06-13T11:05:49Z</time>
      </trkpt>
      <trkpt lat="44.11795" lon="7.19796">
        <ele>2426.026</ele>
        <time>2015-06-13T11:05:56Z</time>
      </trkpt>
      <trkpt lat="44.11796" lon="7.19784">
        <ele>2429.938</ele>
        <time>2015-06-13T11:06:02Z</time>
      </trkpt>
      <trkpt lat="44.11797" lon="7.19776">
        <ele>2430.028</ele>
        <time>2015-06-13T11:06:07Z</time>
      </trkpt>
      <trkpt lat="44.11799" lon="7.19774">
        <ele>2427.936</ele>
        <time>2015-06-13T11:06:09Z</time>
      </trkpt>
      <trkpt lat="44.118" lon="7.19769">
        <ele>2428.437</ele>
        <time>2015-06-13T11:06:14Z</time>
      </trkpt>
      <trkpt lat="44.11801" lon="7.19764">
        <ele>2427.236</ele>
        <time>2015-06-13T11:06:18Z</time>
      </trkpt>
      <trkpt lat="44.11799" lon="7.19763">
        <ele>2424.455</ele>
        <time>2015-06-13T11:06:24Z</time>
      </trkpt>
      <trkpt lat="44.11801" lon="7.1977">
        <ele>2419.852</ele>
        <time>2015-06-13T11:06:30Z</time>
      </trkpt>
      <trkpt lat="44.11798" lon="7.19772">
        <ele>2420.284</ele>
        <time>2015-06-13T11:06:35Z</time>
      </trkpt>
      <trkpt lat="44.11794" lon="7.1977">
        <ele>2424.137</ele>
        <time>2015-06-13T11:06:39Z</time>
      </trkpt>
      <trkpt lat="44.11792" lon="7.19765">
        <ele>2424.736</ele>
        <time>2015-06-13T11:06:46Z</time>
      </trkpt>
      <trkpt lat="44.11792" lon="7.19752">
        <ele>2420.574</ele>
        <time>2015-06-13T11:06:53Z</time>
      </trkpt>
      <trkpt lat="44.11791" lon="7.19733">
        <ele>2420.556</ele>
        <time>2015-06-13T11:07:00Z</time>
      </trkpt>
      <trkpt lat="44.11791" lon="7.19733">
        <ele>2420.396</ele>
        <time>2015-06-13T11:07:01Z</time>
      </trkpt>
      <trkpt lat="44.11794" lon="7.19724">
        <ele>2417.435</ele>
        <time>2015-06-13T11:07:07Z</time>
      </trkpt>
      <trkpt lat="44.11793" lon="7.19719">
        <ele>2416.695</ele>
        <time>2015-06-13T11:07:13Z</time>
      </trkpt>
      <trkpt lat="44.11791" lon="7.19714">
        <ele>2417.236</ele>
        <time>2015-06-13T11:07:17Z</time>
      </trkpt>
      <trkpt lat="44.11791" lon="7.19713">
        <ele>2418.067</ele>
        <time>2015-06-13T11:07:18Z</time>
      </trkpt>
      <trkpt lat="44.11788" lon="7.19701">
        <ele>2421.139</ele>
        <time>2015-06-13T11:07:24Z</time>
      </trkpt>
      <trkpt lat="44.11789" lon="7.19695">
        <ele>2418.847</ele>
        <time>2015-06-13T11:07:30Z</time>
      </trkpt>
      <trkpt lat="44.11787" lon="7.19691">
        <ele>2418.727</ele>
        <time>2015-06-13T11:07:35Z</time>
      </trkpt>
      <trkpt lat="44.11786" lon="7.1969">
        <ele>2417.576</ele>
        <time>2015-06-13T11:07:36Z</time>
      </trkpt>
      <trkpt lat="44.11781" lon="7.19678">
        <ele>2416.725</ele>
        <time>2015-06-13T11:07:43Z</time>
      </trkpt>
      <trkpt lat="44.1178" lon="7.19675">
        <ele>2417.076</ele>
        <time>2015-06-13T11:07:45Z</time>
      </trkpt>
      <trkpt lat="44.11778" lon="7.19668">
        <ele>2414.624</ele>
        <time>2015-06-13T11:07:52Z</time>
      </trkpt>
      <trkpt lat="44.11777" lon="7.19659">
        <ele>2408.933</ele>
        <time>2015-06-13T11:07:58Z</time>
      </trkpt>
      <trkpt lat="44.11775" lon="7.19657">
        <ele>2407.784</ele>
        <time>2015-06-13T11:08:01Z</time>
      </trkpt>
      <trkpt lat="44.11771" lon="7.1965">
        <ele>2407.735</ele>
        <time>2015-06-13T11:08:07Z</time>
      </trkpt>
      <trkpt lat="44.11767" lon="7.19646">
        <ele>2404.364</ele>
        <time>2015-06-13T11:08:13Z</time>
      </trkpt>
      <trkpt lat="44.11763" lon="7.19642">
        <ele>2401.553</ele>
        <time>2015-06-13T11:08:19Z</time>
      </trkpt>
      <trkpt lat="44.11759" lon="7.19636">
        <ele>2395.651</ele>
        <time>2015-06-13T11:08:25Z</time>
      </trkpt>
      <trkpt lat="44.11752" lon="7.19631">
        <ele>2395.025</ele>
        <time>2015-06-13T11:08:31Z</time>
      </trkpt>
      <trkpt lat="44.11741" lon="7.19628">
        <ele>2396.647</ele>
        <time>2015-06-13T11:08:40Z</time>
      </trkpt>
      <trkpt lat="44.11735" lon="7.19625">
        <ele>2396.095</ele>
        <time>2015-06-13T11:08:45Z</time>
      </trkpt>
      <trkpt lat="44.11731" lon="7.19622">
        <ele>2397.396</ele>
        <time>2015-06-13T11:08:48Z</time>
      </trkpt>
      <trkpt lat="44.11729" lon="7.19621">
        <ele>2396.556</ele>
        <time>2015-06-13T11:08:54Z</time>
      </trkpt>
      <trkpt lat="44.11725" lon="7.19617">
        <ele>2387.475</ele>
        <time>2015-06-13T11:09:09Z</time>
      </trkpt>
      <trkpt lat="44.11722" lon="7.19615">
        <ele>2388.496</ele>
        <time>2015-06-13T11:09:13Z</time>
      </trkpt>
      <trkpt lat="44.11716" lon="7.19612">
        <ele>2391.778</ele>
        <time>2015-06-13T11:09:20Z</time>
      </trkpt>
      <trkpt lat="44.11715" lon="7.19609">
        <ele>2391.777</ele>
        <time>2015-06-13T11:09:22Z</time>
      </trkpt>
      <trkpt lat="44.11715" lon="7.19602">
        <ele>2391.896</ele>
        <time>2015-06-13T11:09:26Z</time>
      </trkpt>
      <trkpt lat="44.11713" lon="7.19595">
        <ele>2392.656</ele>
        <time>2015-06-13T11:09:30Z</time>
      </trkpt>
      <trkpt lat="44.11713" lon="7.19587">
        <ele>2393.677</ele>
        <time>2015-06-13T11:09:37Z</time>
      </trkpt>
      <trkpt lat="44.11715" lon="7.1958">
        <ele>2392.477</ele>
        <time>2015-06-13T11:09:43Z</time>
      </trkpt>
      <trkpt lat="44.11716" lon="7.19576">
        <ele>2393.276</ele>
        <time>2015-06-13T11:09:45Z</time>
      </trkpt>
      <trkpt lat="44.11718" lon="7.19568">
        <ele>2391.934</ele>
        <time>2015-06-13T11:09:49Z</time>
      </trkpt>
      <trkpt lat="44.11721" lon="7.1956">
        <ele>2388.452</ele>
        <time>2015-06-13T11:09:56Z</time>
      </trkpt>
      <trkpt lat="44.11721" lon="7.19553">
        <ele>2384.713</ele>
        <time>2015-06-13T11:10:03Z</time>
      </trkpt>
      <trkpt lat="44.11721" lon="7.19542">
        <ele>2381.724</ele>
        <time>2015-06-13T11:10:11Z</time>
      </trkpt>
      <trkpt lat="44.11722" lon="7.19534">
        <ele>2380.855</ele>
        <time>2015-06-13T11:10:19Z</time>
      </trkpt>
      <trkpt lat="44.11723" lon="7.1953">
        <ele>2377.934</ele>
        <time>2015-06-13T11:10:26Z</time>
      </trkpt>
      <trkpt lat="44.11722" lon="7.19517">
        <ele>2376.563</ele>
        <time>2015-06-13T11:10:34Z</time>
      </trkpt>
      <trkpt lat="44.1172" lon="7.19507">
        <ele>2379.534</ele>
        <time>2015-06-13T11:10:40Z</time>
      </trkpt>
      <trkpt lat="44.11718" lon="7.19505">
        <ele>2380.525</ele>
        <time>2015-06-13T11:10:46Z</time>
      </trkpt>
      <trkpt lat="44.11717" lon="7.19505">
        <ele>2378.284</ele>
        <time>2015-06-13T11:10:52Z</time>
      </trkpt>
      <trkpt lat="44.11715" lon="7.19505">
        <ele>2380.136</ele>
        <time>2015-06-13T11:10:54Z</time>
      </trkpt>
      <trkpt lat="44.11712" lon="7.19504">
        <ele>2381.227</ele>
        <time>2015-06-13T11:10:56Z</time>
      </trkpt>
      <trkpt lat="44.11707" lon="7.19502">
        <ele>2382.437</ele>
        <time>2015-06-13T11:11:00Z</time>
      </trkpt>
      <trkpt lat="44.11701" lon="7.19501">
        <ele>2383.397</ele>
        <time>2015-06-13T11:11:06Z</time>
      </trkpt>
      <trkpt lat="44.11698" lon="7.19498">
        <ele>2380.854</ele>
        <time>2015-06-13T11:11:12Z</time>
      </trkpt>
      <trkpt lat="44.11696" lon="7.19506">
        <ele>2372.215</ele>
        <time>2015-06-13T11:11:30Z</time>
      </trkpt>
      <trkpt lat="44.11692" lon="7.19504">
        <ele>2374.156</ele>
        <time>2015-06-13T11:11:34Z</time>
      </trkpt>
      <trkpt lat="44.11688" lon="7.19502">
        <ele>2371.894</ele>
        <time>2015-06-13T11:11:40Z</time>
      </trkpt>
      <trkpt lat="44.11686" lon="7.19501">
        <ele>2372.184</ele>
        <time>2015-06-13T11:11:42Z</time>
      </trkpt>
      <trkpt lat="44.11683" lon="7.19497">
        <ele>2371.283</ele>
        <time>2015-06-13T11:11:46Z</time>
      </trkpt>
      <trkpt lat="44.11674" lon="7.19493">
        <ele>2379.008</ele>
        <time>2015-06-13T11:11:51Z</time>
      </trkpt>
      <trkpt lat="44.1167" lon="7.19488">
        <ele>2376.325</ele>
        <time>2015-06-13T11:11:57Z</time>
      </trkpt>
      <trkpt lat="44.11665" lon="7.19486">
        <ele>2376.805</ele>
        <time>2015-06-13T11:12:02Z</time>
      </trkpt>
      <trkpt lat="44.1166" lon="7.19486">
        <ele>2379.307</ele>
        <time>2015-06-13T11:12:07Z</time>
      </trkpt>
      <trkpt lat="44.11653" lon="7.19484">
        <ele>2382.067</ele>
        <time>2015-06-13T11:12:12Z</time>
      </trkpt>
      <trkpt lat="44.11642" lon="7.19479">
        <ele>2383.397</ele>
        <time>2015-06-13T11:12:19Z</time>
      </trkpt>
      <trkpt lat="44.11637" lon="7.19482">
        <ele>2375.391</ele>
        <time>2015-06-13T11:12:26Z</time>
      </trkpt>
      <trkpt lat="44.11625" lon="7.19482">
        <ele>2368.592</ele>
        <time>2015-06-13T11:12:40Z</time>
      </trkpt>
      <trkpt lat="44.11618" lon="7.1948">
        <ele>2369.694</ele>
        <time>2015-06-13T11:12:46Z</time>
      </trkpt>
      <trkpt lat="44.11614" lon="7.19479">
        <ele>2368.664</ele>
        <time>2015-06-13T11:12:49Z</time>
      </trkpt>
      <trkpt lat="44.11604" lon="7.19473">
        <ele>2366.288</ele>
        <time>2015-06-13T11:12:57Z</time>
      </trkpt>
      <trkpt lat="44.11596" lon="7.19469">
        <ele>2365.065</ele>
        <time>2015-06-13T11:13:04Z</time>
      </trkpt>
      <trkpt lat="44.11587" lon="7.19465">
        <ele>2359.883</ele>
        <time>2015-06-13T11:13:13Z</time>
      </trkpt>
      <trkpt lat="44.1158" lon="7.19462">
        <ele>2357.362</ele>
        <time>2015-06-13T11:13:19Z</time>
      </trkpt>
      <trkpt lat="44.11576" lon="7.19457">
        <ele>2357.255</ele>
        <time>2015-06-13T11:13:24Z</time>
      </trkpt>
      <trkpt lat="44.11567" lon="7.19448">
        <ele>2361.318</ele>
        <time>2015-06-13T11:13:33Z</time>
      </trkpt>
      <trkpt lat="44.11561" lon="7.19441">
        <ele>2362.647</ele>
        <time>2015-06-13T11:13:39Z</time>
      </trkpt>
      <trkpt lat="44.11558" lon="7.19437">
        <ele>2361.516</ele>
        <time>2015-06-13T11:13:43Z</time>
      </trkpt>
      <trkpt lat="44.11552" lon="7.1943">
        <ele>2361.366</ele>
        <time>2015-06-13T11:13:50Z</time>
      </trkpt>
      <trkpt lat="44.11544" lon="7.19424">
        <ele>2358.094</ele>
        <time>2015-06-13T11:13:59Z</time>
      </trkpt>
      <trkpt lat="44.11541" lon="7.19422">
        <ele>2357.835</ele>
        <time>2015-06-13T11:14:02Z</time>
      </trkpt>
      <trkpt lat="44.11536" lon="7.19419">
        <ele>2357.205</ele>
        <time>2015-06-13T11:14:06Z</time>
      </trkpt>
      <trkpt lat="44.11529" lon="7.1942">
        <ele>2356.005</ele>
        <time>2015-06-13T11:14:13Z</time>
      </trkpt>
      <trkpt lat="44.11523" lon="7.1942">
        <ele>2358.176</ele>
        <time>2015-06-13T11:14:17Z</time>
      </trkpt>
      <trkpt lat="44.11519" lon="7.1942">
        <ele>2360.088</ele>
        <time>2015-06-13T11:14:23Z</time>
      </trkpt>
      <trkpt lat="44.11511" lon="7.19421">
        <ele>2358.565</ele>
        <time>2015-06-13T11:14:31Z</time>
      </trkpt>
      <trkpt lat="44.11502" lon="7.1942">
        <ele>2361.527</ele>
        <time>2015-06-13T11:14:37Z</time>
      </trkpt>
      <trkpt lat="44.11495" lon="7.19419">
        <ele>2364.057</ele>
        <time>2015-06-13T11:14:43Z</time>
      </trkpt>
      <trkpt lat="44.11493" lon="7.19422">
        <ele>2357.982</ele>
        <time>2015-06-13T11:14:49Z</time>
      </trkpt>
      <trkpt lat="44.1149" lon="7.19422">
        <ele>2360.354</ele>
        <time>2015-06-13T11:14:52Z</time>
      </trkpt>
      <trkpt lat="44.11483" lon="7.19421">
        <ele>2365.068</ele>
        <time>2015-06-13T11:14:58Z</time>
      </trkpt>
      <trkpt lat="44.11481" lon="7.19425">
        <ele>2362.435</ele>
        <time>2015-06-13T11:15:04Z</time>
      </trkpt>
      <trkpt lat="44.11477" lon="7.19421">
        <ele>2350.192</ele>
        <time>2015-06-13T11:15:17Z</time>
      </trkpt>
      <trkpt lat="44.11475" lon="7.19424">
        <ele>2349.261</ele>
        <time>2015-06-13T11:15:20Z</time>
      </trkpt>
      <trkpt lat="44.11475" lon="7.19429">
        <ele>2342.548</ele>
        <time>2015-06-13T11:15:25Z</time>
      </trkpt>
      <trkpt lat="44.11471" lon="7.19432">
        <ele>2341.98</ele>
        <time>2015-06-13T11:15:30Z</time>
      </trkpt>
      <trkpt lat="44.11464" lon="7.19436">
        <ele>2345.164</ele>
        <time>2015-06-13T11:15:36Z</time>
      </trkpt>
      <trkpt lat="44.11464" lon="7.19438">
        <ele>2341.402</ele>
        <time>2015-06-13T11:15:39Z</time>
      </trkpt>
      <trkpt lat="44.11459" lon="7.19438">
        <ele>2341.393</ele>
        <time>2015-06-13T11:15:44Z</time>
      </trkpt>
      <trkpt lat="44.11452" lon="7.19438">
        <ele>2340.693</ele>
        <time>2015-06-13T11:15:50Z</time>
      </trkpt>
      <trkpt lat="44.11447" lon="7.1944">
        <ele>2338.973</ele>
        <time>2015-06-13T11:15:55Z</time>
      </trkpt>
      <trkpt lat="44.11444" lon="7.19441">
        <ele>2334.042</ele>
        <time>2015-06-13T11:16:01Z</time>
      </trkpt>
      <trkpt lat="44.1144" lon="7.19443">
        <ele>2336.725</ele>
        <time>2015-06-13T11:16:07Z</time>
      </trkpt>
      <trkpt lat="44.11429" lon="7.19444">
        <ele>2347.633</ele>
        <time>2015-06-13T11:16:14Z</time>
      </trkpt>
      <trkpt lat="44.11424" lon="7.19448">
        <ele>2348.489</ele>
        <time>2015-06-13T11:16:20Z</time>
      </trkpt>
      <trkpt lat="44.11424" lon="7.19448">
        <ele>2347.177</ele>
        <time>2015-06-13T11:16:21Z</time>
      </trkpt>
      <trkpt lat="44.11416" lon="7.1945">
        <ele>2341.863</ele>
        <time>2015-06-13T11:16:29Z</time>
      </trkpt>
      <trkpt lat="44.11415" lon="7.1945">
        <ele>2338.229</ele>
        <time>2015-06-13T11:16:32Z</time>
      </trkpt>
      <trkpt lat="44.11414" lon="7.19456">
        <ele>2331.329</ele>
        <time>2015-06-13T11:16:38Z</time>
      </trkpt>
      <trkpt lat="44.11406" lon="7.19455">
        <ele>2331.852</ele>
        <time>2015-06-13T11:16:46Z</time>
      </trkpt>
      <trkpt lat="44.11402" lon="7.19455">
        <ele>2332.184</ele>
        <time>2015-06-13T11:16:50Z</time>
      </trkpt>
      <trkpt lat="44.11394" lon="7.19455">
        <ele>2334.735</ele>
        <time>2015-06-13T11:16:55Z</time>
      </trkpt>
      <trkpt lat="44.11383" lon="7.19455">
        <ele>2333.125</ele>
        <time>2015-06-13T11:17:04Z</time>
      </trkpt>
      <trkpt lat="44.11378" lon="7.19453">
        <ele>2331.043</ele>
        <time>2015-06-13T11:17:09Z</time>
      </trkpt>
      <trkpt lat="44.11376" lon="7.19452">
        <ele>2325.63</ele>
        <time>2015-06-13T11:17:13Z</time>
      </trkpt>
      <trkpt lat="44.11374" lon="7.19454">
        <ele>2316.017</ele>
        <time>2015-06-13T11:17:19Z</time>
      </trkpt>
      <trkpt lat="44.11362" lon="7.1945">
        <ele>2312.973</ele>
        <time>2015-06-13T11:17:30Z</time>
      </trkpt>
      <trkpt lat="44.11361" lon="7.1945">
        <ele>2312.603</ele>
        <time>2015-06-13T11:17:31Z</time>
      </trkpt>
      <trkpt lat="44.11353" lon="7.19449">
        <ele>2317.716</ele>
        <time>2015-06-13T11:17:36Z</time>
      </trkpt>
      <trkpt lat="44.11352" lon="7.19449">
        <ele>2318.836</ele>
        <time>2015-06-13T11:17:37Z</time>
      </trkpt>
      <trkpt lat="44.1135" lon="7.1945">
        <ele>2318.816</ele>
        <time>2015-06-13T11:17:39Z</time>
      </trkpt>
      <trkpt lat="44.11348" lon="7.19452">
        <ele>2318.276</ele>
        <time>2015-06-13T11:17:41Z</time>
      </trkpt>
      <trkpt lat="44.11344" lon="7.19457">
        <ele>2313.422</ele>
        <time>2015-06-13T11:17:47Z</time>
      </trkpt>
      <trkpt lat="44.11339" lon="7.19459">
        <ele>2313.973</ele>
        <time>2015-06-13T11:17:52Z</time>
      </trkpt>
      <trkpt lat="44.11329" lon="7.19458">
        <ele>2317.796</ele>
        <time>2015-06-13T11:17:59Z</time>
      </trkpt>
      <trkpt lat="44.11323" lon="7.19455">
        <ele>2320.476</ele>
        <time>2015-06-13T11:18:04Z</time>
      </trkpt>
      <trkpt lat="44.11318" lon="7.1945">
        <ele>2321.537</ele>
        <time>2015-06-13T11:18:09Z</time>
      </trkpt>
      <trkpt lat="44.11312" lon="7.19447">
        <ele>2321.546</ele>
        <time>2015-06-13T11:18:15Z</time>
      </trkpt>
      <trkpt lat="44.11307" lon="7.19444">
        <ele>2323.126</ele>
        <time>2015-06-13T11:18:20Z</time>
      </trkpt>
      <trkpt lat="44.11305" lon="7.19443">
        <ele>2321.865</ele>
        <time>2015-06-13T11:18:23Z</time>
      </trkpt>
      <trkpt lat="44.11298" lon="7.19439">
        <ele>2319.443</ele>
        <time>2015-06-13T11:18:30Z</time>
      </trkpt>
      <trkpt lat="44.11288" lon="7.19438">
        <ele>2316.653</ele>
        <time>2015-06-13T11:18:39Z</time>
      </trkpt>
      <trkpt lat="44.11282" lon="7.19432">
        <ele>2321.716</ele>
        <time>2015-06-13T11:18:46Z</time>
      </trkpt>
      <trkpt lat="44.11275" lon="7.19424">
        <ele>2325.41</ele>
        <time>2015-06-13T11:18:56Z</time>
      </trkpt>
      <trkpt lat="44.11273" lon="7.19424">
        <ele>2329.891</ele>
        <time>2015-06-13T11:18:59Z</time>
      </trkpt>
      <trkpt lat="44.11273" lon="7.19423">
        <ele>2330.56</ele>
        <time>2015-06-13T11:19:02Z</time>
      </trkpt>
      <trkpt lat="44.11268" lon="7.19424">
        <ele>2326.716</ele>
        <time>2015-06-13T11:19:09Z</time>
      </trkpt>
      <trkpt lat="44.11263" lon="7.19421">
        <ele>2324.724</ele>
        <time>2015-06-13T11:19:14Z</time>
      </trkpt>
      <trkpt lat="44.11261" lon="7.19422">
        <ele>2321.091</ele>
        <time>2015-06-13T11:19:18Z</time>
      </trkpt>
      <trkpt lat="44.1126" lon="7.19423">
        <ele>2318.37</ele>
        <time>2015-06-13T11:19:21Z</time>
      </trkpt>
      <trkpt lat="44.11253" lon="7.19423">
        <ele>2315.931</ele>
        <time>2015-06-13T11:19:28Z</time>
      </trkpt>
      <trkpt lat="44.11252" lon="7.19423">
        <ele>2314.9</ele>
        <time>2015-06-13T11:19:29Z</time>
      </trkpt>
      <trkpt lat="44.11245" lon="7.1942">
        <ele>2314.239</ele>
        <time>2015-06-13T11:19:35Z</time>
      </trkpt>
      <trkpt lat="44.11241" lon="7.19419">
        <ele>2307.79</ele>
        <time>2015-06-13T11:19:41Z</time>
      </trkpt>
      <trkpt lat="44.1123" lon="7.19413">
        <ele>2306.873</ele>
        <time>2015-06-13T11:19:51Z</time>
      </trkpt>
      <trkpt lat="44.11224" lon="7.19409">
        <ele>2308.905</ele>
        <time>2015-06-13T11:19:56Z</time>
      </trkpt>
      <trkpt lat="44.11218" lon="7.19409">
        <ele>2304.752</ele>
        <time>2015-06-13T11:20:02Z</time>
      </trkpt>
      <trkpt lat="44.11213" lon="7.19406">
        <ele>2300.47</ele>
        <time>2015-06-13T11:20:08Z</time>
      </trkpt>
      <trkpt lat="44.11207" lon="7.19406">
        <ele>2303.745</ele>
        <time>2015-06-13T11:20:12Z</time>
      </trkpt>
      <trkpt lat="44.11201" lon="7.19405">
        <ele>2306.245</ele>
        <time>2015-06-13T11:20:17Z</time>
      </trkpt>
      <trkpt lat="44.11192" lon="7.19405">
        <ele>2314.542</ele>
        <time>2015-06-13T11:20:24Z</time>
      </trkpt>
      <trkpt lat="44.11185" lon="7.19401">
        <ele>2316.657</ele>
        <time>2015-06-13T11:20:31Z</time>
      </trkpt>
      <trkpt lat="44.11174" lon="7.19403">
        <ele>2320.881</ele>
        <time>2015-06-13T11:20:38Z</time>
      </trkpt>
      <trkpt lat="44.11165" lon="7.19404">
        <ele>2319.515</ele>
        <time>2015-06-13T11:20:45Z</time>
      </trkpt>
      <trkpt lat="44.1116" lon="7.19406">
        <ele>2316.214</ele>
        <time>2015-06-13T11:20:51Z</time>
      </trkpt>
      <trkpt lat="44.11152" lon="7.19405">
        <ele>2315.183</ele>
        <time>2015-06-13T11:20:58Z</time>
      </trkpt>
      <trkpt lat="44.11149" lon="7.19406">
        <ele>2312.533</ele>
        <time>2015-06-13T11:21:03Z</time>
      </trkpt>
      <trkpt lat="44.11146" lon="7.19404">
        <ele>2313.674</ele>
        <time>2015-06-13T11:21:06Z</time>
      </trkpt>
      <trkpt lat="44.11139" lon="7.19406">
        <ele>2317.466</ele>
        <time>2015-06-13T11:21:12Z</time>
      </trkpt>
      <trkpt lat="44.11138" lon="7.19407">
        <ele>2317.075</ele>
        <time>2015-06-13T11:21:14Z</time>
      </trkpt>
      <trkpt lat="44.11133" lon="7.19406">
        <ele>2319.236</ele>
        <time>2015-06-13T11:21:18Z</time>
      </trkpt>
      <trkpt lat="44.11129" lon="7.19404">
        <ele>2315.771</ele>
        <time>2015-06-13T11:21:24Z</time>
      </trkpt>
      <trkpt lat="44.11122" lon="7.194">
        <ele>2314.001</ele>
        <time>2015-06-13T11:21:31Z</time>
      </trkpt>
      <trkpt lat="44.11117" lon="7.19402">
        <ele>2310.098</ele>
        <time>2015-06-13T11:21:37Z</time>
      </trkpt>
      <trkpt lat="44.11107" lon="7.19401">
        <ele>2312.052</ele>
        <time>2015-06-13T11:21:45Z</time>
      </trkpt>
      <trkpt lat="44.11097" lon="7.19405">
        <ele>2317.627</ele>
        <time>2015-06-13T11:21:52Z</time>
      </trkpt>
      <trkpt lat="44.11092" lon="7.1941">
        <ele>2307.488</ele>
        <time>2015-06-13T11:22:07Z</time>
      </trkpt>
      <trkpt lat="44.11089" lon="7.194">
        <ele>2303.857</ele>
        <time>2015-06-13T11:22:15Z</time>
      </trkpt>
      <trkpt lat="44.11087" lon="7.194">
        <ele>2303.597</ele>
        <time>2015-06-13T11:22:16Z</time>
      </trkpt>
      <trkpt lat="44.11088" lon="7.19399">
        <ele>2296.255</ele>
        <time>2015-06-13T11:22:23Z</time>
      </trkpt>
      <trkpt lat="44.11087" lon="7.19366">
        <ele>2309.646</ele>
        <time>2015-06-13T11:22:52Z</time>
      </trkpt>
      <trkpt lat="44.11086" lon="7.19362">
        <ele>2313.035</ele>
        <time>2015-06-13T11:22:55Z</time>
      </trkpt>
      <trkpt lat="44.1108" lon="7.19349">
        <ele>2322.939</ele>
        <time>2015-06-13T11:23:03Z</time>
      </trkpt>
      <trkpt lat="44.11085" lon="7.19349">
        <ele>2313.443</ele>
        <time>2015-06-13T11:23:08Z</time>
      </trkpt>
      <trkpt lat="44.11086" lon="7.1935">
        <ele>2310.34</ele>
        <time>2015-06-13T11:23:09Z</time>
      </trkpt>
      <trkpt lat="44.11085" lon="7.19346">
        <ele>2300.206</ele>
        <time>2015-06-13T11:23:14Z</time>
      </trkpt>
      <trkpt lat="44.11084" lon="7.19345">
        <ele>2298.76</ele>
        <time>2015-06-13T11:23:15Z</time>
      </trkpt>
      <trkpt lat="44.11085" lon="7.19342">
        <ele>2296.253</ele>
        <time>2015-06-13T11:23:22Z</time>
      </trkpt>
      <trkpt lat="44.11087" lon="7.19343">
        <ele>2294.28</ele>
        <time>2015-06-13T11:23:32Z</time>
      </trkpt>
      <trkpt lat="44.11084" lon="7.19347">
        <ele>2283.144</ele>
        <time>2015-06-13T11:24:57Z</time>
      </trkpt>
      <trkpt lat="44.11079" lon="7.19344">
        <ele>2280.857</ele>
        <time>2015-06-13T11:25:04Z</time>
      </trkpt>
      <trkpt lat="44.11075" lon="7.19341">
        <ele>2277.955</ele>
        <time>2015-06-13T11:25:09Z</time>
      </trkpt>
      <trkpt lat="44.1107" lon="7.19334">
        <ele>2280.892</ele>
        <time>2015-06-13T11:25:15Z</time>
      </trkpt>
      <trkpt lat="44.11069" lon="7.1933">
        <ele>2280.292</ele>
        <time>2015-06-13T11:25:17Z</time>
      </trkpt>
      <trkpt lat="44.11068" lon="7.19324">
        <ele>2278.663</ele>
        <time>2015-06-13T11:25:23Z</time>
      </trkpt>
      <trkpt lat="44.11066" lon="7.19315">
        <ele>2278.667</ele>
        <time>2015-06-13T11:25:29Z</time>
      </trkpt>
      <trkpt lat="44.11059" lon="7.19309">
        <ele>2275.709</ele>
        <time>2015-06-13T11:25:36Z</time>
      </trkpt>
      <trkpt lat="44.11056" lon="7.19304">
        <ele>2274.56</ele>
        <time>2015-06-13T11:25:40Z</time>
      </trkpt>
      <trkpt lat="44.11054" lon="7.193">
        <ele>2273.26</ele>
        <time>2015-06-13T11:25:44Z</time>
      </trkpt>
      <trkpt lat="44.1105" lon="7.19292">
        <ele>2271.73</ele>
        <time>2015-06-13T11:25:50Z</time>
      </trkpt>
      <trkpt lat="44.11043" lon="7.19287">
        <ele>2268.43</ele>
        <time>2015-06-13T11:25:57Z</time>
      </trkpt>
      <trkpt lat="44.11033" lon="7.19281">
        <ele>2269.055</ele>
        <time>2015-06-13T11:26:05Z</time>
      </trkpt>
      <trkpt lat="44.11031" lon="7.19277">
        <ele>2270.515</ele>
        <time>2015-06-13T11:26:08Z</time>
      </trkpt>
      <trkpt lat="44.11024" lon="7.19264">
        <ele>2277.845</ele>
        <time>2015-06-13T11:26:15Z</time>
      </trkpt>
      <trkpt lat="44.1102" lon="7.19258">
        <ele>2283.018</ele>
        <time>2015-06-13T11:26:19Z</time>
      </trkpt>
      <trkpt lat="44.11014" lon="7.19247">
        <ele>2287.369</ele>
        <time>2015-06-13T11:26:25Z</time>
      </trkpt>
      <trkpt lat="44.1101" lon="7.19245">
        <ele>2288.777</ele>
        <time>2015-06-13T11:26:29Z</time>
      </trkpt>
      <trkpt lat="44.11006" lon="7.19243">
        <ele>2285.278</ele>
        <time>2015-06-13T11:26:36Z</time>
      </trkpt>
      <trkpt lat="44.11003" lon="7.19239">
        <ele>2285.357</ele>
        <time>2015-06-13T11:26:40Z</time>
      </trkpt>
      <trkpt lat="44.10998" lon="7.19234">
        <ele>2285.256</ele>
        <time>2015-06-13T11:26:46Z</time>
      </trkpt>
      <trkpt lat="44.10992" lon="7.19231">
        <ele>2284.877</ele>
        <time>2015-06-13T11:26:52Z</time>
      </trkpt>
      <trkpt lat="44.10985" lon="7.19227">
        <ele>2286.376</ele>
        <time>2015-06-13T11:27:00Z</time>
      </trkpt>
      <trkpt lat="44.10978" lon="7.19224">
        <ele>2287.505</ele>
        <time>2015-06-13T11:27:07Z</time>
      </trkpt>
      <trkpt lat="44.10972" lon="7.1922">
        <ele>2288.871</ele>
        <time>2015-06-13T11:27:33Z</time>
      </trkpt>
      <trkpt lat="44.10965" lon="7.19216">
        <ele>2291.178</ele>
        <time>2015-06-13T11:27:40Z</time>
      </trkpt>
      <trkpt lat="44.10962" lon="7.19216">
        <ele>2291.857</ele>
        <time>2015-06-13T11:27:42Z</time>
      </trkpt>
      <trkpt lat="44.10955" lon="7.19218">
        <ele>2290.272</ele>
        <time>2015-06-13T11:27:49Z</time>
      </trkpt>
      <trkpt lat="44.10954" lon="7.19219">
        <ele>2291.122</ele>
        <time>2015-06-13T11:27:50Z</time>
      </trkpt>
      <trkpt lat="44.10942" lon="7.19221">
        <ele>2293.151</ele>
        <time>2015-06-13T11:27:58Z</time>
      </trkpt>
      <trkpt lat="44.10933" lon="7.19224">
        <ele>2295.974</ele>
        <time>2015-06-13T11:28:04Z</time>
      </trkpt>
      <trkpt lat="44.10925" lon="7.19226">
        <ele>2295.566</ele>
        <time>2015-06-13T11:28:11Z</time>
      </trkpt>
      <trkpt lat="44.10919" lon="7.19229">
        <ele>2295.166</ele>
        <time>2015-06-13T11:28:15Z</time>
      </trkpt>
      <trkpt lat="44.10915" lon="7.1923">
        <ele>2292.151</ele>
        <time>2015-06-13T11:28:19Z</time>
      </trkpt>
      <trkpt lat="44.10907" lon="7.19233">
        <ele>2294.684</ele>
        <time>2015-06-13T11:28:24Z</time>
      </trkpt>
      <trkpt lat="44.10891" lon="7.1923">
        <ele>2307.313</ele>
        <time>2015-06-13T11:28:31Z</time>
      </trkpt>
      <trkpt lat="44.10889" lon="7.19232">
        <ele>2306.337</ele>
        <time>2015-06-13T11:28:33Z</time>
      </trkpt>
      <trkpt lat="44.10886" lon="7.1924">
        <ele>2300.833</ele>
        <time>2015-06-13T11:28:39Z</time>
      </trkpt>
      <trkpt lat="44.10872" lon="7.19241">
        <ele>2277.881</ele>
        <time>2015-06-13T11:29:02Z</time>
      </trkpt>
      <trkpt lat="44.10864" lon="7.19235">
        <ele>2278.848</ele>
        <time>2015-06-13T11:29:09Z</time>
      </trkpt>
      <trkpt lat="44.10862" lon="7.19231">
        <ele>2277.329</ele>
        <time>2015-06-13T11:29:13Z</time>
      </trkpt>
      <trkpt lat="44.10853" lon="7.19227">
        <ele>2272.788</ele>
        <time>2015-06-13T11:29:20Z</time>
      </trkpt>
      <trkpt lat="44.10842" lon="7.19221">
        <ele>2275.153</ele>
        <time>2015-06-13T11:29:27Z</time>
      </trkpt>
      <trkpt lat="44.10834" lon="7.19217">
        <ele>2276.213</ele>
        <time>2015-06-13T11:29:34Z</time>
      </trkpt>
      <trkpt lat="44.10828" lon="7.19213">
        <ele>2279.327</ele>
        <time>2015-06-13T11:29:38Z</time>
      </trkpt>
      <trkpt lat="44.10819" lon="7.19205">
        <ele>2282.779</ele>
        <time>2015-06-13T11:29:45Z</time>
      </trkpt>
      <trkpt lat="44.10816" lon="7.19203">
        <ele>2283.335</ele>
        <time>2015-06-13T11:29:47Z</time>
      </trkpt>
      <trkpt lat="44.10808" lon="7.192">
        <ele>2279.773</ele>
        <time>2015-06-13T11:29:55Z</time>
      </trkpt>
      <trkpt lat="44.108" lon="7.19192">
        <ele>2274.097</ele>
        <time>2015-06-13T11:30:03Z</time>
      </trkpt>
      <trkpt lat="44.10796" lon="7.1919">
        <ele>2272.057</ele>
        <time>2015-06-13T11:30:09Z</time>
      </trkpt>
      <trkpt lat="44.10787" lon="7.19185">
        <ele>2269.888</ele>
        <time>2015-06-13T11:30:16Z</time>
      </trkpt>
      <trkpt lat="44.1078" lon="7.19182">
        <ele>2268.226</ele>
        <time>2015-06-13T11:30:22Z</time>
      </trkpt>
      <trkpt lat="44.10769" lon="7.19178">
        <ele>2268.441</ele>
        <time>2015-06-13T11:30:28Z</time>
      </trkpt>
      <trkpt lat="44.10762" lon="7.19176">
        <ele>2272.135</ele>
        <time>2015-06-13T11:30:33Z</time>
      </trkpt>
      <trkpt lat="44.10758" lon="7.19174">
        <ele>2274.155</ele>
        <time>2015-06-13T11:30:37Z</time>
      </trkpt>
      <trkpt lat="44.10755" lon="7.19174">
        <ele>2271.832</ele>
        <time>2015-06-13T11:30:41Z</time>
      </trkpt>
      <trkpt lat="44.10748" lon="7.19171">
        <ele>2274.587</ele>
        <time>2015-06-13T11:30:47Z</time>
      </trkpt>
      <trkpt lat="44.10737" lon="7.19165">
        <ele>2275.406</ele>
        <time>2015-06-13T11:30:55Z</time>
      </trkpt>
      <trkpt lat="44.10729" lon="7.19161">
        <ele>2276.558</ele>
        <time>2015-06-13T11:31:01Z</time>
      </trkpt>
      <trkpt lat="44.10728" lon="7.19161">
        <ele>2274.926</ele>
        <time>2015-06-13T11:31:03Z</time>
      </trkpt>
      <trkpt lat="44.10724" lon="7.19162">
        <ele>2277.419</ele>
        <time>2015-06-13T11:31:06Z</time>
      </trkpt>
      <trkpt lat="44.10717" lon="7.19158">
        <ele>2277.183</ele>
        <time>2015-06-13T11:31:14Z</time>
      </trkpt>
      <trkpt lat="44.10714" lon="7.19158">
        <ele>2277.724</ele>
        <time>2015-06-13T11:31:16Z</time>
      </trkpt>
      <trkpt lat="44.10704" lon="7.19155">
        <ele>2283.031</ele>
        <time>2015-06-13T11:31:24Z</time>
      </trkpt>
      <trkpt lat="44.10699" lon="7.19151">
        <ele>2286.494</ele>
        <time>2015-06-13T11:31:28Z</time>
      </trkpt>
      <trkpt lat="44.1069" lon="7.19149">
        <ele>2287.492</ele>
        <time>2015-06-13T11:31:35Z</time>
      </trkpt>
      <trkpt lat="44.10689" lon="7.19149">
        <ele>2288.142</ele>
        <time>2015-06-13T11:31:36Z</time>
      </trkpt>
      <trkpt lat="44.10683" lon="7.19147">
        <ele>2287.484</ele>
        <time>2015-06-13T11:31:44Z</time>
      </trkpt>
      <trkpt lat="44.10671" lon="7.19147">
        <ele>2293.484</ele>
        <time>2015-06-13T11:31:54Z</time>
      </trkpt>
      <trkpt lat="44.10663" lon="7.19145">
        <ele>2296.673</ele>
        <time>2015-06-13T11:32:01Z</time>
      </trkpt>
      <trkpt lat="44.10664" lon="7.19144">
        <ele>2278.011</ele>
        <time>2015-06-13T11:32:55Z</time>
      </trkpt>
      <trkpt lat="44.10659" lon="7.19145">
        <ele>2281.736</ele>
        <time>2015-06-13T11:33:02Z</time>
      </trkpt>
      <trkpt lat="44.10651" lon="7.19143">
        <ele>2287.951</ele>
        <time>2015-06-13T11:33:08Z</time>
      </trkpt>
      <trkpt lat="44.10648" lon="7.19141">
        <ele>2283.428</ele>
        <time>2015-06-13T11:33:14Z</time>
      </trkpt>
      <trkpt lat="44.10642" lon="7.19139">
        <ele>2282.121</ele>
        <time>2015-06-13T11:33:20Z</time>
      </trkpt>
      <trkpt lat="44.10633" lon="7.19138">
        <ele>2280.528</ele>
        <time>2015-06-13T11:33:29Z</time>
      </trkpt>
      <trkpt lat="44.10618" lon="7.1913">
        <ele>2278.389</ele>
        <time>2015-06-13T11:33:48Z</time>
      </trkpt>
      <trkpt lat="44.1061" lon="7.19124">
        <ele>2276.661</ele>
        <time>2015-06-13T11:33:56Z</time>
      </trkpt>
      <trkpt lat="44.10601" lon="7.19115">
        <ele>2276.542</ele>
        <time>2015-06-13T11:34:05Z</time>
      </trkpt>
      <trkpt lat="44.10592" lon="7.19107">
        <ele>2272.244</ele>
        <time>2015-06-13T11:34:14Z</time>
      </trkpt>
      <trkpt lat="44.10584" lon="7.19099">
        <ele>2270.873</ele>
        <time>2015-06-13T11:34:22Z</time>
      </trkpt>
      <trkpt lat="44.10581" lon="7.19097">
        <ele>2269.491</ele>
        <time>2015-06-13T11:34:26Z</time>
      </trkpt>
      <trkpt lat="44.10573" lon="7.19095">
        <ele>2267.92</ele>
        <time>2015-06-13T11:34:34Z</time>
      </trkpt>
      <trkpt lat="44.10568" lon="7.19095">
        <ele>2264.697</ele>
        <time>2015-06-13T11:34:40Z</time>
      </trkpt>
      <trkpt lat="44.1056" lon="7.19091">
        <ele>2262.886</ele>
        <time>2015-06-13T11:34:47Z</time>
      </trkpt>
      <trkpt lat="44.10554" lon="7.1909">
        <ele>2263.04</ele>
        <time>2015-06-13T11:34:52Z</time>
      </trkpt>
      <trkpt lat="44.10545" lon="7.1909">
        <ele>2261.94</ele>
        <time>2015-06-13T11:35:00Z</time>
      </trkpt>
      <trkpt lat="44.10543" lon="7.1909">
        <ele>2264.574</ele>
        <time>2015-06-13T11:35:05Z</time>
      </trkpt>
      <trkpt lat="44.1054" lon="7.19089">
        <ele>2263.324</ele>
        <time>2015-06-13T11:35:09Z</time>
      </trkpt>
      <trkpt lat="44.10533" lon="7.19085">
        <ele>2264.124</ele>
        <time>2015-06-13T11:35:14Z</time>
      </trkpt>
      <trkpt lat="44.10524" lon="7.19078">
        <ele>2262.263</ele>
        <time>2015-06-13T11:35:22Z</time>
      </trkpt>
      <trkpt lat="44.10516" lon="7.19071">
        <ele>2259.258</ele>
        <time>2015-06-13T11:35:30Z</time>
      </trkpt>
      <trkpt lat="44.10515" lon="7.1907">
        <ele>2259.801</ele>
        <time>2015-06-13T11:35:31Z</time>
      </trkpt>
      <trkpt lat="44.10513" lon="7.19063">
        <ele>2260.264</ele>
        <time>2015-06-13T11:35:36Z</time>
      </trkpt>
      <trkpt lat="44.10507" lon="7.19053">
        <ele>2258.693</ele>
        <time>2015-06-13T11:35:44Z</time>
      </trkpt>
      <trkpt lat="44.10502" lon="7.19044">
        <ele>2255.402</ele>
        <time>2015-06-13T11:35:51Z</time>
      </trkpt>
      <trkpt lat="44.105" lon="7.19038">
        <ele>2253.377</ele>
        <time>2015-06-13T11:35:55Z</time>
      </trkpt>
      <trkpt lat="44.10496" lon="7.19026">
        <ele>2249.931</ele>
        <time>2015-06-13T11:36:05Z</time>
      </trkpt>
      <trkpt lat="44.10491" lon="7.19018">
        <ele>2252.014</ele>
        <time>2015-06-13T11:36:10Z</time>
      </trkpt>
      <trkpt lat="44.10496" lon="7.19007">
        <ele>2249.421</ele>
        <time>2015-06-13T11:36:17Z</time>
      </trkpt>
      <trkpt lat="44.10502" lon="7.19009">
        <ele>2244.15</ele>
        <time>2015-06-13T11:36:20Z</time>
      </trkpt>
      <trkpt lat="44.10513" lon="7.19009">
        <ele>2242.316</ele>
        <time>2015-06-13T11:36:28Z</time>
      </trkpt>
      <trkpt lat="44.10515" lon="7.19006">
        <ele>2240.244</ele>
        <time>2015-06-13T11:36:30Z</time>
      </trkpt>
      <trkpt lat="44.10513" lon="7.19003">
        <ele>2236.93</ele>
        <time>2015-06-13T11:36:37Z</time>
      </trkpt>
      <trkpt lat="44.10507" lon="7.19003">
        <ele>2240.974</ele>
        <time>2015-06-13T11:36:46Z</time>
      </trkpt>
      <trkpt lat="44.10502" lon="7.18996">
        <ele>2240.233</ele>
        <time>2015-06-13T11:36:52Z</time>
      </trkpt>
      <trkpt lat="44.10497" lon="7.18989">
        <ele>2235.299</ele>
        <time>2015-06-13T11:37:00Z</time>
      </trkpt>
      <trkpt lat="44.10491" lon="7.18979">
        <ele>2231.812</ele>
        <time>2015-06-13T11:37:09Z</time>
      </trkpt>
      <trkpt lat="44.10488" lon="7.18975">
        <ele>2231.452</ele>
        <time>2015-06-13T11:37:13Z</time>
      </trkpt>
      <trkpt lat="44.10485" lon="7.18968">
        <ele>2229.801</ele>
        <time>2015-06-13T11:37:19Z</time>
      </trkpt>
      <trkpt lat="44.10483" lon="7.18963">
        <ele>2229.804</ele>
        <time>2015-06-13T11:37:23Z</time>
      </trkpt>
      <trkpt lat="44.10476" lon="7.18951">
        <ele>2228.033</ele>
        <time>2015-06-13T11:37:32Z</time>
      </trkpt>
      <trkpt lat="44.10471" lon="7.18942">
        <ele>2227.455</ele>
        <time>2015-06-13T11:37:40Z</time>
      </trkpt>
      <trkpt lat="44.10464" lon="7.18935">
        <ele>2227.514</ele>
        <time>2015-06-13T11:37:46Z</time>
      </trkpt>
      <trkpt lat="44.10462" lon="7.18932">
        <ele>2226.632</ele>
        <time>2015-06-13T11:37:49Z</time>
      </trkpt>
      <trkpt lat="44.10461" lon="7.18929">
        <ele>2225.302</ele>
        <time>2015-06-13T11:37:52Z</time>
      </trkpt>
      <trkpt lat="44.10457" lon="7.18923">
        <ele>2224.093</ele>
        <time>2015-06-13T11:37:59Z</time>
      </trkpt>
      <trkpt lat="44.10457" lon="7.18921">
        <ele>2223.442</ele>
        <time>2015-06-13T11:38:01Z</time>
      </trkpt>
      <trkpt lat="44.10458" lon="7.18917">
        <ele>2221.952</ele>
        <time>2015-06-13T11:38:05Z</time>
      </trkpt>
      <trkpt lat="44.10454" lon="7.18914">
        <ele>2221.501</ele>
        <time>2015-06-13T11:38:11Z</time>
      </trkpt>
      <trkpt lat="44.10452" lon="7.18912">
        <ele>2221.782</ele>
        <time>2015-06-13T11:38:13Z</time>
      </trkpt>
      <trkpt lat="44.10448" lon="7.18905">
        <ele>2223.543</ele>
        <time>2015-06-13T11:38:20Z</time>
      </trkpt>
      <trkpt lat="44.1045" lon="7.18905">
        <ele>2219.101</ele>
        <time>2015-06-13T11:38:29Z</time>
      </trkpt>
      <trkpt lat="44.10447" lon="7.18897">
        <ele>2214.447</ele>
        <time>2015-06-13T11:38:36Z</time>
      </trkpt>
      <trkpt lat="44.10445" lon="7.18894">
        <ele>2212.89</ele>
        <time>2015-06-13T11:38:41Z</time>
      </trkpt>
      <trkpt lat="44.1044" lon="7.18888">
        <ele>2214.942</ele>
        <time>2015-06-13T11:38:50Z</time>
      </trkpt>
      <trkpt lat="44.10439" lon="7.18887">
        <ele>2214.941</ele>
        <time>2015-06-13T11:38:52Z</time>
      </trkpt>
      <trkpt lat="44.10434" lon="7.1888">
        <ele>2214.391</ele>
        <time>2015-06-13T11:39:00Z</time>
      </trkpt>
      <trkpt lat="44.10433" lon="7.18879">
        <ele>2212.962</ele>
        <time>2015-06-13T11:39:03Z</time>
      </trkpt>
      <trkpt lat="44.10427" lon="7.18878">
        <ele>2210.186</ele>
        <time>2015-06-13T11:39:11Z</time>
      </trkpt>
      <trkpt lat="44.10425" lon="7.18875">
        <ele>2208.139</ele>
        <time>2015-06-13T11:39:15Z</time>
      </trkpt>
      <trkpt lat="44.10421" lon="7.1887">
        <ele>2207.138</ele>
        <time>2015-06-13T11:39:21Z</time>
      </trkpt>
      <trkpt lat="44.10419" lon="7.18868">
        <ele>2206.376</ele>
        <time>2015-06-13T11:39:24Z</time>
      </trkpt>
      <trkpt lat="44.10415" lon="7.1886">
        <ele>2207.502</ele>
        <time>2015-06-13T11:39:28Z</time>
      </trkpt>
      <trkpt lat="44.10415" lon="7.18856">
        <ele>2205.928</ele>
        <time>2015-06-13T11:39:30Z</time>
      </trkpt>
      <trkpt lat="44.1041" lon="7.18847">
        <ele>2202.621</ele>
        <time>2015-06-13T11:39:37Z</time>
      </trkpt>
      <trkpt lat="44.10404" lon="7.18838">
        <ele>2199.516</ele>
        <time>2015-06-13T11:39:45Z</time>
      </trkpt>
      <trkpt lat="44.10401" lon="7.18833">
        <ele>2199.512</ele>
        <time>2015-06-13T11:39:51Z</time>
      </trkpt>
      <trkpt lat="44.10397" lon="7.18828">
        <ele>2201.073</ele>
        <time>2015-06-13T11:39:57Z</time>
      </trkpt>
      <trkpt lat="44.10396" lon="7.18825">
        <ele>2199.721</ele>
        <time>2015-06-13T11:40:06Z</time>
      </trkpt>
      <trkpt lat="44.10392" lon="7.18823">
        <ele>2202.332</ele>
        <time>2015-06-13T11:40:32Z</time>
      </trkpt>
      <trkpt lat="44.10397" lon="7.18817">
        <ele>2195.389</ele>
        <time>2015-06-13T11:40:49Z</time>
      </trkpt>
      <trkpt lat="44.10391" lon="7.18823">
        <ele>2201.172</ele>
        <time>2015-06-13T11:42:38Z</time>
      </trkpt>
      <trkpt lat="44.10389" lon="7.18821">
        <ele>2200.802</ele>
        <time>2015-06-13T11:42:41Z</time>
      </trkpt>
      <trkpt lat="44.10386" lon="7.18818">
        <ele>2200.612</ele>
        <time>2015-06-13T11:42:45Z</time>
      </trkpt>
      <trkpt lat="44.10377" lon="7.1881">
        <ele>2202.893</ele>
        <time>2015-06-13T11:42:54Z</time>
      </trkpt>
      <trkpt lat="44.10372" lon="7.18806">
        <ele>2201.772</ele>
        <time>2015-06-13T11:43:00Z</time>
      </trkpt>
      <trkpt lat="44.10366" lon="7.18799">
        <ele>2203.074</ele>
        <time>2015-06-13T11:43:07Z</time>
      </trkpt>
      <trkpt lat="44.1036" lon="7.18794">
        <ele>2205.115</ele>
        <time>2015-06-13T11:43:14Z</time>
      </trkpt>
      <trkpt lat="44.10353" lon="7.18784">
        <ele>2207.004</ele>
        <time>2015-06-13T11:43:22Z</time>
      </trkpt>
      <trkpt lat="44.10346" lon="7.18776">
        <ele>2206.634</ele>
        <time>2015-06-13T11:43:29Z</time>
      </trkpt>
      <trkpt lat="44.10339" lon="7.18767">
        <ele>2205.533</ele>
        <time>2015-06-13T11:43:36Z</time>
      </trkpt>
      <trkpt lat="44.10335" lon="7.18759">
        <ele>2204.449</ele>
        <time>2015-06-13T11:43:42Z</time>
      </trkpt>
      <trkpt lat="44.10327" lon="7.18748">
        <ele>2203.021</ele>
        <time>2015-06-13T11:43:51Z</time>
      </trkpt>
      <trkpt lat="44.10319" lon="7.18737">
        <ele>2200.11</ele>
        <time>2015-06-13T11:43:58Z</time>
      </trkpt>
      <trkpt lat="44.10311" lon="7.18726">
        <ele>2196.5</ele>
        <time>2015-06-13T11:44:06Z</time>
      </trkpt>
      <trkpt lat="44.10306" lon="7.18719">
        <ele>2197.81</ele>
        <time>2015-06-13T11:44:11Z</time>
      </trkpt>
      <trkpt lat="44.10305" lon="7.18716">
        <ele>2197.71</ele>
        <time>2015-06-13T11:44:13Z</time>
      </trkpt>
      <trkpt lat="44.10303" lon="7.18707">
        <ele>2196.661</ele>
        <time>2015-06-13T11:44:19Z</time>
      </trkpt>
      <trkpt lat="44.10303" lon="7.18702">
        <ele>2194.2</ele>
        <time>2015-06-13T11:44:22Z</time>
      </trkpt>
      <trkpt lat="44.103" lon="7.18688">
        <ele>2186.777</ele>
        <time>2015-06-13T11:44:33Z</time>
      </trkpt>
      <trkpt lat="44.10296" lon="7.1868">
        <ele>2185.739</ele>
        <time>2015-06-13T11:44:40Z</time>
      </trkpt>
      <trkpt lat="44.10294" lon="7.18671">
        <ele>2185.629</ele>
        <time>2015-06-13T11:44:46Z</time>
      </trkpt>
      <trkpt lat="44.10286" lon="7.18659">
        <ele>2188.741</ele>
        <time>2015-06-13T11:44:53Z</time>
      </trkpt>
      <trkpt lat="44.10283" lon="7.18653">
        <ele>2187.61</ele>
        <time>2015-06-13T11:44:56Z</time>
      </trkpt>
      <trkpt lat="44.1028" lon="7.1864">
        <ele>2186.92</ele>
        <time>2015-06-13T11:45:03Z</time>
      </trkpt>
      <trkpt lat="44.10278" lon="7.18634">
        <ele>2190.413</ele>
        <time>2015-06-13T11:45:10Z</time>
      </trkpt>
      <trkpt lat="44.10278" lon="7.18632">
        <ele>2190.873</ele>
        <time>2015-06-13T11:45:11Z</time>
      </trkpt>
      <trkpt lat="44.10272" lon="7.1862">
        <ele>2198.396</ele>
        <time>2015-06-13T11:45:19Z</time>
      </trkpt>
      <trkpt lat="44.10272" lon="7.1862">
        <ele>2191.099</ele>
        <time>2015-06-13T11:45:27Z</time>
      </trkpt>
      <trkpt lat="44.10271" lon="7.18617">
        <ele>2191.5</ele>
        <time>2015-06-13T11:45:32Z</time>
      </trkpt>
      <trkpt lat="44.10263" lon="7.18615">
        <ele>2178.017</ele>
        <time>2015-06-13T11:45:56Z</time>
      </trkpt>
      <trkpt lat="44.10259" lon="7.18611">
        <ele>2175.578</ele>
        <time>2015-06-13T11:46:01Z</time>
      </trkpt>
      <trkpt lat="44.10257" lon="7.1861">
        <ele>2175.619</ele>
        <time>2015-06-13T11:46:07Z</time>
      </trkpt>
      <trkpt lat="44.10253" lon="7.18603">
        <ele>2175.41</ele>
        <time>2015-06-13T11:46:12Z</time>
      </trkpt>
      <trkpt lat="44.10251" lon="7.18601">
        <ele>2175.17</ele>
        <time>2015-06-13T11:46:14Z</time>
      </trkpt>
      <trkpt lat="44.10242" lon="7.18597">
        <ele>2180.943</ele>
        <time>2015-06-13T11:46:21Z</time>
      </trkpt>
      <trkpt lat="44.1024" lon="7.18595">
        <ele>2182.973</ele>
        <time>2015-06-13T11:46:26Z</time>
      </trkpt>
      <trkpt lat="44.10233" lon="7.18592">
        <ele>2197.552</ele>
        <time>2015-06-13T11:46:33Z</time>
      </trkpt>
      <trkpt lat="44.10232" lon="7.18586">
        <ele>2201.376</ele>
        <time>2015-06-13T11:46:42Z</time>
      </trkpt>
      <trkpt lat="44.10228" lon="7.18585">
        <ele>2202.965</ele>
        <time>2015-06-13T11:46:47Z</time>
      </trkpt>
      <trkpt lat="44.10226" lon="7.18583">
        <ele>2201.243</ele>
        <time>2015-06-13T11:46:49Z</time>
      </trkpt>
      <trkpt lat="44.10223" lon="7.18584">
        <ele>2199.382</ele>
        <time>2015-06-13T11:46:54Z</time>
      </trkpt>
      <trkpt lat="44.1022" lon="7.18584">
        <ele>2199.112</ele>
        <time>2015-06-13T11:46:57Z</time>
      </trkpt>
      <trkpt lat="44.10221" lon="7.18589">
        <ele>2181.176</ele>
        <time>2015-06-13T11:47:01Z</time>
      </trkpt>
      <trkpt lat="44.10216" lon="7.18585">
        <ele>2174.386</ele>
        <time>2015-06-13T11:47:06Z</time>
      </trkpt>
      <trkpt lat="44.10213" lon="7.18583">
        <ele>2170.569</ele>
        <time>2015-06-13T11:47:13Z</time>
      </trkpt>
      <trkpt lat="44.1021" lon="7.18582">
        <ele>2171.31</ele>
        <time>2015-06-13T11:47:21Z</time>
      </trkpt>
      <trkpt lat="44.10204" lon="7.18579">
        <ele>2172.103</ele>
        <time>2015-06-13T11:47:28Z</time>
      </trkpt>
      <trkpt lat="44.10199" lon="7.18575">
        <ele>2171.591</ele>
        <time>2015-06-13T11:47:36Z</time>
      </trkpt>
      <trkpt lat="44.10198" lon="7.18575">
        <ele>2171.932</ele>
        <time>2015-06-13T11:47:37Z</time>
      </trkpt>
      <trkpt lat="44.10193" lon="7.18573">
        <ele>2175.193</ele>
        <time>2015-06-13T11:47:41Z</time>
      </trkpt>
      <trkpt lat="44.10184" lon="7.18566">
        <ele>2171.17</ele>
        <time>2015-06-13T11:47:49Z</time>
      </trkpt>
      <trkpt lat="44.10181" lon="7.18563">
        <ele>2170.13</ele>
        <time>2015-06-13T11:47:51Z</time>
      </trkpt>
      <trkpt lat="44.10177" lon="7.18556">
        <ele>2167.919</ele>
        <time>2015-06-13T11:47:58Z</time>
      </trkpt>
      <trkpt lat="44.10172" lon="7.1855">
        <ele>2167.31</ele>
        <time>2015-06-13T11:48:05Z</time>
      </trkpt>
      <trkpt lat="44.10168" lon="7.18545">
        <ele>2168.84</ele>
        <time>2015-06-13T11:48:10Z</time>
      </trkpt>
      <trkpt lat="44.10159" lon="7.18541">
        <ele>2165.199</ele>
        <time>2015-06-13T11:48:17Z</time>
      </trkpt>
      <trkpt lat="44.10157" lon="7.18539">
        <ele>2165.369</ele>
        <time>2015-06-13T11:48:20Z</time>
      </trkpt>
      <trkpt lat="44.10161" lon="7.1854">
        <ele>2167.802</ele>
        <time>2015-06-13T11:48:28Z</time>
      </trkpt>
      <trkpt lat="44.10161" lon="7.18544">
        <ele>2168.912</ele>
        <time>2015-06-13T11:48:35Z</time>
      </trkpt>
      <trkpt lat="44.10159" lon="7.18542">
        <ele>2164.69</ele>
        <time>2015-06-13T11:48:51Z</time>
      </trkpt>
      <trkpt lat="44.10158" lon="7.18542">
        <ele>2163.86</ele>
        <time>2015-06-13T11:48:58Z</time>
      </trkpt>
      <trkpt lat="44.10159" lon="7.18538">
        <ele>2162.841</ele>
        <time>2015-06-13T11:49:01Z</time>
      </trkpt>
      <trkpt lat="44.10152" lon="7.1853">
        <ele>2162.141</ele>
        <time>2015-06-13T11:49:10Z</time>
      </trkpt>
      <trkpt lat="44.10147" lon="7.1852">
        <ele>2155.248</ele>
        <time>2015-06-13T11:49:18Z</time>
      </trkpt>
      <trkpt lat="44.10141" lon="7.18511">
        <ele>2154.959</ele>
        <time>2015-06-13T11:49:24Z</time>
      </trkpt>
      <trkpt lat="44.10137" lon="7.18504">
        <ele>2155.029</ele>
        <time>2015-06-13T11:49:28Z</time>
      </trkpt>
      <trkpt lat="44.10131" lon="7.18496">
        <ele>2155.061</ele>
        <time>2015-06-13T11:49:34Z</time>
      </trkpt>
      <trkpt lat="44.10121" lon="7.18486">
        <ele>2156.912</ele>
        <time>2015-06-13T11:49:43Z</time>
      </trkpt>
      <trkpt lat="44.10118" lon="7.18475">
        <ele>2160.303</ele>
        <time>2015-06-13T11:49:50Z</time>
      </trkpt>
      <trkpt lat="44.10115" lon="7.18468">
        <ele>2162.793</ele>
        <time>2015-06-13T11:49:55Z</time>
      </trkpt>
      <trkpt lat="44.10106" lon="7.18455">
        <ele>2164.052</ele>
        <time>2015-06-13T11:50:04Z</time>
      </trkpt>
      <trkpt lat="44.10098" lon="7.18443">
        <ele>2163.851</ele>
        <time>2015-06-13T11:50:12Z</time>
      </trkpt>
      <trkpt lat="44.10094" lon="7.18434">
        <ele>2161.51</ele>
        <time>2015-06-13T11:50:20Z</time>
      </trkpt>
      <trkpt lat="44.10093" lon="7.18429">
        <ele>2159.05</ele>
        <time>2015-06-13T11:50:23Z</time>
      </trkpt>
      <trkpt lat="44.10091" lon="7.18427">
        <ele>2157.739</ele>
        <time>2015-06-13T11:50:26Z</time>
      </trkpt>
      <trkpt lat="44.10082" lon="7.18418">
        <ele>2154.169</ele>
        <time>2015-06-13T11:50:35Z</time>
      </trkpt>
      <trkpt lat="44.10083" lon="7.18413">
        <ele>2156.321</ele>
        <time>2015-06-13T11:50:38Z</time>
      </trkpt>
      <trkpt lat="44.10087" lon="7.18407">
        <ele>2158.131</ele>
        <time>2015-06-13T11:50:45Z</time>
      </trkpt>
      <trkpt lat="44.10087" lon="7.18408">
        <ele>2160.652</ele>
        <time>2015-06-13T11:50:52Z</time>
      </trkpt>
      <trkpt lat="44.10092" lon="7.18407">
        <ele>2159.859</ele>
        <time>2015-06-13T11:51:19Z</time>
      </trkpt>
      <trkpt lat="44.10096" lon="7.18408">
        <ele>2155.728</ele>
        <time>2015-06-13T11:51:25Z</time>
      </trkpt>
      <trkpt lat="44.10103" lon="7.1841">
        <ele>2155.059</ele>
        <time>2015-06-13T11:51:33Z</time>
      </trkpt>
      <trkpt lat="44.10112" lon="7.18414">
        <ele>2154.899</ele>
        <time>2015-06-13T11:51:41Z</time>
      </trkpt>
      <trkpt lat="44.10114" lon="7.18416">
        <ele>2155.711</ele>
        <time>2015-06-13T11:51:44Z</time>
      </trkpt>
      <trkpt lat="44.10119" lon="7.18419">
        <ele>2156.911</ele>
        <time>2015-06-13T11:51:50Z</time>
      </trkpt>
      <trkpt lat="44.10121" lon="7.18421">
        <ele>2158.342</ele>
        <time>2015-06-13T11:51:53Z</time>
      </trkpt>
      <trkpt lat="44.10123" lon="7.18422">
        <ele>2158.552</ele>
        <time>2015-06-13T11:51:55Z</time>
      </trkpt>
      <trkpt lat="44.10132" lon="7.18427">
        <ele>2158.541</ele>
        <time>2015-06-13T11:52:03Z</time>
      </trkpt>
      <trkpt lat="44.10137" lon="7.18433">
        <ele>2155.199</ele>
        <time>2015-06-13T11:52:10Z</time>
      </trkpt>
      <trkpt lat="44.10141" lon="7.18442">
        <ele>2156.121</ele>
        <time>2015-06-13T11:52:17Z</time>
      </trkpt>
      <trkpt lat="44.10145" lon="7.18456">
        <ele>2158.291</ele>
        <time>2015-06-13T11:52:24Z</time>
      </trkpt>
      <trkpt lat="44.10147" lon="7.18461">
        <ele>2157.768</ele>
        <time>2015-06-13T11:52:27Z</time>
      </trkpt>
      <trkpt lat="44.10153" lon="7.18472">
        <ele>2154.519</ele>
        <time>2015-06-13T11:52:37Z</time>
      </trkpt>
      <trkpt lat="44.10159" lon="7.18483">
        <ele>2155.309</ele>
        <time>2015-06-13T11:52:44Z</time>
      </trkpt>
      <trkpt lat="44.10163" lon="7.18487">
        <ele>2154.847</ele>
        <time>2015-06-13T11:52:48Z</time>
      </trkpt>
      <trkpt lat="44.10176" lon="7.18495">
        <ele>2151.615</ele>
        <time>2015-06-13T11:52:54Z</time>
      </trkpt>
      <trkpt lat="44.10183" lon="7.18501">
        <ele>2147.038</ele>
        <time>2015-06-13T11:53:00Z</time>
      </trkpt>
      <trkpt lat="44.10186" lon="7.18504">
        <ele>2145.415</ele>
        <time>2015-06-13T11:53:01Z</time>
      </trkpt>
      <trkpt lat="44.10191" lon="7.18509">
        <ele>2142.713</ele>
        <time>2015-06-13T11:53:04Z</time>
      </trkpt>
      <trkpt lat="44.10198" lon="7.18517">
        <ele>2135.039</ele>
        <time>2015-06-13T11:53:11Z</time>
      </trkpt>
      <trkpt lat="44.10205" lon="7.18519">
        <ele>2127.73</ele>
        <time>2015-06-13T11:53:17Z</time>
      </trkpt>
      <trkpt lat="44.10217" lon="7.18525">
        <ele>2118.85</ele>
        <time>2015-06-13T11:53:23Z</time>
      </trkpt>
      <trkpt lat="44.10227" lon="7.18527">
        <ele>2123.666</ele>
        <time>2015-06-13T11:53:30Z</time>
      </trkpt>
      <trkpt lat="44.10231" lon="7.18522">
        <ele>2131.639</ele>
        <time>2015-06-13T11:53:36Z</time>
      </trkpt>
      <trkpt lat="44.10231" lon="7.18519">
        <ele>2134.771</ele>
        <time>2015-06-13T11:53:37Z</time>
      </trkpt>
      <trkpt lat="44.10232" lon="7.18517">
        <ele>2137.714</ele>
        <time>2015-06-13T11:53:39Z</time>
      </trkpt>
      <trkpt lat="44.10239" lon="7.1851">
        <ele>2141.207</ele>
        <time>2015-06-13T11:53:47Z</time>
      </trkpt>
      <trkpt lat="44.10246" lon="7.18506">
        <ele>2144.243</ele>
        <time>2015-06-13T11:53:52Z</time>
      </trkpt>
      <trkpt lat="44.10247" lon="7.18503">
        <ele>2149.082</ele>
        <time>2015-06-13T11:53:54Z</time>
      </trkpt>
      <trkpt lat="44.1025" lon="7.18501">
        <ele>2148.891</ele>
        <time>2015-06-13T11:53:56Z</time>
      </trkpt>
      <trkpt lat="44.10254" lon="7.18501">
        <ele>2138.777</ele>
        <time>2015-06-13T11:54:00Z</time>
      </trkpt>
      <trkpt lat="44.1025" lon="7.18502">
        <ele>2131.523</ele>
        <time>2015-06-13T11:54:05Z</time>
      </trkpt>
      <trkpt lat="44.10249" lon="7.18501">
        <ele>2117.54</ele>
        <time>2015-06-13T11:54:12Z</time>
      </trkpt>
      <trkpt lat="44.10249" lon="7.18498">
        <ele>2117.396</ele>
        <time>2015-06-13T11:54:14Z</time>
      </trkpt>
      <trkpt lat="44.10246" lon="7.18489">
        <ele>2114.003</ele>
        <time>2015-06-13T11:54:19Z</time>
      </trkpt>
      <trkpt lat="44.10245" lon="7.18488">
        <ele>2113.346</ele>
        <time>2015-06-13T11:54:20Z</time>
      </trkpt>
      <trkpt lat="44.10242" lon="7.18483">
        <ele>2111.454</ele>
        <time>2015-06-13T11:54:27Z</time>
      </trkpt>
      <trkpt lat="44.10241" lon="7.1848">
        <ele>2111.931</ele>
        <time>2015-06-13T11:54:29Z</time>
      </trkpt>
      <trkpt lat="44.10238" lon="7.18475">
        <ele>2117.396</ele>
        <time>2015-06-13T11:54:31Z</time>
      </trkpt>
      <trkpt lat="44.10239" lon="7.18465">
        <ele>2116.095</ele>
        <time>2015-06-13T11:54:37Z</time>
      </trkpt>
      <trkpt lat="44.10239" lon="7.18462">
        <ele>2113.783</ele>
        <time>2015-06-13T11:54:39Z</time>
      </trkpt>
      <trkpt lat="44.10241" lon="7.18462">
        <ele>2107.368</ele>
        <time>2015-06-13T11:54:42Z</time>
      </trkpt>
      <trkpt lat="44.10246" lon="7.18457">
        <ele>2107.247</ele>
        <time>2015-06-13T11:54:48Z</time>
      </trkpt>
      <trkpt lat="44.1025" lon="7.18454">
        <ele>2108.547</ele>
        <time>2015-06-13T11:54:54Z</time>
      </trkpt>
      <trkpt lat="44.10249" lon="7.18453">
        <ele>2107.697</ele>
        <time>2015-06-13T11:54:58Z</time>
      </trkpt>
      <trkpt lat="44.10248" lon="7.18445">
        <ele>2112.761</ele>
        <time>2015-06-13T11:55:03Z</time>
      </trkpt>
      <trkpt lat="44.10249" lon="7.18439">
        <ele>2115.064</ele>
        <time>2015-06-13T11:55:08Z</time>
      </trkpt>
      <trkpt lat="44.10245" lon="7.18428">
        <ele>2116.923</ele>
        <time>2015-06-13T11:55:14Z</time>
      </trkpt>
      <trkpt lat="44.10244" lon="7.18425">
        <ele>2116.211</ele>
        <time>2015-06-13T11:55:16Z</time>
      </trkpt>
      <trkpt lat="44.10237" lon="7.18417">
        <ele>2120.965</ele>
        <time>2015-06-13T11:55:21Z</time>
      </trkpt>
      <trkpt lat="44.10238" lon="7.18412">
        <ele>2118.652</ele>
        <time>2015-06-13T11:55:25Z</time>
      </trkpt>
      <trkpt lat="44.10237" lon="7.18409">
        <ele>2117.549</ele>
        <time>2015-06-13T11:55:28Z</time>
      </trkpt>
      <trkpt lat="44.10236" lon="7.18403">
        <ele>2114.877</ele>
        <time>2015-06-13T11:55:32Z</time>
      </trkpt>
      <trkpt lat="44.10238" lon="7.18401">
        <ele>2114.37</ele>
        <time>2015-06-13T11:55:34Z</time>
      </trkpt>
      <trkpt lat="44.10242" lon="7.18401">
        <ele>2114.65</ele>
        <time>2015-06-13T11:55:40Z</time>
      </trkpt>
      <trkpt lat="44.10245" lon="7.18402">
        <ele>2114.34</ele>
        <time>2015-06-13T11:55:45Z</time>
      </trkpt>
      <trkpt lat="44.10246" lon="7.18405">
        <ele>2113.401</ele>
        <time>2015-06-13T11:55:53Z</time>
      </trkpt>
      <trkpt lat="44.10245" lon="7.18405">
        <ele>2108.657</ele>
        <time>2015-06-13T11:55:59Z</time>
      </trkpt>
      <trkpt lat="44.10247" lon="7.18405">
        <ele>2108.165</ele>
        <time>2015-06-13T11:56:01Z</time>
      </trkpt>
      <trkpt lat="44.10259" lon="7.18408">
        <ele>2109.25</ele>
        <time>2015-06-13T11:56:08Z</time>
      </trkpt>
      <trkpt lat="44.10267" lon="7.18411">
        <ele>2109.791</ele>
        <time>2015-06-13T11:56:14Z</time>
      </trkpt>
      <trkpt lat="44.10272" lon="7.18414">
        <ele>2111.203</ele>
        <time>2015-06-13T11:56:18Z</time>
      </trkpt>
      <trkpt lat="44.1028" lon="7.18418">
        <ele>2115.421</ele>
        <time>2015-06-13T11:56:25Z</time>
      </trkpt>
      <trkpt lat="44.10289" lon="7.18423">
        <ele>2117.333</ele>
        <time>2015-06-13T11:56:30Z</time>
      </trkpt>
      <trkpt lat="44.10295" lon="7.18426">
        <ele>2118.955</ele>
        <time>2015-06-13T11:56:34Z</time>
      </trkpt>
      <trkpt lat="44.10305" lon="7.18429">
        <ele>2116.036</ele>
        <time>2015-06-13T11:56:40Z</time>
      </trkpt>
      <trkpt lat="44.10303" lon="7.18424">
        <ele>2110.774</ele>
        <time>2015-06-13T11:56:45Z</time>
      </trkpt>
      <trkpt lat="44.10304" lon="7.18422">
        <ele>2109.943</ele>
        <time>2015-06-13T11:56:47Z</time>
      </trkpt>
      <trkpt lat="44.10306" lon="7.18423">
        <ele>2108.517</ele>
        <time>2015-06-13T11:56:49Z</time>
      </trkpt>
      <trkpt lat="44.10309" lon="7.18422">
        <ele>2103.202</ele>
        <time>2015-06-13T11:56:53Z</time>
      </trkpt>
      <trkpt lat="44.10315" lon="7.18418">
        <ele>2100.445</ele>
        <time>2015-06-13T11:56:58Z</time>
      </trkpt>
      <trkpt lat="44.10318" lon="7.18406">
        <ele>2096.994</ele>
        <time>2015-06-13T11:57:03Z</time>
      </trkpt>
      <trkpt lat="44.10319" lon="7.18399">
        <ele>2096.056</ele>
        <time>2015-06-13T11:57:06Z</time>
      </trkpt>
      <trkpt lat="44.10324" lon="7.18385">
        <ele>2092.591</ele>
        <time>2015-06-13T11:57:13Z</time>
      </trkpt>
      <trkpt lat="44.10326" lon="7.18375">
        <ele>2091.679</ele>
        <time>2015-06-13T11:57:17Z</time>
      </trkpt>
      <trkpt lat="44.10327" lon="7.18364">
        <ele>2092.501</ele>
        <time>2015-06-13T11:57:23Z</time>
      </trkpt>
      <trkpt lat="44.1033" lon="7.18353">
        <ele>2090.877</ele>
        <time>2015-06-13T11:57:28Z</time>
      </trkpt>
      <trkpt lat="44.10333" lon="7.18344">
        <ele>2089.797</ele>
        <time>2015-06-13T11:57:32Z</time>
      </trkpt>
      <trkpt lat="44.10334" lon="7.18338">
        <ele>2087.474</ele>
        <time>2015-06-13T11:57:37Z</time>
      </trkpt>
      <trkpt lat="44.10335" lon="7.18332">
        <ele>2085.481</ele>
        <time>2015-06-13T11:57:41Z</time>
      </trkpt>
      <trkpt lat="44.10332" lon="7.18326">
        <ele>2082.363</ele>
        <time>2015-06-13T11:57:45Z</time>
      </trkpt>
      <trkpt lat="44.10328" lon="7.18322">
        <ele>2079.755</ele>
        <time>2015-06-13T11:57:49Z</time>
      </trkpt>
      <trkpt lat="44.10327" lon="7.18319">
        <ele>2080.427</ele>
        <time>2015-06-13T11:57:54Z</time>
      </trkpt>
      <trkpt lat="44.10327" lon="7.18317">
        <ele>2080.62</ele>
        <time>2015-06-13T11:57:57Z</time>
      </trkpt>
      <trkpt lat="44.10328" lon="7.18314">
        <ele>2077.908</ele>
        <time>2015-06-13T11:58:05Z</time>
      </trkpt>
      <trkpt lat="44.10328" lon="7.18312">
        <ele>2077.559</ele>
        <time>2015-06-13T11:58:12Z</time>
      </trkpt>
      <trkpt lat="44.10329" lon="7.18308">
        <ele>2076.033</ele>
        <time>2015-06-13T11:58:18Z</time>
      </trkpt>
      <trkpt lat="44.10325" lon="7.18305">
        <ele>2076.571</ele>
        <time>2015-06-13T11:58:25Z</time>
      </trkpt>
      <trkpt lat="44.10326" lon="7.18305">
        <ele>2076.559</ele>
        <time>2015-06-13T11:58:33Z</time>
      </trkpt>
      <trkpt lat="44.10331" lon="7.183">
        <ele>2076.337</ele>
        <time>2015-06-13T11:58:37Z</time>
      </trkpt>
      <trkpt lat="44.1033" lon="7.18291">
        <ele>2075.26</ele>
        <time>2015-06-13T11:58:42Z</time>
      </trkpt>
      <trkpt lat="44.10327" lon="7.18283">
        <ele>2073.348</ele>
        <time>2015-06-13T11:58:48Z</time>
      </trkpt>
      <trkpt lat="44.10324" lon="7.1828">
        <ele>2073.319</ele>
        <time>2015-06-13T11:58:51Z</time>
      </trkpt>
      <trkpt lat="44.10321" lon="7.18273">
        <ele>2067.445</ele>
        <time>2015-06-13T11:58:56Z</time>
      </trkpt>
      <trkpt lat="44.10322" lon="7.18261">
        <ele>2059.948</ele>
        <time>2015-06-13T11:59:03Z</time>
      </trkpt>
      <trkpt lat="44.10318" lon="7.18254">
        <ele>2058.791</ele>
        <time>2015-06-13T11:59:08Z</time>
      </trkpt>
      <trkpt lat="44.10315" lon="7.18247">
        <ele>2057.622</ele>
        <time>2015-06-13T11:59:12Z</time>
      </trkpt>
      <trkpt lat="44.10314" lon="7.18236">
        <ele>2055.435</ele>
        <time>2015-06-13T11:59:17Z</time>
      </trkpt>
      <trkpt lat="44.10322" lon="7.18227">
        <ele>2059.515</ele>
        <time>2015-06-13T11:59:23Z</time>
      </trkpt>
      <trkpt lat="44.10327" lon="7.18225">
        <ele>2059.202</ele>
        <time>2015-06-13T11:59:26Z</time>
      </trkpt>
      <trkpt lat="44.10335" lon="7.18219">
        <ele>2059.859</ele>
        <time>2015-06-13T11:59:33Z</time>
      </trkpt>
      <trkpt lat="44.10338" lon="7.18212">
        <ele>2057.927</ele>
        <time>2015-06-13T11:59:37Z</time>
      </trkpt>
      <trkpt lat="44.10333" lon="7.18203">
        <ele>2056.5</ele>
        <time>2015-06-13T11:59:43Z</time>
      </trkpt>
      <trkpt lat="44.10329" lon="7.18197">
        <ele>2054.981</ele>
        <time>2015-06-13T11:59:50Z</time>
      </trkpt>
      <trkpt lat="44.10327" lon="7.18195">
        <ele>2057.302</ele>
        <time>2015-06-13T11:59:55Z</time>
      </trkpt>
      <trkpt lat="44.10324" lon="7.18194">
        <ele>2055.93</ele>
        <time>2015-06-13T11:59:59Z</time>
      </trkpt>
      <trkpt lat="44.10321" lon="7.18191">
        <ele>2054.099</ele>
        <time>2015-06-13T12:00:03Z</time>
      </trkpt>
      <trkpt lat="44.10321" lon="7.18188">
        <ele>2056.725</ele>
        <time>2015-06-13T12:00:08Z</time>
      </trkpt>
      <trkpt lat="44.1032" lon="7.18189">
        <ele>2059.211</ele>
        <time>2015-06-13T12:00:14Z</time>
      </trkpt>
      <trkpt lat="44.10318" lon="7.18188">
        <ele>2060.515</ele>
        <time>2015-06-13T12:00:26Z</time>
      </trkpt>
      <trkpt lat="44.10317" lon="7.18187">
        <ele>2061.136</ele>
        <time>2015-06-13T12:00:28Z</time>
      </trkpt>
      <trkpt lat="44.1031" lon="7.18179">
        <ele>2057.24</ele>
        <time>2015-06-13T12:00:34Z</time>
      </trkpt>
      <trkpt lat="44.10308" lon="7.18175">
        <ele>2054.073</ele>
        <time>2015-06-13T12:00:38Z</time>
      </trkpt>
      <trkpt lat="44.10301" lon="7.18168">
        <ele>2049.282</ele>
        <time>2015-06-13T12:00:44Z</time>
      </trkpt>
      <trkpt lat="44.10292" lon="7.18161">
        <ele>2049.447</ele>
        <time>2015-06-13T12:00:50Z</time>
      </trkpt>
      <trkpt lat="44.10289" lon="7.18157">
        <ele>2049.25</ele>
        <time>2015-06-13T12:00:52Z</time>
      </trkpt>
      <trkpt lat="44.10287" lon="7.18153">
        <ele>2051.028</ele>
        <time>2015-06-13T12:00:55Z</time>
      </trkpt>
      <trkpt lat="44.10279" lon="7.1815">
        <ele>2049.535</ele>
        <time>2015-06-13T12:01:01Z</time>
      </trkpt>
      <trkpt lat="44.10278" lon="7.18148">
        <ele>2047.597</ele>
        <time>2015-06-13T12:01:02Z</time>
      </trkpt>
      <trkpt lat="44.10276" lon="7.18145">
        <ele>2046.227</ele>
        <time>2015-06-13T12:01:04Z</time>
      </trkpt>
      <trkpt lat="44.10272" lon="7.1814">
        <ele>2046.508</ele>
        <time>2015-06-13T12:01:08Z</time>
      </trkpt>
      <trkpt lat="44.10265" lon="7.18137">
        <ele>2047.366</ele>
        <time>2015-06-13T12:01:12Z</time>
      </trkpt>
      <trkpt lat="44.10254" lon="7.18134">
        <ele>2047.717</ele>
        <time>2015-06-13T12:01:19Z</time>
      </trkpt>
      <trkpt lat="44.10246" lon="7.18128">
        <ele>2047.547</ele>
        <time>2015-06-13T12:01:24Z</time>
      </trkpt>
      <trkpt lat="44.1024" lon="7.18124">
        <ele>2046.899</ele>
        <time>2015-06-13T12:01:29Z</time>
      </trkpt>
      <trkpt lat="44.10236" lon="7.18122">
        <ele>2044.801</ele>
        <time>2015-06-13T12:01:32Z</time>
      </trkpt>
      <trkpt lat="44.10231" lon="7.18117">
        <ele>2044.639</ele>
        <time>2015-06-13T12:01:39Z</time>
      </trkpt>
      <trkpt lat="44.10231" lon="7.18116">
        <ele>2040.18</ele>
        <time>2015-06-13T12:01:42Z</time>
      </trkpt>
      <trkpt lat="44.10225" lon="7.18111">
        <ele>2039.743</ele>
        <time>2015-06-13T12:01:47Z</time>
      </trkpt>
      <trkpt lat="44.10222" lon="7.18107">
        <ele>2042.911</ele>
        <time>2015-06-13T12:01:51Z</time>
      </trkpt>
      <trkpt lat="44.10216" lon="7.181">
        <ele>2045.081</ele>
        <time>2015-06-13T12:01:57Z</time>
      </trkpt>
      <trkpt lat="44.10212" lon="7.18099">
        <ele>2046.372</ele>
        <time>2015-06-13T12:02:00Z</time>
      </trkpt>
      <trkpt lat="44.10207" lon="7.18094">
        <ele>2045.939</ele>
        <time>2015-06-13T12:02:06Z</time>
      </trkpt>
      <trkpt lat="44.10202" lon="7.18092">
        <ele>2046.151</ele>
        <time>2015-06-13T12:02:11Z</time>
      </trkpt>
      <trkpt lat="44.10198" lon="7.18085">
        <ele>2045.041</ele>
        <time>2015-06-13T12:02:18Z</time>
      </trkpt>
      <trkpt lat="44.10194" lon="7.18083">
        <ele>2046.14</ele>
        <time>2015-06-13T12:02:26Z</time>
      </trkpt>
      <trkpt lat="44.10189" lon="7.18073">
        <ele>2040.063</ele>
        <time>2015-06-13T12:02:33Z</time>
      </trkpt>
      <trkpt lat="44.10182" lon="7.18066">
        <ele>2042.25</ele>
        <time>2015-06-13T12:02:40Z</time>
      </trkpt>
      <trkpt lat="44.10174" lon="7.18061">
        <ele>2041.059</ele>
        <time>2015-06-13T12:02:46Z</time>
      </trkpt>
      <trkpt lat="44.10167" lon="7.18057">
        <ele>2039.566</ele>
        <time>2015-06-13T12:02:52Z</time>
      </trkpt>
      <trkpt lat="44.10167" lon="7.18056">
        <ele>2039.044</ele>
        <time>2015-06-13T12:02:53Z</time>
      </trkpt>
      <trkpt lat="44.10161" lon="7.18049">
        <ele>2033.219</ele>
        <time>2015-06-13T12:03:00Z</time>
      </trkpt>
      <trkpt lat="44.10159" lon="7.18044">
        <ele>2029.129</ele>
        <time>2015-06-13T12:03:04Z</time>
      </trkpt>
      <trkpt lat="44.10153" lon="7.18038">
        <ele>2024.139</ele>
        <time>2015-06-13T12:03:10Z</time>
      </trkpt>
      <trkpt lat="44.10149" lon="7.18034">
        <ele>2020.146</ele>
        <time>2015-06-13T12:03:13Z</time>
      </trkpt>
      <trkpt lat="44.10141" lon="7.18027">
        <ele>2015.464</ele>
        <time>2015-06-13T12:03:20Z</time>
      </trkpt>
      <trkpt lat="44.10136" lon="7.18024">
        <ele>2016.356</ele>
        <time>2015-06-13T12:03:24Z</time>
      </trkpt>
      <trkpt lat="44.10134" lon="7.18021">
        <ele>2017.451</ele>
        <time>2015-06-13T12:03:27Z</time>
      </trkpt>
      <trkpt lat="44.10125" lon="7.18014">
        <ele>2028.525</ele>
        <time>2015-06-13T12:03:33Z</time>
      </trkpt>
      <trkpt lat="44.10123" lon="7.18012">
        <ele>2032.065</ele>
        <time>2015-06-13T12:03:38Z</time>
      </trkpt>
      <trkpt lat="44.10123" lon="7.18009">
        <ele>2034.23</ele>
        <time>2015-06-13T12:03:42Z</time>
      </trkpt>
      <trkpt lat="44.10122" lon="7.18002">
        <ele>2030.985</ele>
        <time>2015-06-13T12:03:45Z</time>
      </trkpt>
      <trkpt lat="44.10119" lon="7.1799">
        <ele>2030.563</ele>
        <time>2015-06-13T12:03:51Z</time>
      </trkpt>
      <trkpt lat="44.10115" lon="7.17979">
        <ele>2030.78</ele>
        <time>2015-06-13T12:03:57Z</time>
      </trkpt>
      <trkpt lat="44.10114" lon="7.17977">
        <ele>2031.441</ele>
        <time>2015-06-13T12:03:58Z</time>
      </trkpt>
      <trkpt lat="44.10112" lon="7.17967">
        <ele>2036.955</ele>
        <time>2015-06-13T12:04:03Z</time>
      </trkpt>
      <trkpt lat="44.10111" lon="7.17956">
        <ele>2039.344</ele>
        <time>2015-06-13T12:04:09Z</time>
      </trkpt>
      <trkpt lat="44.10114" lon="7.17942">
        <ele>2040.262</ele>
        <time>2015-06-13T12:04:16Z</time>
      </trkpt>
      <trkpt lat="44.10115" lon="7.17938">
        <ele>2038.94</ele>
        <time>2015-06-13T12:04:18Z</time>
      </trkpt>
      <trkpt lat="44.10115" lon="7.17927">
        <ele>2038.5</ele>
        <time>2015-06-13T12:04:23Z</time>
      </trkpt>
      <trkpt lat="44.10117" lon="7.1792">
        <ele>2034.677</ele>
        <time>2015-06-13T12:04:27Z</time>
      </trkpt>
      <trkpt lat="44.10118" lon="7.17915">
        <ele>2031.076</ele>
        <time>2015-06-13T12:04:30Z</time>
      </trkpt>
      <trkpt lat="44.10119" lon="7.17907">
        <ele>2026.434</ele>
        <time>2015-06-13T12:04:34Z</time>
      </trkpt>
      <trkpt lat="44.1012" lon="7.179">
        <ele>2025.436</ele>
        <time>2015-06-13T12:04:38Z</time>
      </trkpt>
      <trkpt lat="44.10121" lon="7.17893">
        <ele>2023.406</ele>
        <time>2015-06-13T12:04:42Z</time>
      </trkpt>
      <trkpt lat="44.10119" lon="7.17886">
        <ele>2023.188</ele>
        <time>2015-06-13T12:04:47Z</time>
      </trkpt>
      <trkpt lat="44.10115" lon="7.17886">
        <ele>2024.309</ele>
        <time>2015-06-13T12:04:53Z</time>
      </trkpt>
      <trkpt lat="44.10114" lon="7.17894">
        <ele>2029.513</ele>
        <time>2015-06-13T12:04:59Z</time>
      </trkpt>
      <trkpt lat="44.10114" lon="7.17891">
        <ele>2028.001</ele>
        <time>2015-06-13T12:05:15Z</time>
      </trkpt>
      <trkpt lat="44.10113" lon="7.1789">
        <ele>2026.23</ele>
        <time>2015-06-13T12:05:23Z</time>
      </trkpt>
      <trkpt lat="44.1011" lon="7.17892">
        <ele>2030.302</ele>
        <time>2015-06-13T12:05:33Z</time>
      </trkpt>
      <trkpt lat="44.10107" lon="7.17892">
        <ele>2030.202</ele>
        <time>2015-06-13T12:05:38Z</time>
      </trkpt>
      <trkpt lat="44.10107" lon="7.1789">
        <ele>2031.272</ele>
        <time>2015-06-13T12:05:40Z</time>
      </trkpt>
      <trkpt lat="44.10107" lon="7.17886">
        <ele>2025.967</ele>
        <time>2015-06-13T12:05:47Z</time>
      </trkpt>
      <trkpt lat="44.10108" lon="7.17887">
        <ele>2020.979</ele>
        <time>2015-06-13T12:05:57Z</time>
      </trkpt>
      <trkpt lat="44.10107" lon="7.17889">
        <ele>2018.369</ele>
        <time>2015-06-13T12:06:09Z</time>
      </trkpt>
      <trkpt lat="44.10105" lon="7.1789">
        <ele>2016.448</ele>
        <time>2015-06-13T12:06:15Z</time>
      </trkpt>
      <trkpt lat="44.10101" lon="7.17892">
        <ele>2014.838</ele>
        <time>2015-06-13T12:06:21Z</time>
      </trkpt>
      <trkpt lat="44.10098" lon="7.17894">
        <ele>2015.288</ele>
        <time>2015-06-13T12:06:23Z</time>
      </trkpt>
      <trkpt lat="44.10092" lon="7.17899">
        <ele>2016.449</ele>
        <time>2015-06-13T12:06:28Z</time>
      </trkpt>
      <trkpt lat="44.10087" lon="7.17908">
        <ele>2019.431</ele>
        <time>2015-06-13T12:06:35Z</time>
      </trkpt>
      <trkpt lat="44.10087" lon="7.1791">
        <ele>2018.78</ele>
        <time>2015-06-13T12:06:37Z</time>
      </trkpt>
      <trkpt lat="44.10085" lon="7.17913">
        <ele>2018.149</ele>
        <time>2015-06-13T12:06:42Z</time>
      </trkpt>
      <trkpt lat="44.10086" lon="7.17918">
        <ele>2020.1</ele>
        <time>2015-06-13T12:06:47Z</time>
      </trkpt>
      <trkpt lat="44.10085" lon="7.17919">
        <ele>2019.379</ele>
        <time>2015-06-13T12:06:50Z</time>
      </trkpt>
      <trkpt lat="44.10084" lon="7.1792">
        <ele>2017.127</ele>
        <time>2015-06-13T12:06:52Z</time>
      </trkpt>
      <trkpt lat="44.10083" lon="7.17924">
        <ele>2016.639</ele>
        <time>2015-06-13T12:06:58Z</time>
      </trkpt>
      <trkpt lat="44.10082" lon="7.17927">
        <ele>2017.108</ele>
        <time>2015-06-13T12:07:05Z</time>
      </trkpt>
      <trkpt lat="44.10083" lon="7.17936">
        <ele>2014.806</ele>
        <time>2015-06-13T12:07:10Z</time>
      </trkpt>
      <trkpt lat="44.10082" lon="7.17949">
        <ele>2013.798</ele>
        <time>2015-06-13T12:07:16Z</time>
      </trkpt>
      <trkpt lat="44.10084" lon="7.17961">
        <ele>2012.247</ele>
        <time>2015-06-13T12:07:23Z</time>
      </trkpt>
      <trkpt lat="44.10084" lon="7.17964">
        <ele>2012.298</ele>
        <time>2015-06-13T12:07:25Z</time>
      </trkpt>
      <trkpt lat="44.10082" lon="7.17968">
        <ele>2013.709</ele>
        <time>2015-06-13T12:07:30Z</time>
      </trkpt>
      <trkpt lat="44.10082" lon="7.17969">
        <ele>2016.101</ele>
        <time>2015-06-13T12:07:38Z</time>
      </trkpt>
      <trkpt lat="44.10081" lon="7.17966">
        <ele>2018.753</ele>
        <time>2015-06-13T12:07:42Z</time>
      </trkpt>
      <trkpt lat="44.10079" lon="7.17968">
        <ele>2017.57</ele>
        <time>2015-06-13T12:07:49Z</time>
      </trkpt>
      <trkpt lat="44.10077" lon="7.17968">
        <ele>2017.56</ele>
        <time>2015-06-13T12:07:54Z</time>
      </trkpt>
      <trkpt lat="44.10075" lon="7.17973">
        <ele>2022.002</ele>
        <time>2015-06-13T12:08:03Z</time>
      </trkpt>
      <trkpt lat="44.1008" lon="7.17969">
        <ele>2021.741</ele>
        <time>2015-06-13T12:08:07Z</time>
      </trkpt>
      <trkpt lat="44.10086" lon="7.17972">
        <ele>2022.041</ele>
        <time>2015-06-13T12:08:14Z</time>
      </trkpt>
      <trkpt lat="44.10089" lon="7.17984">
        <ele>2020.379</ele>
        <time>2015-06-13T12:08:22Z</time>
      </trkpt>
      <trkpt lat="44.1009" lon="7.17987">
        <ele>2021.07</ele>
        <time>2015-06-13T12:08:27Z</time>
      </trkpt>
      <trkpt lat="44.10089" lon="7.17993">
        <ele>2022.881</ele>
        <time>2015-06-13T12:08:33Z</time>
      </trkpt>
      <trkpt lat="44.10088" lon="7.17992">
        <ele>2028.502</ele>
        <time>2015-06-13T12:08:43Z</time>
      </trkpt>
      <trkpt lat="44.10085" lon="7.17991">
        <ele>2026.851</ele>
        <time>2015-06-13T12:08:50Z</time>
      </trkpt>
      <trkpt lat="44.10086" lon="7.17991">
        <ele>2027.59</ele>
        <time>2015-06-13T12:08:56Z</time>
      </trkpt>
      <trkpt lat="44.10086" lon="7.17995">
        <ele>2027.37</ele>
        <time>2015-06-13T12:09:02Z</time>
      </trkpt>
      <trkpt lat="44.10085" lon="7.17995">
        <ele>2028.041</ele>
        <time>2015-06-13T12:09:07Z</time>
      </trkpt>
      <trkpt lat="44.10081" lon="7.17994">
        <ele>2023.918</ele>
        <time>2015-06-13T12:09:14Z</time>
      </trkpt>
      <trkpt lat="44.10088" lon="7.17989">
        <ele>2017.678</ele>
        <time>2015-06-13T12:09:47Z</time>
      </trkpt>
      <trkpt lat="44.10083" lon="7.17985">
        <ele>2016.799</ele>
        <time>2015-06-13T12:09:52Z</time>
      </trkpt>
      <trkpt lat="44.10079" lon="7.1798">
        <ele>2018.281</ele>
        <time>2015-06-13T12:09:58Z</time>
      </trkpt>
      <trkpt lat="44.10072" lon="7.17975">
        <ele>2019.162</ele>
        <time>2015-06-13T12:10:05Z</time>
      </trkpt>
      <trkpt lat="44.10071" lon="7.17972">
        <ele>2016.45</ele>
        <time>2015-06-13T12:10:12Z</time>
      </trkpt>
      <trkpt lat="44.10069" lon="7.17962">
        <ele>2015.089</ele>
        <time>2015-06-13T12:10:19Z</time>
      </trkpt>
      <trkpt lat="44.10068" lon="7.17955">
        <ele>2015.36</ele>
        <time>2015-06-13T12:10:27Z</time>
      </trkpt>
      <trkpt lat="44.10069" lon="7.17962">
        <ele>2019.202</ele>
        <time>2015-06-13T12:10:33Z</time>
      </trkpt>
      <trkpt lat="44.1007" lon="7.17963">
        <ele>2019.342</ele>
        <time>2015-06-13T12:10:34Z</time>
      </trkpt>
      <trkpt lat="44.10074" lon="7.17969">
        <ele>2018.68</ele>
        <time>2015-06-13T12:10:41Z</time>
      </trkpt>
      <trkpt lat="44.1008" lon="7.17975">
        <ele>2024.522</ele>
        <time>2015-06-13T12:10:51Z</time>
      </trkpt>
      <trkpt lat="44.10081" lon="7.17975">
        <ele>2025.661</ele>
        <time>2015-06-13T12:10:58Z</time>
      </trkpt>
      <trkpt lat="44.10081" lon="7.17977">
        <ele>2025.881</ele>
        <time>2015-06-13T12:11:01Z</time>
      </trkpt>
      <trkpt lat="44.10082" lon="7.17979">
        <ele>2021.047</ele>
        <time>2015-06-13T12:11:08Z</time>
      </trkpt>
      <trkpt lat="44.10081" lon="7.17977">
        <ele>2014.486</ele>
        <time>2015-06-13T12:11:14Z</time>
      </trkpt>
      <trkpt lat="44.10083" lon="7.17985">
        <ele>2018.951</ele>
        <time>2015-06-13T12:11:22Z</time>
      </trkpt>
      <trkpt lat="44.10086" lon="7.17988">
        <ele>2026.393</ele>
        <time>2015-06-13T12:11:28Z</time>
      </trkpt>
      <trkpt lat="44.10086" lon="7.17991">
        <ele>2021.478</ele>
        <time>2015-06-13T12:11:58Z</time>
      </trkpt>
      <trkpt lat="44.10081" lon="7.17996">
        <ele>2021.89</ele>
        <time>2015-06-13T12:12:05Z</time>
      </trkpt>
      <trkpt lat="44.10075" lon="7.17991">
        <ele>2021.422</ele>
        <time>2015-06-13T12:12:13Z</time>
      </trkpt>
      <trkpt lat="44.1007" lon="7.17993">
        <ele>2028.714</ele>
        <time>2015-06-13T12:12:20Z</time>
      </trkpt>
      <trkpt lat="44.1008" lon="7.17987">
        <ele>2022.886</ele>
        <time>2015-06-13T12:12:39Z</time>
      </trkpt>
      <trkpt lat="44.1009" lon="7.17982">
        <ele>2021.988</ele>
        <time>2015-06-13T12:12:51Z</time>
      </trkpt>
      <trkpt lat="44.10084" lon="7.17984">
        <ele>2028.99</ele>
        <time>2015-06-13T12:13:05Z</time>
      </trkpt>
      <trkpt lat="44.10078" lon="7.17983">
        <ele>2029.191</ele>
        <time>2015-06-13T12:13:10Z</time>
      </trkpt>
      <trkpt lat="44.10077" lon="7.17983">
        <ele>2026.859</ele>
        <time>2015-06-13T12:13:17Z</time>
      </trkpt>
      <trkpt lat="44.10078" lon="7.17982">
        <ele>2026.459</ele>
        <time>2015-06-13T12:13:20Z</time>
      </trkpt>
      <trkpt lat="44.10076" lon="7.17977">
        <ele>2020.926</ele>
        <time>2015-06-13T12:13:27Z</time>
      </trkpt>
      <trkpt lat="44.10076" lon="7.17974">
        <ele>2017.365</ele>
        <time>2015-06-13T12:13:30Z</time>
      </trkpt>
      <trkpt lat="44.10073" lon="7.17971">
        <ele>2016.016</ele>
        <time>2015-06-13T12:13:34Z</time>
      </trkpt>
      <trkpt lat="44.10071" lon="7.1797">
        <ele>2014.115</ele>
        <time>2015-06-13T12:13:36Z</time>
      </trkpt>
      <trkpt lat="44.10069" lon="7.17973">
        <ele>2018.731</ele>
        <time>2015-06-13T12:13:42Z</time>
      </trkpt>
      <trkpt lat="44.10063" lon="7.17972">
        <ele>2023.543</ele>
        <time>2015-06-13T12:13:48Z</time>
      </trkpt>
      <trkpt lat="44.10057" lon="7.17969">
        <ele>2021.96</ele>
        <time>2015-06-13T12:13:54Z</time>
      </trkpt>
      <trkpt lat="44.10057" lon="7.17964">
        <ele>2031.815</ele>
        <time>2015-06-13T12:14:02Z</time>
      </trkpt>
      <trkpt lat="44.10057" lon="7.17965">
        <ele>2040.946</ele>
        <time>2015-06-13T12:14:11Z</time>
      </trkpt>
      <trkpt lat="44.10056" lon="7.17965">
        <ele>2040.686</ele>
        <time>2015-06-13T12:14:12Z</time>
      </trkpt>
      <trkpt lat="44.10054" lon="7.17963">
        <ele>2038.342</ele>
        <time>2015-06-13T12:14:16Z</time>
      </trkpt>
      <trkpt lat="44.10058" lon="7.17959">
        <ele>2030.567</ele>
        <time>2015-06-13T12:14:22Z</time>
      </trkpt>
      <trkpt lat="44.10061" lon="7.17963">
        <ele>2021.168</ele>
        <time>2015-06-13T12:14:54Z</time>
      </trkpt>
      <trkpt lat="44.10067" lon="7.1796">
        <ele>2017.517</ele>
        <time>2015-06-13T12:15:14Z</time>
      </trkpt>
      <trkpt lat="44.10071" lon="7.17969">
        <ele>2028.141</ele>
        <time>2015-06-13T12:15:32Z</time>
      </trkpt>
      <trkpt lat="44.10072" lon="7.17973">
        <ele>2025.269</ele>
        <time>2015-06-13T12:15:39Z</time>
      </trkpt>
      <trkpt lat="44.10076" lon="7.17982">
        <ele>2046.604</ele>
        <time>2015-06-13T12:16:01Z</time>
      </trkpt>
      <trkpt lat="44.10076" lon="7.17982">
        <ele>2043.351</ele>
        <time>2015-06-13T12:16:08Z</time>
      </trkpt>
      <trkpt lat="44.10084" lon="7.17983">
        <ele>2039.989</ele>
        <time>2015-06-13T12:16:15Z</time>
      </trkpt>
      <trkpt lat="44.10086" lon="7.17986">
        <ele>2039.689</ele>
        <time>2015-06-13T12:16:20Z</time>
      </trkpt>
      <trkpt lat="44.10087" lon="7.17992">
        <ele>2035.367</ele>
        <time>2015-06-13T12:16:28Z</time>
      </trkpt>
      <trkpt lat="44.10084" lon="7.1799">
        <ele>2028.768</ele>
        <time>2015-06-13T12:17:17Z</time>
      </trkpt>
      <trkpt lat="44.10086" lon="7.17991">
        <ele>2032.259</ele>
        <time>2015-06-13T12:19:16Z</time>
      </trkpt>
      <trkpt lat="44.10084" lon="7.17992">
        <ele>2030.058</ele>
        <time>2015-06-13T12:19:22Z</time>
      </trkpt>
      <trkpt lat="44.10084" lon="7.17992">
        <ele>2030.038</ele>
        <time>2015-06-13T12:19:23Z</time>
      </trkpt>
      <trkpt lat="44.10078" lon="7.17991">
        <ele>2026.738</ele>
        <time>2015-06-13T12:19:29Z</time>
      </trkpt>
      <trkpt lat="44.10078" lon="7.17988">
        <ele>2027.076</ele>
        <time>2015-06-13T12:19:32Z</time>
      </trkpt>
      <trkpt lat="44.10075" lon="7.17985">
        <ele>2025.188</ele>
        <time>2015-06-13T12:19:36Z</time>
      </trkpt>
      <trkpt lat="44.10075" lon="7.17982">
        <ele>2025.228</ele>
        <time>2015-06-13T12:19:38Z</time>
      </trkpt>
      <trkpt lat="44.10068" lon="7.17977">
        <ele>2024.8</ele>
        <time>2015-06-13T12:19:45Z</time>
      </trkpt>
      <trkpt lat="44.10064" lon="7.17972">
        <ele>2025.19</ele>
        <time>2015-06-13T12:19:51Z</time>
      </trkpt>
      <trkpt lat="44.10063" lon="7.17966">
        <ele>2024.839</ele>
        <time>2015-06-13T12:20:06Z</time>
      </trkpt>
      <trkpt lat="44.10059" lon="7.17967">
        <ele>2019.457</ele>
        <time>2015-06-13T12:20:14Z</time>
      </trkpt>
      <trkpt lat="44.10054" lon="7.17966">
        <ele>2022.381</ele>
        <time>2015-06-13T12:20:21Z</time>
      </trkpt>
      <trkpt lat="44.10054" lon="7.17965">
        <ele>2022.491</ele>
        <time>2015-06-13T12:20:22Z</time>
      </trkpt>
      <trkpt lat="44.10048" lon="7.17952">
        <ele>2020.009</ele>
        <time>2015-06-13T12:20:29Z</time>
      </trkpt>
      <trkpt lat="44.10045" lon="7.17948">
        <ele>2019.65</ele>
        <time>2015-06-13T12:20:32Z</time>
      </trkpt>
      <trkpt lat="44.10038" lon="7.17945">
        <ele>2018.26</ele>
        <time>2015-06-13T12:20:38Z</time>
      </trkpt>
      <trkpt lat="44.10037" lon="7.17944">
        <ele>2017.6</ele>
        <time>2015-06-13T12:20:43Z</time>
      </trkpt>
      <trkpt lat="44.10037" lon="7.17945">
        <ele>2021.171</ele>
        <time>2015-06-13T12:20:48Z</time>
      </trkpt>
      <trkpt lat="44.10036" lon="7.17946">
        <ele>2022.851</ele>
        <time>2015-06-13T12:20:53Z</time>
      </trkpt>
      <trkpt lat="44.10035" lon="7.17946">
        <ele>2022.45</ele>
        <time>2015-06-13T12:20:58Z</time>
      </trkpt>
      <trkpt lat="44.10033" lon="7.1795">
        <ele>2022.16</ele>
        <time>2015-06-13T12:21:03Z</time>
      </trkpt>
      <trkpt lat="44.10033" lon="7.17951">
        <ele>2022.11</ele>
        <time>2015-06-13T12:21:05Z</time>
      </trkpt>
      <trkpt lat="44.10036" lon="7.17956">
        <ele>2022.951</ele>
        <time>2015-06-13T12:21:13Z</time>
      </trkpt>
      <trkpt lat="44.10037" lon="7.17957">
        <ele>2023.641</ele>
        <time>2015-06-13T12:21:14Z</time>
      </trkpt>
      <trkpt lat="44.10038" lon="7.17963">
        <ele>2024.31</ele>
        <time>2015-06-13T12:21:19Z</time>
      </trkpt>
      <trkpt lat="44.10039" lon="7.17968">
        <ele>2027.782</ele>
        <time>2015-06-13T12:21:27Z</time>
      </trkpt>
      <trkpt lat="44.10038" lon="7.17969">
        <ele>2029.133</ele>
        <time>2015-06-13T12:21:31Z</time>
      </trkpt>
      <trkpt lat="44.10032" lon="7.17968">
        <ele>2025.31</ele>
        <time>2015-06-13T12:21:40Z</time>
      </trkpt>
      <trkpt lat="44.10027" lon="7.17968">
        <ele>2026.551</ele>
        <time>2015-06-13T12:21:46Z</time>
      </trkpt>
      <trkpt lat="44.10023" lon="7.17965">
        <ele>2027.252</ele>
        <time>2015-06-13T12:21:52Z</time>
      </trkpt>
      <trkpt lat="44.10016" lon="7.17966">
        <ele>2027.23</ele>
        <time>2015-06-13T12:21:59Z</time>
      </trkpt>
      <trkpt lat="44.10015" lon="7.17967">
        <ele>2028.041</ele>
        <time>2015-06-13T12:22:01Z</time>
      </trkpt>
      <trkpt lat="44.10008" lon="7.1797">
        <ele>2031.911</ele>
        <time>2015-06-13T12:22:10Z</time>
      </trkpt>
      <trkpt lat="44.1" lon="7.17971">
        <ele>2032.702</ele>
        <time>2015-06-13T12:22:17Z</time>
      </trkpt>
      <trkpt lat="44.09992" lon="7.17968">
        <ele>2030.45</ele>
        <time>2015-06-13T12:22:26Z</time>
      </trkpt>
      <trkpt lat="44.09985" lon="7.17963">
        <ele>2031.811</ele>
        <time>2015-06-13T12:22:33Z</time>
      </trkpt>
      <trkpt lat="44.09981" lon="7.17958">
        <ele>2037.886</ele>
        <time>2015-06-13T12:22:39Z</time>
      </trkpt>
      <trkpt lat="44.09976" lon="7.17952">
        <ele>2040.184</ele>
        <time>2015-06-13T12:22:45Z</time>
      </trkpt>
      <trkpt lat="44.09967" lon="7.17945">
        <ele>2046.234</ele>
        <time>2015-06-13T12:23:05Z</time>
      </trkpt>
      <trkpt lat="44.09962" lon="7.17939">
        <ele>2048.151</ele>
        <time>2015-06-13T12:23:13Z</time>
      </trkpt>
      <trkpt lat="44.09956" lon="7.17936">
        <ele>2050.16</ele>
        <time>2015-06-13T12:23:24Z</time>
      </trkpt>
      <trkpt lat="44.09952" lon="7.17933">
        <ele>2049.409</ele>
        <time>2015-06-13T12:23:30Z</time>
      </trkpt>
      <trkpt lat="44.09951" lon="7.17927">
        <ele>2049.1</ele>
        <time>2015-06-13T12:23:37Z</time>
      </trkpt>
      <trkpt lat="44.09944" lon="7.17928">
        <ele>2054.302</ele>
        <time>2015-06-13T12:23:49Z</time>
      </trkpt>
      <trkpt lat="44.09939" lon="7.17926">
        <ele>2053.399</ele>
        <time>2015-06-13T12:23:56Z</time>
      </trkpt>
      <trkpt lat="44.09936" lon="7.17922">
        <ele>2059.093</ele>
        <time>2015-06-13T12:24:01Z</time>
      </trkpt>
      <trkpt lat="44.09934" lon="7.17921">
        <ele>2060.983</ele>
        <time>2015-06-13T12:24:03Z</time>
      </trkpt>
      <trkpt lat="44.0993" lon="7.17918">
        <ele>2059.812</ele>
        <time>2015-06-13T12:24:08Z</time>
      </trkpt>
      <trkpt lat="44.09928" lon="7.17917">
        <ele>2064.173</ele>
        <time>2015-06-13T12:24:12Z</time>
      </trkpt>
      <trkpt lat="44.09927" lon="7.17916">
        <ele>2065.044</ele>
        <time>2015-06-13T12:24:13Z</time>
      </trkpt>
      <trkpt lat="44.09926" lon="7.17913">
        <ele>2064.522</ele>
        <time>2015-06-13T12:24:15Z</time>
      </trkpt>
      <trkpt lat="44.09925" lon="7.17903">
        <ele>2060.759</ele>
        <time>2015-06-13T12:24:22Z</time>
      </trkpt>
      <trkpt lat="44.09922" lon="7.17898">
        <ele>2056.518</ele>
        <time>2015-06-13T12:24:30Z</time>
      </trkpt>
      <trkpt lat="44.09918" lon="7.17904">
        <ele>2071.113</ele>
        <time>2015-06-13T12:24:48Z</time>
      </trkpt>
      <trkpt lat="44.09921" lon="7.17892">
        <ele>2060.559</ele>
        <time>2015-06-13T12:27:10Z</time>
      </trkpt>
      <trkpt lat="44.09916" lon="7.17898">
        <ele>2057.978</ele>
        <time>2015-06-13T12:27:17Z</time>
      </trkpt>
      <trkpt lat="44.09915" lon="7.17899">
        <ele>2056.206</ele>
        <time>2015-06-13T12:27:18Z</time>
      </trkpt>
      <trkpt lat="44.0991" lon="7.17906">
        <ele>2052.665</ele>
        <time>2015-06-13T12:27:25Z</time>
      </trkpt>
      <trkpt lat="44.09906" lon="7.1791">
        <ele>2048.305</ele>
        <time>2015-06-13T12:27:30Z</time>
      </trkpt>
      <trkpt lat="44.099" lon="7.17911">
        <ele>2043.805</ele>
        <time>2015-06-13T12:27:38Z</time>
      </trkpt>
      <trkpt lat="44.09894" lon="7.17911">
        <ele>2042.635</ele>
        <time>2015-06-13T12:27:42Z</time>
      </trkpt>
      <trkpt lat="44.09884" lon="7.17908">
        <ele>2047.148</ele>
        <time>2015-06-13T12:27:56Z</time>
      </trkpt>
      <trkpt lat="44.09874" lon="7.17908">
        <ele>2042.026</ele>
        <time>2015-06-13T12:28:02Z</time>
      </trkpt>
      <trkpt lat="44.0987" lon="7.17911">
        <ele>2037.485</ele>
        <time>2015-06-13T12:28:06Z</time>
      </trkpt>
      <trkpt lat="44.09865" lon="7.17911">
        <ele>2039.267</ele>
        <time>2015-06-13T12:28:11Z</time>
      </trkpt>
      <trkpt lat="44.0986" lon="7.1791">
        <ele>2034.365</ele>
        <time>2015-06-13T12:28:16Z</time>
      </trkpt>
      <trkpt lat="44.09854" lon="7.1791">
        <ele>2034.437</ele>
        <time>2015-06-13T12:28:22Z</time>
      </trkpt>
      <trkpt lat="44.09847" lon="7.17908">
        <ele>2032.787</ele>
        <time>2015-06-13T12:28:29Z</time>
      </trkpt>
      <trkpt lat="44.0984" lon="7.17906">
        <ele>2034.498</ele>
        <time>2015-06-13T12:28:36Z</time>
      </trkpt>
      <trkpt lat="44.09834" lon="7.17904">
        <ele>2042.043</ele>
        <time>2015-06-13T12:28:43Z</time>
      </trkpt>
      <trkpt lat="44.09827" lon="7.17901">
        <ele>2045.903</ele>
        <time>2015-06-13T12:28:50Z</time>
      </trkpt>
      <trkpt lat="44.09822" lon="7.17901">
        <ele>2047.593</ele>
        <time>2015-06-13T12:28:54Z</time>
      </trkpt>
      <trkpt lat="44.09818" lon="7.17896">
        <ele>2056.917</ele>
        <time>2015-06-13T12:28:58Z</time>
      </trkpt>
      <trkpt lat="44.09814" lon="7.17893">
        <ele>2058.365</ele>
        <time>2015-06-13T12:29:03Z</time>
      </trkpt>
      <trkpt lat="44.0981" lon="7.17891">
        <ele>2058.053</ele>
        <time>2015-06-13T12:29:08Z</time>
      </trkpt>
      <trkpt lat="44.09809" lon="7.17891">
        <ele>2059.454</ele>
        <time>2015-06-13T12:29:09Z</time>
      </trkpt>
      <trkpt lat="44.09807" lon="7.17889">
        <ele>2059.863</ele>
        <time>2015-06-13T12:29:16Z</time>
      </trkpt>
      <trkpt lat="44.098" lon="7.17887">
        <ele>2058.901</ele>
        <time>2015-06-13T12:29:27Z</time>
      </trkpt>
      <trkpt lat="44.09799" lon="7.17888">
        <ele>2058.611</ele>
        <time>2015-06-13T12:29:28Z</time>
      </trkpt>
      <trkpt lat="44.09794" lon="7.17886">
        <ele>2057.43</ele>
        <time>2015-06-13T12:29:33Z</time>
      </trkpt>
      <trkpt lat="44.09787" lon="7.17886">
        <ele>2053.559</ele>
        <time>2015-06-13T12:29:40Z</time>
      </trkpt>
      <trkpt lat="44.09784" lon="7.17885">
        <ele>2057.831</ele>
        <time>2015-06-13T12:29:42Z</time>
      </trkpt>
      <trkpt lat="44.0977" lon="7.17882">
        <ele>2060.649</ele>
        <time>2015-06-13T12:29:51Z</time>
      </trkpt>
      <trkpt lat="44.09766" lon="7.17881">
        <ele>2059.059</ele>
        <time>2015-06-13T12:29:54Z</time>
      </trkpt>
      <trkpt lat="44.09763" lon="7.17881">
        <ele>2059.569</ele>
        <time>2015-06-13T12:29:56Z</time>
      </trkpt>
      <trkpt lat="44.09757" lon="7.17882">
        <ele>2059.069</ele>
        <time>2015-06-13T12:30:01Z</time>
      </trkpt>
      <trkpt lat="44.09752" lon="7.17882">
        <ele>2060.349</ele>
        <time>2015-06-13T12:30:05Z</time>
      </trkpt>
      <trkpt lat="44.09742" lon="7.17884">
        <ele>2060.087</ele>
        <time>2015-06-13T12:30:11Z</time>
      </trkpt>
      <trkpt lat="44.09734" lon="7.17882">
        <ele>2059.967</ele>
        <time>2015-06-13T12:30:17Z</time>
      </trkpt>
      <trkpt lat="44.09726" lon="7.17883">
        <ele>2059.126</ele>
        <time>2015-06-13T12:30:22Z</time>
      </trkpt>
      <trkpt lat="44.09719" lon="7.17887">
        <ele>2058.106</ele>
        <time>2015-06-13T12:30:28Z</time>
      </trkpt>
      <trkpt lat="44.09713" lon="7.17896">
        <ele>2055.996</ele>
        <time>2015-06-13T12:30:35Z</time>
      </trkpt>
      <trkpt lat="44.09707" lon="7.17904">
        <ele>2054.866</ele>
        <time>2015-06-13T12:30:41Z</time>
      </trkpt>
      <trkpt lat="44.09705" lon="7.17909">
        <ele>2054.267</ele>
        <time>2015-06-13T12:30:45Z</time>
      </trkpt>
      <trkpt lat="44.09699" lon="7.17923">
        <ele>2054.468</ele>
        <time>2015-06-13T12:30:53Z</time>
      </trkpt>
      <trkpt lat="44.09694" lon="7.1793">
        <ele>2051.296</ele>
        <time>2015-06-13T12:30:58Z</time>
      </trkpt>
      <trkpt lat="44.0969" lon="7.17936">
        <ele>2047.465</ele>
        <time>2015-06-13T12:31:03Z</time>
      </trkpt>
      <trkpt lat="44.09686" lon="7.17942">
        <ele>2044.995</ele>
        <time>2015-06-13T12:31:08Z</time>
      </trkpt>
      <trkpt lat="44.09681" lon="7.1795">
        <ele>2042.385</ele>
        <time>2015-06-13T12:31:14Z</time>
      </trkpt>
      <trkpt lat="44.09678" lon="7.17956">
        <ele>2044.497</ele>
        <time>2015-06-13T12:31:18Z</time>
      </trkpt>
      <trkpt lat="44.09674" lon="7.17962">
        <ele>2043.177</ele>
        <time>2015-06-13T12:31:23Z</time>
      </trkpt>
      <trkpt lat="44.09672" lon="7.17965">
        <ele>2045.738</ele>
        <time>2015-06-13T12:31:26Z</time>
      </trkpt>
      <trkpt lat="44.09666" lon="7.17974">
        <ele>2046.959</ele>
        <time>2015-06-13T12:31:32Z</time>
      </trkpt>
      <trkpt lat="44.09664" lon="7.17977">
        <ele>2047.21</ele>
        <time>2015-06-13T12:31:36Z</time>
      </trkpt>
      <trkpt lat="44.09663" lon="7.17984">
        <ele>2047.609</ele>
        <time>2015-06-13T12:31:41Z</time>
      </trkpt>
      <trkpt lat="44.09661" lon="7.17986">
        <ele>2046.81</ele>
        <time>2015-06-13T12:31:43Z</time>
      </trkpt>
      <trkpt lat="44.09661" lon="7.17988">
        <ele>2044.778</ele>
        <time>2015-06-13T12:31:45Z</time>
      </trkpt>
      <trkpt lat="44.09658" lon="7.18">
        <ele>2044.949</ele>
        <time>2015-06-13T12:31:51Z</time>
      </trkpt>
      <trkpt lat="44.09656" lon="7.18005">
        <ele>2044.418</ele>
        <time>2015-06-13T12:31:54Z</time>
      </trkpt>
      <trkpt lat="44.09651" lon="7.18014">
        <ele>2048.34</ele>
        <time>2015-06-13T12:32:02Z</time>
      </trkpt>
      <trkpt lat="44.09651" lon="7.18016">
        <ele>2050.431</ele>
        <time>2015-06-13T12:32:04Z</time>
      </trkpt>
      <trkpt lat="44.09651" lon="7.18024">
        <ele>2057.123</ele>
        <time>2015-06-13T12:32:10Z</time>
      </trkpt>
      <trkpt lat="44.09651" lon="7.18024">
        <ele>2056.333</ele>
        <time>2015-06-13T12:32:11Z</time>
      </trkpt>
      <trkpt lat="44.09659" lon="7.18028">
        <ele>2058.332</ele>
        <time>2015-06-13T12:32:17Z</time>
      </trkpt>
      <trkpt lat="44.09662" lon="7.18033">
        <ele>2059.002</ele>
        <time>2015-06-13T12:32:24Z</time>
      </trkpt>
      <trkpt lat="44.09667" lon="7.18035">
        <ele>2061.283</ele>
        <time>2015-06-13T12:32:28Z</time>
      </trkpt>
      <trkpt lat="44.09674" lon="7.18042">
        <ele>2058.539</ele>
        <time>2015-06-13T12:32:34Z</time>
      </trkpt>
      <trkpt lat="44.09679" lon="7.18048">
        <ele>2058.79</ele>
        <time>2015-06-13T12:32:40Z</time>
      </trkpt>
      <trkpt lat="44.09685" lon="7.18055">
        <ele>2060.96</ele>
        <time>2015-06-13T12:32:47Z</time>
      </trkpt>
      <trkpt lat="44.09691" lon="7.18063">
        <ele>2062.57</ele>
        <time>2015-06-13T12:32:54Z</time>
      </trkpt>
      <trkpt lat="44.09697" lon="7.1807">
        <ele>2063.15</ele>
        <time>2015-06-13T12:33:01Z</time>
      </trkpt>
      <trkpt lat="44.09705" lon="7.18078">
        <ele>2062.188</ele>
        <time>2015-06-13T12:33:08Z</time>
      </trkpt>
      <trkpt lat="44.09706" lon="7.18079">
        <ele>2062.159</ele>
        <time>2015-06-13T12:33:09Z</time>
      </trkpt>
      <trkpt lat="44.09709" lon="7.1808">
        <ele>2060.007</ele>
        <time>2015-06-13T12:33:12Z</time>
      </trkpt>
      <trkpt lat="44.09718" lon="7.18095">
        <ele>2059.878</ele>
        <time>2015-06-13T12:33:21Z</time>
      </trkpt>
      <trkpt lat="44.09723" lon="7.18102">
        <ele>2058.497</ele>
        <time>2015-06-13T12:33:27Z</time>
      </trkpt>
      <trkpt lat="44.09725" lon="7.1811">
        <ele>2058.018</ele>
        <time>2015-06-13T12:33:33Z</time>
      </trkpt>
      <trkpt lat="44.09728" lon="7.1812">
        <ele>2054.022</ele>
        <time>2015-06-13T12:35:07Z</time>
      </trkpt>
      <trkpt lat="44.0973" lon="7.18126">
        <ele>2063.344</ele>
        <time>2015-06-13T12:35:14Z</time>
      </trkpt>
      <trkpt lat="44.09732" lon="7.18127">
        <ele>2062.993</ele>
        <time>2015-06-13T12:35:15Z</time>
      </trkpt>
      <trkpt lat="44.09737" lon="7.18144">
        <ele>2066.033</ele>
        <time>2015-06-13T12:35:24Z</time>
      </trkpt>
      <trkpt lat="44.09741" lon="7.18148">
        <ele>2065.491</ele>
        <time>2015-06-13T12:35:28Z</time>
      </trkpt>
      <trkpt lat="44.09744" lon="7.18161">
        <ele>2064.28</ele>
        <time>2015-06-13T12:35:35Z</time>
      </trkpt>
      <trkpt lat="44.09748" lon="7.18173">
        <ele>2060.147</ele>
        <time>2015-06-13T12:35:41Z</time>
      </trkpt>
      <trkpt lat="44.09749" lon="7.18182">
        <ele>2063.87</ele>
        <time>2015-06-13T12:35:45Z</time>
      </trkpt>
      <trkpt lat="44.09753" lon="7.18196">
        <ele>2056.666</ele>
        <time>2015-06-13T12:35:53Z</time>
      </trkpt>
      <trkpt lat="44.09755" lon="7.18203">
        <ele>2057.568</ele>
        <time>2015-06-13T12:35:56Z</time>
      </trkpt>
      <trkpt lat="44.09754" lon="7.18217">
        <ele>2061.9</ele>
        <time>2015-06-13T12:36:03Z</time>
      </trkpt>
      <trkpt lat="44.09754" lon="7.18221">
        <ele>2060.57</ele>
        <time>2015-06-13T12:36:05Z</time>
      </trkpt>
      <trkpt lat="44.09754" lon="7.1823">
        <ele>2050.695</ele>
        <time>2015-06-13T12:36:13Z</time>
      </trkpt>
      <trkpt lat="44.09754" lon="7.18241">
        <ele>2053.738</ele>
        <time>2015-06-13T12:36:19Z</time>
      </trkpt>
      <trkpt lat="44.09753" lon="7.18257">
        <ele>2056.46</ele>
        <time>2015-06-13T12:36:26Z</time>
      </trkpt>
      <trkpt lat="44.09752" lon="7.18266">
        <ele>2045.461</ele>
        <time>2015-06-13T12:36:32Z</time>
      </trkpt>
      <trkpt lat="44.0975" lon="7.18269">
        <ele>2045.486</ele>
        <time>2015-06-13T12:36:34Z</time>
      </trkpt>
      <trkpt lat="44.09751" lon="7.18282">
        <ele>2041.156</ele>
        <time>2015-06-13T12:36:42Z</time>
      </trkpt>
      <trkpt lat="44.0975" lon="7.18291">
        <ele>2039.747</ele>
        <time>2015-06-13T12:36:47Z</time>
      </trkpt>
      <trkpt lat="44.0975" lon="7.18294">
        <ele>2041.008</ele>
        <time>2015-06-13T12:36:49Z</time>
      </trkpt>
      <trkpt lat="44.09746" lon="7.183">
        <ele>2040.228</ele>
        <time>2015-06-13T12:36:53Z</time>
      </trkpt>
      <trkpt lat="44.09741" lon="7.18307">
        <ele>2032.245</ele>
        <time>2015-06-13T12:37:00Z</time>
      </trkpt>
      <trkpt lat="44.09736" lon="7.18313">
        <ele>2033.366</ele>
        <time>2015-06-13T12:37:05Z</time>
      </trkpt>
      <trkpt lat="44.09733" lon="7.18319">
        <ele>2033.957</ele>
        <time>2015-06-13T12:37:09Z</time>
      </trkpt>
      <trkpt lat="44.0973" lon="7.18328">
        <ele>2027.866</ele>
        <time>2015-06-13T12:37:17Z</time>
      </trkpt>
      <trkpt lat="44.09722" lon="7.18337">
        <ele>2030.739</ele>
        <time>2015-06-13T12:37:25Z</time>
      </trkpt>
      <trkpt lat="44.09719" lon="7.1834">
        <ele>2035.011</ele>
        <time>2015-06-13T12:37:27Z</time>
      </trkpt>
      <trkpt lat="44.09709" lon="7.18351">
        <ele>2042.994</ele>
        <time>2015-06-13T12:37:34Z</time>
      </trkpt>
      <trkpt lat="44.09707" lon="7.18355">
        <ele>2046.806</ele>
        <time>2015-06-13T12:37:36Z</time>
      </trkpt>
      <trkpt lat="44.09704" lon="7.18361">
        <ele>2042.873</ele>
        <time>2015-06-13T12:37:41Z</time>
      </trkpt>
      <trkpt lat="44.09697" lon="7.18371">
        <ele>2047.683</ele>
        <time>2015-06-13T12:37:49Z</time>
      </trkpt>
      <trkpt lat="44.09692" lon="7.18379">
        <ele>2051.183</ele>
        <time>2015-06-13T12:37:54Z</time>
      </trkpt>
      <trkpt lat="44.0969" lon="7.18385">
        <ele>2045.689</ele>
        <time>2015-06-13T12:37:58Z</time>
      </trkpt>
      <trkpt lat="44.09685" lon="7.18396">
        <ele>2036.904</ele>
        <time>2015-06-13T12:38:05Z</time>
      </trkpt>
      <trkpt lat="44.09683" lon="7.18399">
        <ele>2035.674</ele>
        <time>2015-06-13T12:38:07Z</time>
      </trkpt>
      <trkpt lat="44.09677" lon="7.18409">
        <ele>2033.036</ele>
        <time>2015-06-13T12:38:14Z</time>
      </trkpt>
      <trkpt lat="44.09675" lon="7.18414">
        <ele>2034.177</ele>
        <time>2015-06-13T12:38:18Z</time>
      </trkpt>
      <trkpt lat="44.09672" lon="7.18422">
        <ele>2038.46</ele>
        <time>2015-06-13T12:38:24Z</time>
      </trkpt>
      <trkpt lat="44.09663" lon="7.18437">
        <ele>2043.933</ele>
        <time>2015-06-13T12:38:32Z</time>
      </trkpt>
      <trkpt lat="44.09659" lon="7.18442">
        <ele>2041.109</ele>
        <time>2015-06-13T12:38:36Z</time>
      </trkpt>
      <trkpt lat="44.09656" lon="7.18451">
        <ele>2030.396</ele>
        <time>2015-06-13T12:38:43Z</time>
      </trkpt>
      <trkpt lat="44.09653" lon="7.18462">
        <ele>2032.659</ele>
        <time>2015-06-13T12:38:50Z</time>
      </trkpt>
      <trkpt lat="44.09644" lon="7.18474">
        <ele>2031.208</ele>
        <time>2015-06-13T12:38:59Z</time>
      </trkpt>
      <trkpt lat="44.09638" lon="7.18483">
        <ele>2030.069</ele>
        <time>2015-06-13T12:39:06Z</time>
      </trkpt>
      <trkpt lat="44.09637" lon="7.18486">
        <ele>2026.778</ele>
        <time>2015-06-13T12:39:08Z</time>
      </trkpt>
      <trkpt lat="44.09632" lon="7.18494">
        <ele>2027.979</ele>
        <time>2015-06-13T12:39:13Z</time>
      </trkpt>
      <trkpt lat="44.09624" lon="7.18505">
        <ele>2020.956</ele>
        <time>2015-06-13T12:39:21Z</time>
      </trkpt>
      <trkpt lat="44.09622" lon="7.18509">
        <ele>2020.847</ele>
        <time>2015-06-13T12:39:25Z</time>
      </trkpt>
      <trkpt lat="44.09621" lon="7.18513">
        <ele>2025.15</ele>
        <time>2015-06-13T12:39:27Z</time>
      </trkpt>
      <trkpt lat="44.09619" lon="7.18521">
        <ele>2029.691</ele>
        <time>2015-06-13T12:39:34Z</time>
      </trkpt>
      <trkpt lat="44.09623" lon="7.18524">
        <ele>2024.368</ele>
        <time>2015-06-13T12:39:40Z</time>
      </trkpt>
      <trkpt lat="44.09628" lon="7.1853">
        <ele>2021.49</ele>
        <time>2015-06-13T12:39:47Z</time>
      </trkpt>
      <trkpt lat="44.09631" lon="7.18534">
        <ele>2022.23</ele>
        <time>2015-06-13T12:39:52Z</time>
      </trkpt>
      <trkpt lat="44.09632" lon="7.18535">
        <ele>2021.801</ele>
        <time>2015-06-13T12:39:53Z</time>
      </trkpt>
      <trkpt lat="44.09639" lon="7.18544">
        <ele>2018.108</ele>
        <time>2015-06-13T12:40:00Z</time>
      </trkpt>
      <trkpt lat="44.09642" lon="7.18549">
        <ele>2016.667</ele>
        <time>2015-06-13T12:40:04Z</time>
      </trkpt>
      <trkpt lat="44.09646" lon="7.18554">
        <ele>2010.437</ele>
        <time>2015-06-13T12:40:11Z</time>
      </trkpt>
      <trkpt lat="44.09652" lon="7.18553">
        <ele>2006.968</ele>
        <time>2015-06-13T12:40:23Z</time>
      </trkpt>
      <trkpt lat="44.09658" lon="7.18561">
        <ele>2009.919</ele>
        <time>2015-06-13T12:40:29Z</time>
      </trkpt>
      <trkpt lat="44.09666" lon="7.18566">
        <ele>2014.611</ele>
        <time>2015-06-13T12:40:36Z</time>
      </trkpt>
      <trkpt lat="44.09673" lon="7.18572">
        <ele>2013.949</ele>
        <time>2015-06-13T12:40:43Z</time>
      </trkpt>
      <trkpt lat="44.09683" lon="7.18577">
        <ele>2017.12</ele>
        <time>2015-06-13T12:40:49Z</time>
      </trkpt>
      <trkpt lat="44.09687" lon="7.1858">
        <ele>2015.07</ele>
        <time>2015-06-13T12:40:55Z</time>
      </trkpt>
      <trkpt lat="44.09695" lon="7.18581">
        <ele>2009.778</ele>
        <time>2015-06-13T12:41:01Z</time>
      </trkpt>
      <trkpt lat="44.09703" lon="7.18581">
        <ele>2004.017</ele>
        <time>2015-06-13T12:41:07Z</time>
      </trkpt>
      <trkpt lat="44.09707" lon="7.18582">
        <ele>2001.567</ele>
        <time>2015-06-13T12:41:10Z</time>
      </trkpt>
      <trkpt lat="44.09714" lon="7.18588">
        <ele>2003.35</ele>
        <time>2015-06-13T12:41:17Z</time>
      </trkpt>
      <trkpt lat="44.09715" lon="7.18588">
        <ele>2001.66</ele>
        <time>2015-06-13T12:41:19Z</time>
      </trkpt>
      <trkpt lat="44.09719" lon="7.18589">
        <ele>1999.289</ele>
        <time>2015-06-13T12:41:22Z</time>
      </trkpt>
      <trkpt lat="44.09728" lon="7.18592">
        <ele>2001.872</ele>
        <time>2015-06-13T12:41:30Z</time>
      </trkpt>
      <trkpt lat="44.09735" lon="7.18589">
        <ele>2004.823</ele>
        <time>2015-06-13T12:41:35Z</time>
      </trkpt>
      <trkpt lat="44.09739" lon="7.18592">
        <ele>2012.936</ele>
        <time>2015-06-13T12:41:42Z</time>
      </trkpt>
      <trkpt lat="44.09746" lon="7.18594">
        <ele>2011.173</ele>
        <time>2015-06-13T12:41:48Z</time>
      </trkpt>
      <trkpt lat="44.0975" lon="7.18595">
        <ele>2012.713</ele>
        <time>2015-06-13T12:41:54Z</time>
      </trkpt>
      <trkpt lat="44.09751" lon="7.18595">
        <ele>2014.083</ele>
        <time>2015-06-13T12:41:56Z</time>
      </trkpt>
      <trkpt lat="44.0976" lon="7.18595">
        <ele>2014.933</ele>
        <time>2015-06-13T12:42:04Z</time>
      </trkpt>
      <trkpt lat="44.09769" lon="7.18596">
        <ele>2005.789</ele>
        <time>2015-06-13T12:42:15Z</time>
      </trkpt>
      <trkpt lat="44.09773" lon="7.18596">
        <ele>2004.46</ele>
        <time>2015-06-13T12:42:20Z</time>
      </trkpt>
      <trkpt lat="44.09775" lon="7.18597">
        <ele>2005.401</ele>
        <time>2015-06-13T12:42:25Z</time>
      </trkpt>
      <trkpt lat="44.09779" lon="7.18596">
        <ele>2005.021</ele>
        <time>2015-06-13T12:42:30Z</time>
      </trkpt>
      <trkpt lat="44.09785" lon="7.18599">
        <ele>2009.284</ele>
        <time>2015-06-13T12:42:37Z</time>
      </trkpt>
      <trkpt lat="44.09787" lon="7.18604">
        <ele>2019.768</ele>
        <time>2015-06-13T12:42:43Z</time>
      </trkpt>
      <trkpt lat="44.09787" lon="7.18606">
        <ele>2023.27</ele>
        <time>2015-06-13T12:42:44Z</time>
      </trkpt>
      <trkpt lat="44.09791" lon="7.18608">
        <ele>2027.438</ele>
        <time>2015-06-13T12:42:50Z</time>
      </trkpt>
      <trkpt lat="44.09799" lon="7.18609">
        <ele>2027.563</ele>
        <time>2015-06-13T12:43:00Z</time>
      </trkpt>
      <trkpt lat="44.09803" lon="7.18611">
        <ele>2027.863</ele>
        <time>2015-06-13T12:43:05Z</time>
      </trkpt>
      <trkpt lat="44.09805" lon="7.18612">
        <ele>2027.432</ele>
        <time>2015-06-13T12:43:08Z</time>
      </trkpt>
      <trkpt lat="44.09809" lon="7.18617">
        <ele>2029.503</ele>
        <time>2015-06-13T12:43:14Z</time>
      </trkpt>
      <trkpt lat="44.09811" lon="7.1862">
        <ele>2029.942</ele>
        <time>2015-06-13T12:43:18Z</time>
      </trkpt>
      <trkpt lat="44.09816" lon="7.18625">
        <ele>2027.221</ele>
        <time>2015-06-13T12:43:24Z</time>
      </trkpt>
      <trkpt lat="44.09823" lon="7.18625">
        <ele>2017.717</ele>
        <time>2015-06-13T12:43:30Z</time>
      </trkpt>
      <trkpt lat="44.09829" lon="7.18625">
        <ele>2011.076</ele>
        <time>2015-06-13T12:43:35Z</time>
      </trkpt>
      <trkpt lat="44.09832" lon="7.18625">
        <ele>2003.965</ele>
        <time>2015-06-13T12:43:41Z</time>
      </trkpt>
      <trkpt lat="44.09832" lon="7.18625">
        <ele>2004.147</ele>
        <time>2015-06-13T12:43:45Z</time>
      </trkpt>
      <trkpt lat="44.09835" lon="7.18626">
        <ele>2006.5</ele>
        <time>2015-06-13T12:43:47Z</time>
      </trkpt>
      <trkpt lat="44.0984" lon="7.18634">
        <ele>2014.643</ele>
        <time>2015-06-13T12:43:54Z</time>
      </trkpt>
      <trkpt lat="44.09839" lon="7.18645">
        <ele>2025.658</ele>
        <time>2015-06-13T12:44:02Z</time>
      </trkpt>
      <trkpt lat="44.0984" lon="7.18642">
        <ele>2019.791</ele>
        <time>2015-06-13T12:44:10Z</time>
      </trkpt>
      <trkpt lat="44.09844" lon="7.18652">
        <ele>2036.301</ele>
        <time>2015-06-13T12:45:09Z</time>
      </trkpt>
    </trkseg>
  </trk>
</gpx>